Date StartTime U_cm/s V_cm/s W_cm/s Ustd_cm/s Vstd_cm/s Wstd_cm/s Uvar_(cm/s)^2 Vvar_(cm/s)^2 Wvar_(cm/s)^2 KE_(m/s)^2 TurbulentKE_(m/s)^2 HorizWindSpeed_cm/s FrictionSpeec_cm/s DragCoef SpeedOfSound_m/s SonicTemperature_C Pressure_mb 
10/30/2013  00:00:00       26.278       37.663        1.367       18.026       25.038       14.062      324.946      626.904      197.742        0.163        0.057       45.924       15.202        0.110      334.279        4.148      861.513
10/30/2013  00:01:00       21.906       44.946       -3.181       18.114       21.182       11.898      328.120      448.689      141.559        0.171        0.046       50.000        8.033        0.026      334.251        4.101      861.513
10/30/2013  00:02:00       33.630       60.161      -12.443       17.521       21.812       12.203      306.988      475.766      148.912        0.292        0.047       68.922       11.598        0.028      334.257        4.111      861.514
10/30/2013  00:03:00       55.598       34.015        3.786       24.426       18.107       15.059      596.620      327.871      226.759        0.271        0.058       65.178       11.608        0.032      334.264        4.122      861.503
10/30/2013  00:04:00       33.375       30.524       -4.528       13.725       17.652       11.157      188.385      311.594      124.485        0.135        0.031       45.229        7.601        0.028      334.272        4.135      861.487
10/30/2013  00:05:00       38.905       31.912       11.043       20.380       18.511       13.459      415.357      342.672      181.143        0.180        0.047       50.319       10.284        0.042      334.313        4.203      861.462
10/30/2013  00:06:00       62.809       36.377        7.251       18.336       18.079       18.354      336.218      326.845      336.860        0.316        0.050       72.583       10.998        0.023      334.299        4.181      861.449
10/30/2013  00:07:00       64.847       20.974        1.844       13.347       12.750       12.900      178.137      162.558      166.411        0.258        0.025       68.154        5.955        0.008      334.289        4.163      861.437
10/30/2013  00:08:00       23.671       34.128        2.222       21.119       26.865       15.836      446.019      721.741      250.769        0.157        0.071       41.534       14.267        0.118      334.289        4.165      861.439
10/30/2013  00:09:00       22.493       61.185       -5.308       20.822       24.872       16.339      433.554      618.605      266.950        0.280        0.066       65.189       13.726        0.044      334.265        4.124      861.432
10/30/2013  00:10:00       33.332       60.487       -7.179       18.839       17.771       13.232      354.900      315.819      175.091        0.283        0.042       69.064        9.541        0.019      334.261        4.117      861.434
10/30/2013  00:11:00       50.079       46.201        0.827       20.886       12.432       10.971      436.234      154.566      120.372        0.268        0.036       68.136        5.552        0.007      334.246        4.093      861.431
10/30/2013  00:12:00       55.075       27.816        2.435       15.998       15.777       13.311      255.925      248.902      177.191        0.225        0.034       61.701       10.548        0.029      334.262        4.119      861.432
10/30/2013  00:13:00       70.405       45.439        3.712       16.593       16.890       19.714      275.332      285.285      388.656        0.399        0.047       83.795       11.909        0.020      334.270        4.134      861.429
10/30/2013  00:14:00       65.014       59.970        4.281       19.220       22.107       22.744      369.423      488.733      517.311        0.461        0.069       88.449       19.511        0.049      334.250        4.101      861.424
10/30/2013  00:15:00       53.275       44.258        8.567       23.923       20.675       18.858      572.333      427.470      355.621        0.311        0.068       69.260       14.900        0.046      334.273        4.138      861.417
10/30/2013  00:16:00       73.838       54.542       -3.324       21.948       19.185       11.678      481.730      368.062      136.384        0.471        0.049       91.798       10.125        0.012      334.251        4.101      861.409
10/30/2013  00:17:00       49.838       50.677        0.103       25.926       18.752       17.253      672.133      351.650      297.666        0.319        0.066       71.077       12.820        0.033      334.257        4.111      861.400
10/30/2013  00:18:00       55.754       39.653       10.633       18.048       15.498       18.585      325.725      240.202      345.404        0.285        0.046       68.417       12.096        0.031      334.278        4.146      861.387
10/30/2013  00:19:00       61.502       43.590       10.277       27.673       16.593       18.537      765.802      275.335      343.618        0.359        0.069       75.383       14.741        0.038      334.266        4.126      861.368
10/30/2013  00:20:00       43.827       44.978       -1.152       21.963       17.906       16.815      482.353      320.642      282.729        0.252        0.054       62.800       10.474        0.028      334.270        4.133      861.360
10/30/2013  00:21:00       60.905       32.234        5.542       23.029       19.168       19.008      530.355      367.409      361.299        0.302        0.063       68.909       13.258        0.037      334.296        4.176      861.355
10/30/2013  00:22:00       62.843       50.710        2.107       27.022       19.249       20.495      730.176      370.531      420.042        0.402        0.076       80.751        8.654        0.011      334.257        4.113      861.366
10/30/2013  00:23:00       69.007       45.675        6.201       23.059       19.378       16.803      531.715      375.489      282.351        0.404        0.059       82.754       12.532        0.023      334.260        4.116      861.383
10/30/2013  00:24:00       59.098       51.476        2.280       22.853       20.966       23.368      522.239      439.553      546.063        0.383        0.075       78.374       14.615        0.035      334.268        4.131      861.396
10/30/2013  00:25:00       44.161       33.152       11.727       26.752       20.077       19.936      715.659      403.104      397.429        0.235        0.076       55.220       14.000        0.064      334.290        4.167      861.410
10/30/2013  00:26:00       63.982       39.756        7.227       24.713       24.156       20.749      610.732      583.532      430.523        0.368        0.081       75.328       10.287        0.019      334.254        4.107      861.414
10/30/2013  00:27:00       22.205       42.383        3.686       32.591       27.400       24.783     1062.160      750.758      614.203        0.236        0.121       47.847       17.536        0.134      334.266        4.126      861.418
10/30/2013  00:28:00       42.756       45.882        0.384       20.745       29.703       28.322      430.371      882.269      802.136        0.302        0.106       62.715       19.788        0.100      334.258        4.113      861.416
10/30/2013  00:29:00       44.000       55.603       -5.436       22.503       28.526       21.865      506.380      813.749      478.080        0.343        0.090       70.907       16.462        0.054      334.240        4.085      861.412
10/30/2013  00:30:00       58.979       50.150        3.710       26.230       25.494       24.606      688.028      649.934      605.461        0.398        0.097       77.418       16.330        0.044      334.254        4.108      861.413
10/30/2013  00:31:00       84.285       57.945       10.485       27.277       21.367       24.252      744.037      456.537      588.167        0.618        0.089      102.282        8.607        0.007      334.237        4.080      861.411
10/30/2013  00:32:00       72.045       49.866        0.791       34.332       19.587       21.715     1178.669      383.654      471.525        0.486        0.102       87.619       13.085        0.022      334.239        4.083      861.419
10/30/2013  00:33:00       63.571       49.802        0.375       31.897       26.263       25.086     1017.404      689.729      629.329        0.443        0.117       80.756       14.211        0.031      334.240        4.085      861.422
10/30/2013  00:34:00       50.066       50.353        3.791       34.477       21.775       19.695     1188.651      474.140      387.906        0.355        0.103       71.007       14.477        0.042      334.236        4.080      861.430
10/30/2013  00:35:00       75.834       62.185        0.741       30.667       27.025       27.434      940.464      730.351      752.603        0.602        0.121       98.070       20.575        0.044      334.224        4.057      861.439
10/30/2013  00:36:00       79.842       54.276       11.213       29.399       36.430       31.884      864.290     1327.175     1016.611        0.633        0.160       96.544       26.465        0.075      334.230        4.067      861.441
10/30/2013  00:37:00       71.562       51.926       11.737       37.856       17.650       17.574     1433.084      311.529      308.852        0.500        0.103       88.416       11.263        0.016      334.238        4.082      861.445
10/30/2013  00:38:00       48.928       39.356        2.626       30.480       25.715       20.104      929.021      661.259      404.185        0.297        0.100       62.793       15.768        0.063      334.250        4.100      861.458
10/30/2013  00:39:00       47.042       46.443       -6.331       29.377       22.144       17.190      863.037      490.367      295.498        0.303        0.082       66.105       14.988        0.051      334.252        4.104      861.479
10/30/2013  00:40:00       21.252       36.980        0.365       22.823       31.947       22.864      520.906     1020.627      522.748        0.194        0.103       42.652       18.751        0.193      334.254        4.109      861.506
10/30/2013  00:41:00       13.352       79.907      -15.486       14.341       25.494       10.887      205.656      649.926      118.524        0.389        0.049       81.014       12.077        0.022      334.259        4.114      861.536
10/30/2013  00:42:00       -9.125       76.834       -5.401       17.420       26.924       15.833      303.448      724.906      250.684        0.365        0.064       77.373       17.729        0.053      334.305        4.190      861.567
10/30/2013  00:43:00      -31.448       54.921       -6.877       28.959       31.075       13.893      838.627      965.639      193.006        0.302        0.100       63.287       10.313        0.027      334.347        4.260      861.587
10/30/2013  00:44:00      -82.834       87.170      -25.795       24.448       20.072       13.514      597.702      402.884      182.627        0.815        0.059      120.250       10.136        0.007      334.264        4.123      861.590
10/30/2013  00:45:00      -41.374       60.897       -9.217       31.052       30.533       16.964      964.220      932.294      287.772        0.384        0.109       73.622       14.202        0.037      334.412        4.368      861.591
10/30/2013  00:46:00      -52.515       54.755      -15.871       23.873       30.705       17.104      569.903      942.782      292.556        0.391        0.090       75.868       11.019        0.021      334.392        4.336      861.579
10/30/2013  00:47:00      -12.572      109.767      -11.859       14.957       32.003       11.280      223.711     1024.173      127.236        0.686        0.069      110.485        5.677        0.003      334.422        4.385      861.570
10/30/2013  00:48:00       -5.422      110.767      -10.263       12.922       18.467       13.276      166.967      341.027      176.264        0.654        0.034      110.899        9.636        0.008      334.334        4.239      861.570
10/30/2013  00:49:00      -43.982       54.218      -10.273       24.667       33.549       14.650      608.460     1125.541      214.613        0.346        0.097       69.814       12.657        0.033      334.393        4.337      861.570
10/30/2013  00:50:00      -18.098       73.846       -6.154       17.678       47.530       16.834      312.512     2259.086      283.383        0.434        0.143       76.031       22.319        0.086      334.463        4.452      861.572
10/30/2013  00:51:00        1.320      141.684      -18.156        8.565       18.104        7.843       73.366      327.761       61.512        1.043        0.023      141.691        5.656        0.002      334.272        4.135      861.574
10/30/2013  00:52:00        7.271      130.609      -14.809       15.737       21.234       13.607      247.650      450.862      185.160        0.911        0.044      130.811       10.626        0.007      334.284        4.154      861.573
10/30/2013  00:53:00        6.610      120.168      -16.006       16.788       26.960       19.426      281.852      726.838      377.388        0.806        0.069      120.350       16.414        0.019      334.309        4.197      861.575
10/30/2013  00:54:00        8.475       76.113       -5.291       16.064       26.683       18.976      258.052      711.967      360.088        0.361        0.067       76.583       14.927        0.038      334.321        4.216      861.583
10/30/2013  00:55:00      -40.059       52.778        5.687       54.514       48.114       31.974     2971.769     2314.912     1022.352        0.536        0.315       66.258       42.147        0.405      334.371        4.300      861.596
10/30/2013  00:56:00      -79.504       97.063      -30.412       15.005       17.391       10.243      225.137      302.438      104.917        0.865        0.032      125.468        6.537        0.003      334.291        4.167      861.613
10/30/2013  00:57:00      -79.413       79.182      -24.718       13.635       22.085       12.276      185.901      487.752      150.695        0.701        0.041      112.144       12.459        0.012      334.309        4.198      861.634
10/30/2013  00:58:00      -67.112       83.097      -22.223       19.270       19.593       14.791      371.319      383.867      218.787        0.644        0.049      106.813       11.297        0.011      334.335        4.239      861.638
10/30/2013  00:59:00      -27.057       48.108       -1.219       16.258       26.006       18.006      264.326      676.321      324.199        0.216        0.063       55.195       16.243        0.087      334.455        4.440      861.641
10/30/2013  01:00:00       -0.110       37.002        4.407       16.711       37.635       10.177      279.252     1416.389      103.573        0.159        0.090       37.003       12.790        0.119      334.486        4.491      861.638
10/30/2013  01:01:00       13.103       81.831      -11.468       22.221       34.645       13.851      493.762     1200.273      191.849        0.444        0.094       82.873       14.896        0.032      334.369        4.297      861.634
10/30/2013  01:02:00       16.478       76.847       -9.310       18.567       27.261       15.824      344.722      743.174      250.403        0.380        0.067       78.594       12.212        0.024      334.333        4.238      861.633
10/30/2013  01:03:00        7.340      101.347      -11.354       17.222       19.354       12.888      296.606      374.576      166.099        0.565        0.042      101.612        9.215        0.008      334.314        4.205      861.630
10/30/2013  01:04:00       14.389       71.584       -6.819        9.819       24.565       15.608       96.416      603.445      243.622        0.316        0.047       73.015       16.766        0.053      334.302        4.188      861.623
10/30/2013  01:05:00       15.878       54.235       -7.486       17.578       22.019       11.850      308.993      484.835      140.429        0.209        0.047       56.511       11.715        0.043      334.313        4.204      861.615
10/30/2013  01:06:00       -2.744       17.609        1.234        9.322       13.857        9.004       86.897      192.024       81.066        0.034        0.018       17.821        6.537        0.135      334.336        4.240      861.596
10/30/2013  01:07:00       15.604       -2.744        6.178        8.744        8.714       10.033       76.451       75.940      100.663        0.027        0.013       15.844        4.204        0.070      334.358        4.280      861.577
10/30/2013  01:08:00        5.091       35.484       -0.547       15.450       25.961       14.229      238.693      673.954      202.453        0.120        0.056       35.848       15.210        0.180      334.381        4.316      861.565
10/30/2013  01:09:00       -8.038       76.497       -7.146       17.091       18.437       10.633      292.100      339.935      113.066        0.336        0.037       76.919        5.815        0.006      334.377        4.311      861.558
10/30/2013  01:10:00      -41.181       56.151      -10.497       22.981       30.844       12.281      528.142      951.372      150.833        0.329        0.082       69.634        9.246        0.018      334.406        4.358      861.551
10/30/2013  01:11:00      -32.792       23.867       -1.786       14.562       15.993       13.252      212.042      255.781      175.609        0.115        0.032       40.558        7.894        0.038      334.433        4.405      861.553
10/30/2013  01:12:00      -27.922       23.450        3.228       18.401       22.314       12.437      338.614      497.901      154.676        0.117        0.050       36.463       12.462        0.117      334.432        4.402      861.556
10/30/2013  01:13:00        8.702       53.184       -7.274       17.367       27.612       14.883      301.622      762.445      221.510        0.212        0.064       53.891       17.198        0.102      334.393        4.336      861.564
10/30/2013  01:14:00       14.800       65.520       -7.237       22.015       31.426       16.905      484.643      987.581      285.783        0.316        0.088       67.170       19.153        0.081      334.370        4.299      861.581
10/30/2013  01:15:00       17.289       81.133       -8.848       22.797       20.461       15.235      519.687      418.650      232.103        0.406        0.059       82.955       12.448        0.023      334.360        4.283      861.595
10/30/2013  01:16:00       16.093       39.773       -0.381       21.530       34.263       16.434      463.526     1173.946      270.069        0.187        0.095       42.905       14.583        0.116      334.342        4.252      861.604
10/30/2013  01:17:00        5.512       11.312        5.220       23.102       18.045       11.171      533.697      325.637      124.793        0.058        0.049       12.583       10.171        0.653      334.372        4.302      861.604
10/30/2013  01:18:00       21.959       42.382        0.362       28.185       31.743       22.778      794.397     1007.642      518.824        0.230        0.116       47.733       21.632        0.205      334.358        4.279      861.599
10/30/2013  01:19:00       24.874       56.522      -10.877       14.572       28.038       14.170      212.346      786.151      200.792        0.257        0.060       61.753       16.527        0.072      334.363        4.287      861.597
10/30/2013  01:20:00       29.660       81.022      -12.860       25.120       18.938       15.388      631.027      358.659      236.791        0.442        0.061       86.280       15.587        0.033      334.346        4.258      861.602
10/30/2013  01:21:00       26.833       80.958      -10.799       18.396       24.035       14.443      338.411      577.691      208.597        0.426        0.056       85.288       13.328        0.024      334.337        4.243      861.615
10/30/2013  01:22:00       18.488       99.448      -18.359       17.747       29.026       13.816      314.955      842.512      190.872        0.596        0.067      101.152       15.585        0.024      334.340        4.245      861.619
10/30/2013  01:23:00       16.795       87.621       -9.019       12.524       21.913       18.495      156.851      480.184      342.070        0.451        0.049       89.216       16.902        0.036      334.346        4.257      861.621
10/30/2013  01:24:00        1.677       55.190        0.187       15.588       26.320       15.131      242.992      692.756      228.957        0.211        0.058       55.215       13.293        0.058      334.358        4.277      861.614
10/30/2013  01:25:00       19.720       45.260       -9.276       14.101       15.928       14.705      198.846      253.703      216.237        0.160        0.033       49.369       10.205        0.043      334.345        4.254      861.609
10/30/2013  01:26:00        5.443       39.755       -2.690       15.208       15.009        9.697      231.278      225.260       94.023        0.108        0.028       40.126        6.147        0.023      334.366        4.292      861.601
10/30/2013  01:27:00       12.603       45.471       -0.987       20.566       27.411       11.783      422.967      751.364      138.838        0.177        0.066       47.185       13.230        0.079      334.357        4.276      861.589
10/30/2013  01:28:00        6.949       48.577       -7.660       11.628       14.140        8.888      135.209      199.941       78.990        0.144        0.021       49.071        8.570        0.030      334.362        4.283      861.582
10/30/2013  01:29:00        9.854       10.380        6.061       18.272       20.169        9.965      333.853      406.775       99.294        0.054        0.042       14.312        8.852        0.383      334.405        4.357      861.570
10/30/2013  01:30:00        8.283       16.468        3.953       15.529       18.925       11.682      241.147      358.155      136.474        0.055        0.037       18.434       10.867        0.348      334.369        4.298      861.559
10/30/2013  01:31:00        4.485       52.332       -4.727       15.542       12.635       10.692      241.554      159.642      114.318        0.165        0.026       52.523        7.571        0.021      334.372        4.300      861.553
10/30/2013  01:32:00        1.912       37.186       -3.794        9.284       14.800       10.243       86.193      219.044      104.924        0.091        0.021       37.235        9.281        0.062      334.357        4.275      861.548
10/30/2013  01:33:00        0.112       53.639       -3.602       10.232       16.911        9.251      104.692      285.966       85.583        0.168        0.024       53.639        8.866        0.027      334.358        4.278      861.548
10/30/2013  01:34:00       12.891       35.156       -5.547        9.500       10.188        8.831       90.255      103.796       77.985        0.085        0.014       37.445        5.647        0.023      334.347        4.256      861.556
10/30/2013  01:35:00        3.798       38.452       -2.847       15.414       15.600        9.716      237.586      243.374       94.392        0.104        0.029       38.639        9.049        0.055      334.352        4.269      861.563
10/30/2013  01:36:00        2.051       38.612        0.642       10.360       19.014       11.224      107.337      361.532      125.981        0.105        0.030       38.666       10.349        0.072      334.426        4.392      861.569
10/30/2013  01:37:00        3.452       39.644        0.265       13.164       15.408       10.413      173.285      237.403      108.436        0.105        0.026       39.793        8.548        0.046      334.381        4.316      861.578
10/30/2013  01:38:00        6.630       32.004        2.103       10.738       17.948       12.004      115.306      322.127      144.097        0.083        0.029       32.683       12.184        0.139      334.375        4.309      861.586
10/30/2013  01:39:00        3.604       34.258       -3.868       13.666       11.796       12.624      186.766      139.152      159.364        0.084        0.024       34.447        7.222        0.044      334.373        4.305      861.590
10/30/2013  01:40:00      -32.240       22.037       -1.655       22.382       21.319       14.088      500.962      454.508      198.476        0.134        0.058       39.052       13.589        0.121      334.377        4.312      861.590
10/30/2013  01:41:00       10.799       31.708        0.021        9.031       16.921       11.902       81.558      286.320      141.652        0.082        0.025       33.497       12.203        0.133      334.417        4.378      861.587
10/30/2013  01:42:00        3.975        0.243        8.357        8.416       10.528       10.053       70.829      110.842      101.068        0.018        0.014        3.982        7.128        3.204      334.448        4.428      861.588
10/30/2013  01:43:00       19.628       47.346       -7.112       15.255       27.894       10.343      232.713      778.087      106.987        0.190        0.056       51.254        9.891        0.037      334.394        4.340      861.578
10/30/2013  01:44:00       12.329       49.235       -2.309       11.524       12.611       10.251      132.792      159.046      105.073        0.149        0.020       50.755        7.275        0.021      334.397        4.342      861.570
10/30/2013  01:45:00       11.621       88.660      -13.260       11.049       23.256       12.468      122.082      540.853      155.463        0.449        0.041       89.418       14.386        0.026      334.371        4.303      861.562
10/30/2013  01:46:00        6.098       64.646       -6.565       15.827       26.818       11.507      250.496      719.179      132.412        0.268        0.055       64.933       14.673        0.051      334.386        4.327      861.558
10/30/2013  01:47:00        6.739       91.654      -13.303       14.356       14.734        9.152      206.081      217.103       83.751        0.456        0.025       91.901        4.170        0.002      334.370        4.300      861.548
10/30/2013  01:48:00        1.017       82.684       -3.776       14.162       25.194       12.315      200.562      634.755      151.649        0.392        0.049       82.690        9.443        0.013      334.383        4.322      861.538
10/30/2013  01:49:00        3.084       84.489       -5.995       11.070       10.750       11.796      122.535      115.556      139.151        0.378        0.019       84.545        6.742        0.006      334.374        4.306      861.527
10/30/2013  01:50:00       -1.009       99.582       -8.401        9.149       15.003        8.718       83.695      225.104       76.008        0.519        0.019       99.587        2.587        0.001      334.414        4.371      861.523
10/30/2013  01:51:00       -4.343       34.494        2.064       13.401       33.322       14.505      179.581     1110.356      210.385        0.136        0.075       34.766       18.927        0.296      334.427        4.393      861.526
10/30/2013  01:52:00        0.856       37.336       -3.677       12.319       21.405        8.358      151.762      458.158       69.860        0.104        0.034       37.345        9.105        0.059      334.409        4.361      861.530
10/30/2013  01:53:00       -6.810        6.927        2.194       15.802       16.814        6.828      249.694      282.718       46.616        0.034        0.029        9.714        7.710        0.630      334.416        4.378      861.537
10/30/2013  01:54:00      -50.227      -19.083       -2.379       17.385       17.462       11.662      302.229      304.904      136.011        0.182        0.037       53.730        5.508        0.011      334.502        4.518      861.547
10/30/2013  01:55:00      -33.713      -31.755        0.410       22.303       12.795       14.267      497.420      163.711      203.555        0.150        0.043       46.314       12.702        0.075      334.510        4.530      861.553
10/30/2013  01:56:00        0.202      -25.743        0.094       18.404       26.019       16.106      338.701      677.002      259.412        0.097        0.064       25.744        7.598        0.087      334.545        4.588      861.559
10/30/2013  01:57:00      -74.361      -50.126        0.604       32.223       23.150       18.455     1038.330      535.924      340.597        0.498        0.096       89.678       15.507        0.030      334.479        4.479      861.555
10/30/2013  01:58:00      -79.082      -40.451        8.437       26.582       27.376       17.482      706.603      749.450      305.613        0.486        0.088       88.827       14.571        0.027      334.463        4.454      861.553
10/30/2013  01:59:00      -93.446      -40.810       -7.809       20.320       16.923       11.844      412.919      286.376      140.281        0.565        0.042      101.969       10.640        0.011      334.422        4.385      861.554
10/30/2013  02:00:00      -69.427      -36.202       -2.482       17.912       12.240       11.169      320.834      149.830      124.750        0.337        0.030       78.299       10.278        0.017      334.392        4.335      861.550
10/30/2013  02:01:00      -73.762      -25.535       -5.941       23.086       20.651       10.903      532.970      426.447      118.867        0.360        0.054       78.057        5.650        0.005      334.371        4.300      861.549
10/30/2013  02:02:00      -46.321      -18.034       -5.657       16.111       15.496       10.054      259.577      240.123      101.088        0.155        0.030       49.708        6.148        0.015      334.435        4.408      861.549
10/30/2013  02:03:00      -53.634      -13.822       -2.106       20.854       11.778        7.835      434.892      138.730       61.386        0.185        0.032       55.386        8.444        0.023      334.411        4.364      861.548
10/30/2013  02:04:00      -39.350       -2.943       -1.675       13.983        5.995        6.038      195.517       35.934       36.455        0.091        0.013       39.460        5.209        0.017      334.444        4.421      861.546
10/30/2013  02:05:00      -32.233       -4.976       -3.827       15.561       20.220       11.925      242.148      408.858      142.202        0.094        0.040       32.614       12.007        0.136      334.454        4.438      861.548
10/30/2013  02:06:00      -42.885       24.992       -9.806        8.038       14.315        6.962       64.602      204.914       48.468        0.144        0.016       49.636        7.346        0.022      334.378        4.316      861.541
10/30/2013  02:07:00       -1.143        9.314        3.753       17.009       13.275        9.731      289.291      176.219       94.694        0.033        0.028        9.384       10.381        1.224      334.413        4.371      861.534
10/30/2013  02:08:00       15.384       10.546        9.715       18.421       17.448       13.965      339.326      304.447      195.030        0.064        0.042       18.651        9.617        0.266      334.416        4.374      861.526
10/30/2013  02:09:00       34.484       29.810        7.615       20.118       15.536       13.191      404.714      241.371      174.002        0.148        0.041       45.583        8.691        0.036      334.398        4.346      861.523
10/30/2013  02:10:00       58.174       38.918       10.154       19.813       17.297       17.271      392.538      299.177      298.283        0.300        0.049       69.992       11.979        0.029      334.376        4.311      861.519
10/30/2013  02:11:00       55.082       34.525        9.314       17.086       12.185       15.112      291.920      148.473      228.380        0.249        0.033       65.008        8.994        0.019      334.392        4.335      861.531
10/30/2013  02:12:00       62.183       38.532       -1.646       10.486       14.999       11.093      109.953      224.963      123.065        0.291        0.023       73.154        8.144        0.012      334.381        4.317      861.533
10/30/2013  02:13:00       70.369       40.587       -2.538       13.285       14.496       10.010      176.498      210.141      100.194        0.355        0.024       81.235        4.951        0.004      334.368        4.295      861.538
10/30/2013  02:14:00       48.871       45.442       -2.306       19.196       18.532       14.089      368.479      343.443      198.506        0.268        0.046       66.734        8.282        0.015      334.367        4.295      861.533
10/30/2013  02:15:00       42.027       52.139       -3.038       15.442        9.700        8.923      238.461       94.082       79.619        0.245        0.021       66.968        7.871        0.014      334.385        4.323      861.519
10/30/2013  02:16:00       55.929       42.699        3.098       10.667       11.448        7.730      113.775      131.065       59.751        0.263        0.015       70.365        6.986        0.010      334.397        4.343      861.518
10/30/2013  02:17:00       57.894       39.456        3.394       15.739       14.978       13.418      247.731      224.328      180.036        0.279        0.033       70.060        4.282        0.004      334.383        4.321      861.506
10/30/2013  02:18:00       72.491       43.039        1.049       11.638       10.336        9.240      135.453      106.838       85.379        0.372        0.016       84.305        5.676        0.005      334.349        4.262      861.496
10/30/2013  02:19:00       51.010       32.663       18.501       22.837       18.903       20.218      521.507      357.309      408.753        0.265        0.064       60.571       15.706        0.067      334.407        4.361      861.492
10/30/2013  02:20:00       62.447       50.573       23.497       20.264       16.928       19.143      410.631      286.560      366.463        0.404        0.053       80.357       12.629        0.025      334.375        4.307      861.487
10/30/2013  02:21:00       45.952       30.706       18.556       27.250       17.234       24.665      742.589      297.004      608.369        0.252        0.082       55.267       19.392        0.123      334.389        4.330      861.485
10/30/2013  02:22:00       55.198       30.955       16.993       19.709       15.235       20.539      388.450      232.094      421.871        0.267        0.052       63.285        7.388        0.014      334.375        4.306      861.482
10/30/2013  02:23:00       62.899       52.925        7.035       15.383       14.798       15.582      236.626      218.970      242.811        0.375        0.035       82.203       11.631        0.020      334.318        4.214      861.477
10/30/2013  02:24:00       60.549       48.757       16.061       12.071       10.589       15.485      145.709      112.136      239.798        0.340        0.025       77.740        7.766        0.010      334.337        4.244      861.466
10/30/2013  02:25:00       46.744       21.991       27.972       27.163       15.968       19.106      737.828      254.963      365.036        0.240        0.068       51.659       16.729        0.105      334.334        4.239      861.456
10/30/2013  02:26:00       51.620       23.212       14.370       27.633       19.250       23.565      763.586      370.572      555.326        0.255        0.084       56.599       16.780        0.088      334.368        4.296      861.448
10/30/2013  02:27:00       50.580       26.110       17.311       22.307       17.699       22.422      497.621      313.260      502.742        0.243        0.066       56.921       15.855        0.078      334.334        4.240      861.450
10/30/2013  02:28:00       51.694       28.293        9.954       15.784       11.644       15.339      249.124      135.576      235.279        0.210        0.031       58.930        8.577        0.021      334.320        4.217      861.462
10/30/2013  02:29:00       53.435       28.905        3.469       11.014        8.971        7.357      121.299       80.480       54.130        0.198        0.013       60.752        4.469        0.005      334.307        4.192      861.467
10/30/2013  02:30:00       43.700       36.010        6.782        7.112        5.780        7.082       50.575       33.404       50.150        0.169        0.007       56.625        5.323        0.009      334.305        4.193      861.472
10/30/2013  02:31:00       35.303       26.802        3.319        9.081        6.089        8.027       82.468       37.082       64.437        0.108        0.009       44.325        5.271        0.014      334.318        4.212      861.477
10/30/2013  02:32:00       20.279       18.661       -0.069        6.683        7.381        7.125       44.664       54.486       50.769        0.045        0.007       27.558        2.828        0.011      334.320        4.215      861.479
10/30/2013  02:33:00       27.127       25.090        3.634        8.652        6.320        7.468       74.853       39.948       55.772        0.077        0.009       36.951        5.402        0.021      334.331        4.235      861.480
10/30/2013  02:34:00       26.791       25.954        3.401        7.795        5.250        8.487       60.761       27.563       72.027        0.078        0.008       37.301        3.945        0.011      334.338        4.246      861.472
10/30/2013  02:35:00       31.799       26.880        5.621        4.445        7.188        8.695       19.756       51.669       75.607        0.096        0.007       41.638        6.030        0.021      334.333        4.235      861.462
10/30/2013  02:36:00       37.566       25.852        8.988       10.343        8.389        8.761      106.972       70.377       76.764        0.121        0.013       45.602        6.616        0.021      334.355        4.275      861.453
10/30/2013  02:37:00       42.593       32.289       12.708       11.193        7.054        9.347      125.278       49.754       87.362        0.164        0.013       53.448        6.101        0.013      334.318        4.211      861.451
10/30/2013  02:38:00       42.305       24.966       11.473        9.141        9.168       10.433       83.550       84.056      108.846        0.141        0.014       49.123        5.913        0.014      334.302        4.186      861.449
10/30/2013  02:39:00       45.271       21.904        9.954       12.030       12.626        8.627      144.722      159.425       74.422        0.150        0.019       50.291        4.724        0.009      334.318        4.211      861.449
10/30/2013  02:40:00       31.921       25.209       20.190       12.747       10.160       10.006      162.484      103.222      100.122        0.121        0.018       40.675        5.193        0.016      334.327        4.229      861.450
10/30/2013  02:41:00       29.322       25.536       30.578       25.461       22.675        8.177      648.252      514.171       66.865        0.184        0.061       38.882        9.683        0.062      334.331        4.234      861.447
10/30/2013  02:42:00        3.952       -5.783       20.405       16.067       19.946       14.249      258.151      397.849      203.045        0.066        0.043        7.004       12.174        3.021      334.395        4.341      861.430
10/30/2013  02:43:00        4.088        9.708       23.525       11.750        9.499        6.354      138.054       90.229       40.376        0.047        0.013       10.534        4.876        0.214      334.351        4.267      861.423
10/30/2013  02:44:00      -15.711      -15.320        7.900       11.055       10.860        9.433      122.208      117.940       88.979        0.044        0.016       21.944        8.247        0.141      334.341        4.253      861.410
10/30/2013  02:45:00        1.599       -6.816       13.875       14.302       13.223        8.729      204.545      174.836       76.191        0.035        0.023        7.002        8.707        1.547      334.356        4.276      861.413
10/30/2013  02:46:00      -40.841       18.148       -1.504       17.657       14.303        9.542      311.758      204.575       91.046        0.130        0.030       44.691        8.180        0.034      334.278        4.146      861.420
10/30/2013  02:47:00      -61.823       19.236       -4.901       11.143        8.108        8.142      124.177       65.737       66.286        0.224        0.013       64.747        4.167        0.004      334.320        4.217      861.436
10/30/2013  02:48:00      -79.343       15.111       -1.746       18.889       16.797       10.574      356.776      282.133      111.799        0.364        0.038       80.769       11.588        0.021      334.296        4.176      861.441
10/30/2013  02:49:00      -51.447        7.852       -1.787       16.514       14.507       12.314      272.699      210.457      151.646        0.167        0.032       52.043        9.358        0.032      334.234        4.074      861.431
10/30/2013  02:50:00      -52.783        5.231        1.343       13.568       14.826        9.096      184.090      219.813       82.735        0.165        0.024       53.042        7.260        0.019      334.243        4.087      861.401
10/30/2013  02:51:00       -0.857       11.626       12.027       21.201       10.795       12.225      449.488      116.539      149.442        0.050        0.036       11.658       14.478        1.542      334.214        4.041      861.369
10/30/2013  02:52:00       12.604       35.161        4.429       17.569       10.632       15.416      308.676      113.043      237.665        0.104        0.033       37.351       13.760        0.136      334.222        4.054      861.346
10/30/2013  02:53:00       20.873       17.252       -6.679       13.725       14.286        6.092      188.382      204.078       37.116        0.060        0.021       27.080        7.528        0.077      334.248        4.096      861.342
10/30/2013  02:54:00      -28.674       15.266       -3.448       24.720       10.490        9.153      611.068      110.040       83.780        0.094        0.040       32.485       10.165        0.098      334.234        4.072      861.353
10/30/2013  02:55:00      -61.412       25.265       -4.385       22.884       12.951       12.396      523.676      167.721      153.654        0.264        0.042       66.406        9.596        0.021      334.195        4.008      861.364
10/30/2013  02:56:00      -62.638       27.032      -11.270       11.447       10.998        8.435      131.026      120.951       71.144        0.255        0.016       68.222        3.960        0.003      334.208        4.030      861.359
10/30/2013  02:57:00      -65.554        8.107      -10.001       14.923       12.376        9.073      222.700      153.162       82.319        0.246        0.023       66.053        7.099        0.012      334.196        4.008      861.338
10/30/2013  02:58:00      -52.237       -1.656       -7.285       12.846       12.407        7.724      165.013      153.939       59.654        0.158        0.019       52.263        3.705        0.005      334.212        4.036      861.306
10/30/2013  02:59:00      -55.214        1.247       -4.786       13.488       11.878        7.189      181.916      141.076       51.687        0.172        0.019       55.228        4.437        0.006      334.173        3.969      861.278
10/30/2013  03:00:00      -75.911        2.124      -11.643       11.721        5.286        5.956      137.378       27.937       35.480        0.305        0.010       75.941        3.326        0.002      334.211        4.030      861.258
10/30/2013  03:01:00      -52.444       -4.377       -3.260       11.601        9.879        9.065      134.587       97.600       82.179        0.155        0.016       52.627        2.550        0.002      334.191        4.000      861.249
10/30/2013  03:02:00      -56.363      -13.549       -5.218       16.919       16.451        7.324      286.244      270.640       53.642        0.200        0.031       57.968        3.072        0.003      334.210        4.032      861.248
10/30/2013  03:03:00      -87.758       -8.168       -2.983       21.626       16.118       14.170      467.662      259.805      200.803        0.435        0.046       88.138       13.458        0.023      334.169        3.964      861.251
10/30/2013  03:04:00      -92.745      -11.266       -4.663       26.017       19.321       13.438      676.872      373.283      180.593        0.499        0.062       93.427       13.613        0.021      334.105        3.858      861.260
10/30/2013  03:05:00      -87.554      -11.144       -1.928       26.177       17.049       14.640      685.220      290.661      214.332        0.449        0.060       88.260       13.170        0.022      334.063        3.788      861.272
10/30/2013  03:06:00      -76.465      -17.989       -2.059       24.575       20.417       15.768      603.916      416.854      248.629        0.372        0.063       78.552       14.271        0.033      333.963        3.624      861.271
10/30/2013  03:07:00      -51.240       -8.008       -8.889       23.987       21.969       10.369      575.384      482.634      107.513        0.197        0.058       51.862        8.942        0.030      333.941        3.587      861.267
10/30/2013  03:08:00      -66.286      -10.143       -3.818       26.392       17.721       19.583      696.540      314.037      383.486        0.295        0.070       67.057       19.104        0.081      333.938        3.582      861.268
10/30/2013  03:09:00      -55.892      -16.605       -2.017       21.024       18.080       11.271      441.991      326.901      127.042        0.215        0.045       58.306        8.630        0.022      334.018        3.714      861.272
10/30/2013  03:10:00      -58.394      -16.667       -3.791       22.432       16.837       10.668      503.174      283.474      113.812        0.230        0.045       60.726       13.624        0.050      334.095        3.841      861.280
10/30/2013  03:11:00      -20.336      -20.833        1.826       11.413       17.055        6.567      130.261      290.888       43.122        0.066        0.023       29.113        5.710        0.038      334.123        3.889      861.292
10/30/2013  03:12:00      -40.624      -15.040        1.325       15.718       11.710        6.587      247.046      137.114       43.388        0.115        0.021       43.319        6.505        0.023      334.069        3.798      861.300
10/30/2013  03:13:00      -62.835      -18.281       -9.218        8.278        8.035        7.766       68.533       64.557       60.311        0.228        0.010       65.440        1.295        0.000      334.021        3.719      861.312
10/30/2013  03:14:00      -60.953      -12.197       -6.352        9.556        7.804        6.761       91.321       60.910       45.706        0.205        0.010       62.162        4.869        0.006      333.901        3.521      861.322
10/30/2013  03:15:00      -69.004      -10.972      -10.704       12.092       10.696        7.569      146.221      114.412       57.288        0.266        0.016       69.870        3.304        0.002      333.806        3.361      861.330
10/30/2013  03:16:00      -38.993       -7.003       -1.283       15.617       15.429       11.067      243.882      238.063      122.470        0.109        0.030       39.617       10.578        0.071      333.692        3.174      861.341
10/30/2013  03:17:00      -62.942       -8.173       -0.009       29.832       19.825       14.928      889.927      393.038      222.841        0.277        0.075       63.471       14.098        0.049      333.631        3.072      861.349
10/30/2013  03:18:00      -58.060      -12.149       -2.662       16.343       18.368       10.937      267.103      337.380      119.614        0.212        0.036       59.318        7.283        0.015      333.602        3.024      861.351
10/30/2013  03:19:00      -46.712        3.963        0.187       34.231       27.733       17.616     1171.780      769.143      310.306        0.222        0.113       46.880       16.714        0.127      333.584        2.995      861.367
10/30/2013  03:20:00      -87.083       10.598       -8.353       35.042       26.536       15.353     1227.932      704.143      235.721        0.497        0.108       87.725       11.289        0.017      333.582        2.991      861.386
10/30/2013  03:21:00     -110.907        7.338       -9.173       25.991       23.703       16.056      675.524      561.836      257.803        0.697        0.075      111.150        8.005        0.005      333.587        2.999      861.400
10/30/2013  03:22:00     -101.480        4.363       -8.834       32.174       22.550       16.176     1035.186      508.502      261.667        0.610        0.090      101.573       17.262        0.029      333.554        2.944      861.405
10/30/2013  03:23:00     -115.617      -20.232       -9.574       28.120       28.694       16.304      790.755      823.362      265.824        0.787        0.094      117.374       10.055        0.007      333.527        2.900      861.409
10/30/2013  03:24:00      -80.858      -26.334       -7.577       17.040       21.035       13.361      290.362      442.485      178.504        0.410        0.046       85.038        7.949        0.009      333.540        2.923      861.406
10/30/2013  03:25:00      -82.710      -32.291       -6.406       17.146       15.305       12.652      293.979      234.238      160.082        0.431        0.034       88.790        8.807        0.010      333.595        3.012      861.407
10/30/2013  03:26:00      -82.059       -8.660       -6.767       34.510       24.000       18.776     1190.943      576.003      352.537        0.449        0.106       82.515       19.369        0.055      333.492        2.842      861.414
10/30/2013  03:27:00     -118.342       17.628      -13.472       40.289       27.749       19.662     1623.208      770.004      386.578        0.864        0.139      119.648       19.316        0.026      333.525        2.895      861.438
10/30/2013  03:28:00     -128.753       10.219      -15.663       25.513       20.573       12.924      650.895      423.244      167.041        0.908        0.062      129.158        5.186        0.002      333.519        2.887      861.464
10/30/2013  03:29:00     -133.855       10.600      -11.989       21.351       18.278       13.238      455.882      334.080      175.233        0.957        0.048      134.274        9.634        0.005      333.457        2.784      861.489
10/30/2013  03:30:00      -99.214        1.687       -5.342       27.478       23.943       12.235      755.044      573.257      149.703        0.568        0.074       99.228       10.427        0.011      333.389        2.671      861.495
10/30/2013  03:31:00     -118.700       17.292       -8.785       15.748       15.126       10.827      248.007      228.799      117.232        0.753        0.030      119.953        8.256        0.005      333.376        2.649      861.494
10/30/2013  03:32:00     -109.106        3.959       -4.301       26.030       18.450       12.645      677.581      340.412      159.903        0.656        0.059      109.178       12.935        0.014      333.366        2.633      861.485
10/30/2013  03:33:00     -102.551       15.557      -10.312       18.144       17.156       13.080      329.220      294.331      171.095        0.583        0.040      103.725        6.577        0.004      333.373        2.644      861.481
10/30/2013  03:34:00      -99.783       12.029       -3.844       29.959       29.449       14.003      897.565      867.221      196.091        0.604        0.098      100.506       12.694        0.016      333.360        2.625      861.474
10/30/2013  03:35:00     -129.974       20.117      -10.387       15.975       15.461       10.599      255.208      239.034      112.349        0.901        0.030      131.522       10.629        0.007      333.377        2.652      861.474
10/30/2013  03:36:00     -115.056      -16.586      -10.064       31.699       26.808       22.808     1004.828      718.666      520.190        0.793        0.112      116.246       23.306        0.040      333.364        2.632      861.481
10/30/2013  03:37:00      -96.909      -18.513       -4.194       23.165       21.731       14.723      536.636      472.249      216.781        0.549        0.061       98.662       14.219        0.021      333.309        2.539      861.482
10/30/2013  03:38:00      -96.797      -33.558       -9.243       21.987       20.510       15.112      483.447      420.659      228.377        0.586        0.057      102.449       10.431        0.010      333.327        2.570      861.484
10/30/2013  03:39:00     -120.675      -35.065      -12.445       21.038       23.421       13.269      442.588      548.565      176.071        0.856        0.058      125.666        7.532        0.004      333.251        2.442      861.500
10/30/2013  03:40:00     -113.117      -42.735      -15.456       19.665       21.138       10.763      386.710      446.820      115.839        0.790        0.047      120.920        9.702        0.006      333.291        2.510      861.502
10/30/2013  03:41:00     -106.809      -30.118      -14.141       13.223       12.799        9.619      174.853      163.809       92.522        0.647        0.022      110.974        3.733        0.001      333.297        2.518      861.500
10/30/2013  03:42:00      -86.145      -37.764       -1.860       26.651       16.848       12.120      710.293      283.847      146.887        0.500        0.057       94.058       14.521        0.024      333.311        2.542      861.514
10/30/2013  03:43:00      -73.426      -40.953        2.049       29.649       17.344       16.320      879.063      300.828      266.332        0.426        0.072       84.075       17.339        0.043      333.404        2.696      861.513
10/30/2013  03:44:00      -63.082      -30.406        6.332       26.142       16.946       16.142      683.388      287.171      260.549        0.309        0.062       70.028       12.983        0.034      333.338        2.587      861.500
10/30/2013  03:45:00      -41.239      -17.095        6.494       33.616       18.849       15.743     1130.047      355.277      247.843        0.188        0.087       44.642       16.743        0.141      333.312        2.544      861.496
10/30/2013  03:46:00      -50.941      -17.988       -0.549       19.091       17.415       12.754      364.473      303.294      162.673        0.187        0.042       54.024       11.687        0.047      333.331        2.577      861.490
10/30/2013  03:47:00      -54.141      -26.155        4.325       17.384       15.007       11.401      302.216      225.198      129.972        0.215        0.033       60.128       11.646        0.038      333.287        2.502      861.478
10/30/2013  03:48:00      -65.513      -38.960        3.961       24.678       21.370       15.775      608.980      456.687      248.855        0.357        0.066       76.222       14.421        0.036      333.533        2.909      861.473
10/30/2013  03:49:00      -79.153      -38.619        4.767       27.127       21.102       17.827      735.893      445.295      317.803        0.464        0.075       88.072       16.174        0.034      333.631        3.073      861.486
10/30/2013  03:50:00      -49.091      -39.516        6.733       27.476       20.871       15.276      754.921      435.591      233.354        0.272        0.071       63.019       16.464        0.068      333.589        3.002      861.493
10/30/2013  03:51:00      -29.349      -43.858        4.545       33.251       28.999       18.437     1105.604      840.924      339.932        0.255        0.114       52.772       16.730        0.101      333.546        2.932      861.500
10/30/2013  03:52:00      -41.015      -35.457       -0.820       26.781       20.041       15.775      717.223      401.645      248.854        0.215        0.068       54.216       16.995        0.098      333.548        2.932      861.508
10/30/2013  03:53:00      -35.740      -24.175        3.761       15.476       16.510       14.282      239.493      272.565      203.976        0.130        0.036       43.148        4.926        0.013      333.405        2.698      861.522
10/30/2013  03:54:00      -39.815      -35.005        5.179       27.117       23.430       14.771      735.344      548.956      218.173        0.217        0.075       53.015       12.832        0.059      333.368        2.637      861.526
10/30/2013  03:55:00      -52.865      -33.244        1.945       33.975       29.827       19.430     1154.329      889.677      377.516        0.316        0.121       62.449       14.106        0.051      333.345        2.598      861.536
10/30/2013  03:56:00      -55.975      -32.355        2.302       34.703       20.339       16.763     1204.332      413.692      281.007        0.304        0.095       64.654       12.613        0.038      333.311        2.544      861.545
10/30/2013  03:57:00      -76.921      -15.122       -5.432       31.290       22.370       18.083      979.037      500.415      326.993        0.399        0.090       78.393       17.743        0.051      333.205        2.367      861.567
10/30/2013  03:58:00      -91.563      -27.112       -1.834       22.120       17.454       16.428      489.312      304.659      269.875        0.509        0.053       95.493       14.752        0.024      333.141        2.261      861.572
10/30/2013  03:59:00      -80.501      -18.169        4.268       35.049       18.369       18.256     1228.438      337.428      333.296        0.436        0.095       82.526       20.549        0.062      333.112        2.213      861.565
10/30/2013  04:00:00      -70.981      -28.301        0.187       31.130       28.693       11.721      969.055      823.270      137.375        0.388        0.096       76.415       12.709        0.028      333.119        2.224      861.552
10/30/2013  04:01:00      -76.238      -26.335       -3.788       24.682       24.719       13.714      609.191      611.019      188.062        0.396        0.070       80.659       13.637        0.029      333.159        2.290      861.543
10/30/2013  04:02:00     -109.297      -36.447       -8.824       16.037       22.509        8.992      257.191      506.665       80.864        0.710        0.042      115.214        6.364        0.003      333.134        2.250      861.545
10/30/2013  04:03:00      -84.472      -47.334       -1.449       31.764       23.791       17.397     1008.969      566.021      302.644        0.563        0.094       96.830       15.257        0.025      333.136        2.252      861.557
10/30/2013  04:04:00      -62.971      -22.172        4.913       31.568       25.441       19.432      996.538      647.246      377.612        0.325        0.101       66.760       15.689        0.055      333.103        2.199      861.552
10/30/2013  04:05:00      -62.868      -14.019        2.874       37.555       18.996       19.743     1410.344      360.833      389.798        0.316        0.108       64.412       21.190        0.108      333.039        2.093      861.540
10/30/2013  04:06:00      -80.060      -21.823       -0.956       28.983       28.987       17.403      840.039      840.248      302.882        0.443        0.099       82.980       15.088        0.033      333.092        2.181      861.523
10/30/2013  04:07:00      -97.085      -42.428       -6.276       29.357       21.898       19.589      861.842      479.532      383.726        0.649        0.086      105.951       12.574        0.014      333.121        2.225      861.506
10/30/2013  04:08:00      -96.088      -25.129       -1.789       37.610       35.378       19.367     1414.540     1251.633      375.064        0.645        0.152       99.320       19.412        0.038      333.083        2.165      861.497
10/30/2013  04:09:00     -148.327      -46.254       -5.398       24.168       27.378       14.932      584.096      749.544      222.966        1.286        0.078      155.371       11.661        0.006      333.076        2.155      861.493
10/30/2013  04:10:00     -152.134      -39.869       -1.762       25.462       22.419       16.367      648.299      502.625      267.879        1.308        0.071      157.272       13.207        0.007      333.000        2.029      861.495
10/30/2013  04:11:00     -122.436      -50.613        0.981       45.419       32.116       26.076     2062.861     1031.417      679.956        1.066        0.189      132.485       24.772        0.035      332.989        2.011      861.494
10/30/2013  04:12:00     -127.829      -48.471       -2.213       34.202       35.820       21.917     1169.743     1283.047      480.333        1.081        0.147      136.710       18.346        0.018      332.969        1.976      861.476
10/30/2013  04:13:00     -117.074      -48.822      -10.619       32.743       33.959       15.901     1072.093     1153.217      252.847        0.934        0.124      126.846       13.995        0.012      332.979        1.994      861.459
10/30/2013  04:14:00     -104.727      -14.932      -16.179       30.280       28.735       19.128      916.860      825.706      365.880        0.678        0.105      105.786        9.654        0.008      332.928        1.909      861.453
10/30/2013  04:15:00     -128.086        8.036      -19.066       30.946       25.333       15.968      957.685      641.773      254.987        0.934        0.093      128.338       11.635        0.008      332.853        1.786      861.468
10/30/2013  04:16:00     -117.900        0.309      -11.207       31.433       28.020       21.173      988.021      785.141      448.293        0.812        0.111      117.901       15.078        0.016      332.844        1.771      861.468
10/30/2013  04:17:00     -115.615        2.982      -12.658       38.020       28.651       18.284     1445.499      820.873      334.291        0.807        0.130      115.653       14.805        0.016      332.820        1.731      861.455
10/30/2013  04:18:00      -96.928        1.188       -5.152       28.557       28.176       22.279      815.507      793.865      496.352        0.576        0.105       96.935       12.067        0.015      332.838        1.761      861.429
10/30/2013  04:19:00      -85.629      -48.016        0.226       28.303       39.759       19.374      801.060     1580.818      375.337        0.620        0.138       98.173       12.242        0.016      332.822        1.735      861.420
10/30/2013  04:20:00      -91.601      -49.263       -6.560       38.002       27.968       19.975     1444.189      782.225      399.009        0.674        0.131      104.008       14.840        0.020      332.814        1.722      861.412
10/30/2013  04:21:00      -70.213      -49.477       -0.940       47.821       27.508       22.228     2286.850      756.687      494.062        0.546        0.177       85.895       27.824        0.105      332.837        1.761      861.425
10/30/2013  04:22:00      -38.599      -32.398       -4.380       36.663       17.178       13.554     1344.188      295.084      183.707        0.219        0.091       50.394       14.486        0.083      332.862        1.802      861.429
10/30/2013  04:23:00      -54.370      -25.673        3.725       37.600       20.974       21.803     1413.737      439.927      475.360        0.298        0.116       60.126       20.571        0.117      332.825        1.742      861.429
10/30/2013  04:24:00      -39.636      -42.528        6.253       35.405       26.624       19.562     1253.514      708.827      382.677        0.288        0.117       58.134       16.299        0.079      332.917        1.892      861.429
10/30/2013  04:25:00      -96.035      -29.082       -7.133       31.136       21.583       14.871      969.480      465.811      221.157        0.589        0.083      100.342       15.895        0.025      332.892        1.850      861.437
10/30/2013  04:26:00      -82.845      -22.850       -1.861       27.699       20.522       17.706      767.235      421.147      313.505        0.445        0.075       85.938       17.942        0.044      332.938        1.926      861.453
10/30/2013  04:27:00      -96.540      -38.293       -9.377       18.773       29.368       12.684      352.431      862.481      160.882        0.612        0.069      103.857        8.517        0.007      332.966        1.973      861.442
10/30/2013  04:28:00      -75.209      -23.604        1.209       30.260       15.565       15.370      915.670      242.267      236.229        0.380        0.070       78.826       16.439        0.043      332.927        1.908      861.427
10/30/2013  04:29:00      -77.583      -40.323        2.765       22.382       23.592       18.420      500.970      556.598      339.309        0.452        0.070       87.436       15.775        0.033      332.860        1.799      861.406
10/30/2013  04:30:00      -88.997      -24.154      -13.205       17.439       16.196       12.258      304.128      262.315      150.251        0.470        0.036       92.217        3.727        0.002      332.911        1.882      861.398
10/30/2013  04:31:00      -90.703      -22.465       -8.365       11.658       12.812       10.369      135.915      164.142      107.507        0.460        0.020       93.443        5.377        0.003      332.882        1.835      861.399
10/30/2013  04:32:00     -103.608      -43.543       -6.116       17.288       19.275       11.808      298.891      371.537      139.433        0.674        0.040      112.385        9.859        0.008      332.824        1.737      861.394
10/30/2013  04:33:00     -100.895      -58.751      -11.194       19.809       18.483       13.644      392.381      341.610      186.165        0.734        0.046      116.754        8.968        0.006      332.786        1.675      861.403
10/30/2013  04:34:00     -118.377      -60.830       -7.440       23.554       17.298       15.784      554.806      299.209      249.124        0.944        0.055      133.092        9.461        0.005      332.750        1.617      861.419
10/30/2013  04:35:00     -131.023      -60.941       -4.478       30.267       30.903       19.854      916.115      954.975      394.163        1.158        0.113      144.502        7.168        0.002      332.788        1.678      861.451
10/30/2013  04:36:00     -120.934      -46.315       -2.774       30.904       22.463       18.079      955.080      504.584      326.845        0.928        0.089      129.500       17.489        0.018      332.767        1.645      861.474
10/30/2013  04:37:00     -106.085      -47.979       -7.290       24.781       33.222       17.723      614.082     1103.702      314.092        0.782        0.102      116.430       10.862        0.009      332.839        1.763      861.478
10/30/2013  04:38:00      -93.443      -35.826       -6.652       34.134       22.289       18.018     1165.134      496.787      324.646        0.602        0.099      100.075       15.712        0.025      332.758        1.631      861.471
10/30/2013  04:39:00      -95.020      -50.377       -6.460       29.563       23.635       12.580      873.949      558.627      158.252        0.660        0.080      107.548       11.121        0.011      332.772        1.653      861.464
10/30/2013  04:40:00      -95.831      -47.557       -1.232       24.117       16.731       15.687      581.653      279.934      246.096        0.628        0.055      106.982       13.900        0.017      332.739        1.599      861.453
10/30/2013  04:41:00     -116.766      -55.529        3.901       31.881       23.320       19.717     1016.420      543.827      388.749        0.934        0.097      129.298       17.450        0.018      332.716        1.560      861.436
10/30/2013  04:42:00      -70.237      -53.923        3.280       37.574       37.425       19.360     1411.784     1400.635      374.806        0.552        0.159       88.549       17.931        0.041      332.769        1.649      861.429
10/30/2013  04:43:00     -112.507      -64.277       -4.000       35.322       24.111       19.839     1247.611      581.320      393.597        0.951        0.111      129.574       17.283        0.018      332.768        1.646      861.428
10/30/2013  04:44:00     -125.979      -32.427       -6.230       26.727       31.392       19.485      714.336      985.460      379.672        0.952        0.104      130.086        8.298        0.004      332.797        1.693      861.434
10/30/2013  04:45:00     -114.508      -68.143       -2.661       33.234       33.329       21.974     1104.499     1110.808      482.839        1.023        0.135      133.250       17.268        0.017      332.790        1.681      861.444
10/30/2013  04:46:00     -102.803      -51.355       -1.506       28.690       23.178       21.681      823.102      537.222      470.087        0.752        0.092      114.917       20.661        0.032      332.724        1.574      861.444
10/30/2013  04:47:00     -111.405      -53.621        3.540       30.928       22.047       17.701      956.567      486.061      313.322        0.853        0.088      123.637       15.174        0.015      332.737        1.595      861.439
10/30/2013  04:48:00     -115.901      -47.156        4.099       46.906       32.178       20.645     2200.159     1035.428      426.202        0.967        0.183      125.127       24.517        0.038      332.763        1.638      861.440
10/30/2013  04:49:00     -127.642      -49.753       -0.558       34.725       29.866       23.172     1205.818      891.959      536.962        1.070        0.132      136.996       18.530        0.018      332.786        1.675      861.450
10/30/2013  04:50:00     -129.495      -37.048       -2.653       28.221       26.289       16.806      796.406      691.135      282.436        0.996        0.088      134.690       15.124        0.013      332.786        1.675      861.469
10/30/2013  04:51:00     -140.057      -30.934       -5.587       33.307       26.587       20.767     1109.364      706.854      431.258        1.143        0.112      143.432       17.871        0.016      332.745        1.608      861.475
10/30/2013  04:52:00     -139.015      -36.442       -5.262       47.402       24.722       14.844     2246.949      611.165      220.350        1.188        0.154      143.712       19.197        0.018      332.739        1.598      861.481
10/30/2013  04:53:00     -139.503      -60.797       -8.071       38.575       38.484       19.957     1488.012     1481.019      398.270        1.329        0.168      152.176       15.963        0.011      332.714        1.556      861.480
10/30/2013  04:54:00     -134.084      -43.004       -1.186       45.866       35.746       18.144     2103.663     1277.802      329.187        1.177        0.186      140.811       16.733        0.014      332.646        1.443      861.481
10/30/2013  04:55:00     -101.753      -33.394       -6.130       44.947       27.574       17.703     2020.193      760.327      313.404        0.730        0.155      107.092        7.910        0.005      332.651        1.452      861.494
10/30/2013  04:56:00     -102.438      -20.306       -4.055       33.623       26.996       16.029     1130.481      728.797      256.942        0.652        0.106      104.431       12.050        0.013      332.645        1.443      861.504
10/30/2013  04:57:00     -119.799       -0.105      -16.340       22.368       20.135       17.533      500.311      405.404      307.411        0.792        0.061      119.799        8.284        0.005      332.598        1.364      861.513
10/30/2013  04:58:00     -132.919      -24.406       -5.396       36.436       26.510       24.368     1327.549      702.790      593.777        1.046        0.131      135.141       22.323        0.027      332.500        1.203      861.517
10/30/2013  04:59:00     -170.644      -32.943       -4.254       35.276       32.271       24.663     1244.409     1041.442      608.259        1.656        0.145      173.795       20.643        0.014      332.482        1.171      861.519
10/30/2013  05:00:00     -121.143      -49.990       -0.398       43.997       37.042       22.406     1935.704     1372.115      502.025        1.049        0.190      131.052       20.462        0.024      332.486        1.179      861.513
10/30/2013  05:01:00     -104.389      -40.377       -7.723       29.625       34.376       16.956      877.644     1181.733      287.513        0.747        0.117      111.925        6.735        0.004      332.458        1.134      861.509
10/30/2013  05:02:00      -86.766      -43.488       -4.015       35.839       22.072       27.225     1284.442      487.168      741.225        0.597        0.126       97.055       15.885        0.027      332.472        1.156      861.503
10/30/2013  05:03:00      -54.519      -21.374      -13.502       36.797       21.454       16.139     1354.015      460.268      260.467        0.284        0.104       58.559       10.189        0.030      332.503        1.206      861.513
10/30/2013  05:04:00      -32.849       -4.887      -12.808       21.996       29.657       16.407      483.802      879.508      269.177        0.145        0.082       33.210       10.245        0.095      332.451        1.121      861.533
10/30/2013  05:05:00      -35.716      -18.420       -3.682       18.167       17.397       11.140      330.043      302.647      124.109        0.119        0.038       40.186        7.356        0.034      332.453        1.125      861.547
10/30/2013  05:06:00      -58.683       -6.355      -10.972       14.532       13.043       12.048      211.172      170.121      145.146        0.207        0.026       59.026        7.832        0.018      332.442        1.107      861.554
10/30/2013  05:07:00      -61.797       -2.523       -7.978       17.712       14.130       15.257      313.705      199.665      232.763        0.232        0.037       61.849        7.558        0.015      332.489        1.184      861.562
10/30/2013  05:08:00       -9.956      -26.115        5.060       27.858       16.432       19.232      776.075      270.008      369.855        0.111        0.071       27.948       16.498        0.348      332.486        1.179      861.589
10/30/2013  05:09:00      -43.715      -20.837        3.300       37.007       16.764       15.780     1369.501      281.031      249.017        0.213        0.095       48.427       16.199        0.112      332.488        1.183      861.601
10/30/2013  05:10:00      -58.374      -19.533      -12.853       14.190       14.623        8.423      201.362      213.837       70.939        0.222        0.024       61.556        2.017        0.001      332.522        1.238      861.618
10/30/2013  05:11:00      -55.940      -34.013      -11.154       33.627       20.406       15.173     1130.756      416.388      230.218        0.309        0.089       65.469        9.041        0.019      332.541        1.268      861.640
10/30/2013  05:12:00      -41.493      -26.902        1.787       39.580       27.752       14.371     1566.539      770.196      206.521        0.250        0.127       49.451       16.203        0.107      332.477        1.166      861.677
10/30/2013  05:13:00      -54.660      -58.787       -5.452       33.281       24.156       22.922     1107.613      583.534      525.417        0.434        0.111       80.272       23.279        0.084      332.491        1.188      861.718
10/30/2013  05:14:00      -49.107      -34.243        0.918       39.721       21.361       14.351     1577.751      456.289      205.942        0.291        0.112       59.867       19.993        0.112      332.474        1.159      861.748
10/30/2013  05:15:00      -70.807      -26.514       -3.761       30.391       27.087       14.147      923.600      733.686      200.138        0.379        0.093       75.609       14.462        0.037      332.490        1.187      861.760
10/30/2013  05:16:00      -90.527      -28.347       -2.194       17.553       24.422       13.864      308.109      596.441      192.199        0.505        0.055       94.862        9.673        0.010      332.475        1.161      861.769
10/30/2013  05:17:00      -99.557      -58.839       -8.110       15.292       16.728       11.327      233.850      279.839      128.312        0.704        0.032      115.644        9.494        0.007      332.454        1.125      861.778
10/30/2013  05:18:00      -86.990      -39.017       -1.787       35.043       20.410       19.132     1228.009      416.578      366.051        0.555        0.101       95.339       19.337        0.041      332.453        1.124      861.790
10/30/2013  05:19:00      -64.181      -39.507        1.496       36.759       18.719       17.829     1351.195      350.402      317.890        0.385        0.101       75.365       20.699        0.075      332.475        1.159      861.802
10/30/2013  05:20:00      -86.340      -36.555       -4.099       24.040       20.681       14.385      577.918      427.707      206.933        0.501        0.061       93.759       12.989        0.019      332.469        1.151      861.812
10/30/2013  05:21:00      -93.859      -32.914       -6.629       21.315       29.616       14.991      454.342      877.117      224.739        0.575        0.078       99.463       13.348        0.018      332.471        1.153      861.818
10/30/2013  05:22:00      -93.249      -49.799      -10.708       16.530       13.751       11.017      273.254      189.091      121.381        0.594        0.029      105.714        8.664        0.007      332.490        1.185      861.818
10/30/2013  05:23:00     -122.890      -54.972       -9.678       24.007       18.885       13.832      576.316      356.645      191.324        0.967        0.056      134.625        9.562        0.005      332.490        1.186      861.831
10/30/2013  05:24:00      -67.963      -63.557        5.148       35.107       29.037       22.626     1232.525      843.133      511.937        0.564        0.129       93.051       21.196        0.052      332.457        1.130      861.852
10/30/2013  05:25:00      -92.209      -59.577        3.429       41.768       20.624       19.176     1744.560      425.367      367.700        0.730        0.127      109.781       22.517        0.042      332.462        1.140      861.871
10/30/2013  05:26:00      -85.708      -45.219       -0.240       42.108       22.573       20.724     1773.068      509.519      429.494        0.605        0.136       96.905       23.692        0.060      332.461        1.139      861.892
10/30/2013  05:27:00      -81.545      -42.387        2.038       34.630       23.663       20.232     1199.264      559.922      409.318        0.531        0.108       91.903       20.207        0.048      332.461        1.139      861.906
10/30/2013  05:28:00      -23.142      -29.338        4.373       40.163       22.794       20.201     1613.040      519.578      408.098        0.198        0.127       37.367       21.292        0.325      332.452        1.123      861.913
10/30/2013  05:29:00      -33.472      -33.129       12.335       34.410       22.140       19.621     1184.017      490.194      384.990        0.221        0.103       47.095       17.805        0.143      332.441        1.107      861.914
10/30/2013  05:30:00      -13.530      -59.806        0.417       28.267       22.790       17.200      799.015      519.382      295.831        0.269        0.081       61.318       16.544        0.073      332.464        1.144      861.928
10/30/2013  05:31:00      -27.072      -21.109       13.165       35.105       20.208       14.645     1232.387      408.378      214.490        0.160        0.093       34.329       15.732        0.210      332.356        0.965      861.948
10/30/2013  05:32:00      -52.677      -36.375        2.113       60.367       24.684       16.345     3644.119      609.300      267.152        0.431        0.226       64.016       18.335        0.082      332.399        1.034      861.957
10/30/2013  05:33:00      -73.588      -61.521        4.443       40.318       39.439       19.794     1625.536     1555.461      391.783        0.640        0.179       95.916       22.530        0.055      332.366        0.981      861.967
10/30/2013  05:34:00      -62.745      -52.528        4.552       47.445       32.971       24.255     2251.051     1087.098      588.300        0.532        0.196       81.830       23.373        0.082      332.371        0.991      861.965
10/30/2013  05:35:00      -64.724      -53.869       -6.717       39.045       20.060       16.041     1524.502      402.392      257.317        0.466        0.109       84.208       18.364        0.048      332.385        1.011      861.972
10/30/2013  05:36:00      -61.749      -36.208       -9.411       34.220       20.943       15.315     1170.988      438.608      234.564        0.353        0.092       71.582       15.089        0.044      332.423        1.075      861.981
10/30/2013  05:37:00      -41.236      -44.425        7.878       27.402       27.404       17.924      750.846      750.959      321.252        0.278        0.091       60.613       13.511        0.050      332.422        1.074      861.991
10/30/2013  05:38:00      -57.929      -62.636        5.286       29.681       23.310       18.581      880.944      543.377      345.265        0.454        0.088       85.317       19.602        0.053      332.537        1.264      861.991
10/30/2013  05:39:00      -66.097      -66.807       -3.514       29.765       28.131       20.992      885.949      791.359      440.649        0.548        0.106       93.979       17.615        0.035      332.503        1.205      861.994
10/30/2013  05:40:00     -108.817      -86.818       -3.962       35.435       37.038       18.120     1255.642     1371.816      328.336        1.117        0.148      139.207       15.806        0.013      332.560        1.302      862.000
10/30/2013  05:41:00      -81.428      -41.556        7.014       54.565       30.836       22.152     2977.378      950.845      490.700        0.641        0.221       91.419       26.521        0.084      332.521        1.238      861.994
10/30/2013  05:42:00     -113.313      -68.355        0.673       36.787       26.708       19.578     1353.270      713.315      383.299        0.998        0.122      132.334       17.647        0.018      332.478        1.165      861.997
10/30/2013  05:43:00     -104.936      -42.863       -2.684       22.899       22.788       11.343      524.355      519.316      128.654        0.701        0.059      113.352        6.814        0.004      332.502        1.205      862.011
10/30/2013  05:44:00      -88.086      -31.781       -2.451       30.480       23.768       16.124      929.018      564.908      259.998        0.526        0.088       93.644       13.953        0.022      332.550        1.285      862.017
10/30/2013  05:45:00     -135.591      -42.664        0.236       24.670       29.081       17.046      608.612      845.713      290.555        1.097        0.087      142.145       13.990        0.010      332.528        1.248      862.023
10/30/2013  05:46:00      -88.472      -59.600        9.004       45.989       33.490       23.669     2115.006     1121.570      560.242        0.763        0.190      106.674       25.389        0.057      332.508        1.216      862.029
10/30/2013  05:47:00      -99.939      -38.866        1.181       50.136       37.004       23.968     2513.633     1369.294      574.453        0.798        0.223      107.231       23.371        0.048      332.478        1.165      862.023
10/30/2013  05:48:00     -102.005      -38.606        3.895       43.306       42.760       21.018     1875.397     1828.407      441.753        0.803        0.207      109.066       18.291        0.028      332.500        1.202      862.021
10/30/2013  05:49:00      -88.914      -35.170       -0.048       25.864       30.367       16.259      668.965      922.152      264.354        0.550        0.093       95.617       12.931        0.018      332.518        1.232      862.027
10/30/2013  05:50:00      -88.758      -33.774        0.173       30.424       37.573       18.527      925.608     1411.698      343.245        0.585        0.134       94.967       16.649        0.031      332.497        1.197      862.049
10/30/2013  05:51:00     -104.449      -10.993       -2.941       39.915       21.987       21.070     1593.237      483.428      443.957        0.678        0.126      105.026       23.482        0.050      332.415        1.062      862.063
10/30/2013  05:52:00     -104.216      -16.896        0.220       33.057       20.098       19.403     1092.764      403.935      376.481        0.651        0.094      105.577       20.737        0.039      332.383        1.009      862.074
10/30/2013  05:53:00      -70.303      -17.477        5.667       28.194       20.965       15.243      794.928      439.531      232.354        0.337        0.073       72.442       13.242        0.033      332.348        0.951      862.077
10/30/2013  05:54:00      -72.587      -13.777        6.039       35.999       17.656       18.086     1295.901      311.746      327.115        0.371        0.097       73.883       21.153        0.082      332.351        0.957      862.081
10/30/2013  05:55:00      -90.645      -20.491       -5.197       23.909       19.968       14.183      571.637      398.740      201.148        0.492        0.059       92.932        9.660        0.011      332.369        0.986      862.085
10/30/2013  05:56:00      -84.357      -36.674       -5.039       23.595       19.373       12.000      556.727      375.294      144.009        0.478        0.054       91.984       10.962        0.014      332.351        0.957      862.089
10/30/2013  05:57:00      -76.041      -35.101       -4.743       38.012       17.279       11.304     1444.878      298.552      127.769        0.445        0.094       83.752        7.023        0.007      332.328        0.918      862.094
10/30/2013  05:58:00      -54.819      -30.002       -0.194       34.477       23.522       15.745     1188.654      553.305      247.898        0.295        0.099       62.492       17.903        0.082      332.343        0.943      862.097
10/30/2013  05:59:00      -85.259      -38.195       -0.416       25.892       23.197       16.121      670.396      538.108      259.891        0.510        0.073       93.424       15.555        0.028      332.317        0.902      862.095
10/30/2013  06:00:00     -100.534      -39.831       -3.870       16.362       24.532       12.821      267.717      601.815      164.388        0.637        0.052      108.137       10.465        0.009      332.317        0.901      862.100
10/30/2013  06:01:00      -94.845      -42.675       -6.591       18.180       21.084       15.559      330.522      444.542      242.069        0.594        0.051      104.003        6.896        0.004      332.345        0.946      862.101
10/30/2013  06:02:00     -104.798      -38.531       -0.850       24.686       23.839       15.621      609.388      568.287      244.009        0.694        0.071      111.657       15.024        0.018      332.329        0.921      862.121
10/30/2013  06:03:00      -87.940      -33.761        3.354       40.803       21.898       20.551     1664.883      479.537      422.341        0.573        0.128       94.198       21.795        0.054      332.291        0.859      862.134
10/30/2013  06:04:00      -62.676      -47.498        3.885       41.734       29.939       22.264     1741.743      896.347      495.699        0.467        0.157       78.641       21.228        0.073      332.283        0.846      862.144
10/30/2013  06:05:00      -73.775      -53.943        3.240       45.861       22.955       24.058     2103.244      526.955      578.796        0.579        0.160       91.393       25.996        0.081      332.317        0.900      862.141
10/30/2013  06:06:00      -94.709      -54.670        0.558       51.655       31.004       24.656     2668.231      961.274      607.942        0.810        0.212      109.355       29.488        0.073      332.285        0.849      862.125
10/30/2013  06:07:00     -106.209      -61.592        0.049       32.573       27.016       19.239     1060.969      729.863      370.138        0.862        0.108      122.776       14.837        0.015      332.280        0.840      862.122
10/30/2013  06:08:00      -56.197      -41.330        8.667       40.845       25.272       19.075     1668.305      638.677      363.846        0.381        0.134       69.758       16.286        0.055      332.296        0.867      862.121
10/30/2013  06:09:00      -36.993      -23.082       11.118       33.912       25.268       20.370     1150.054      638.490      414.923        0.211        0.110       43.603       16.336        0.140      332.284        0.847      862.124
10/30/2013  06:10:00      -77.775      -52.298        1.570       40.940       24.952       20.098     1676.115      622.622      403.929        0.574        0.135       93.723       15.880        0.029      332.316        0.899      862.132
10/30/2013  06:11:00      -84.302      -52.867        9.395       50.211       28.604       23.003     2521.157      818.164      529.118        0.693        0.193       99.507       19.782        0.040      332.252        0.795      862.131
10/30/2013  06:12:00     -120.204      -76.253       -7.302       26.415       22.457       14.304      697.748      504.335      204.615        1.086        0.070      142.350       11.331        0.006      332.252        0.795      862.127
10/30/2013  06:13:00     -101.904      -47.746       -7.387       25.975       17.769       13.533      674.708      315.722      183.133        0.695        0.059      112.535        5.352        0.002      332.270        0.823      862.114
10/30/2013  06:14:00      -86.936      -48.747        6.833       38.583       26.543       21.018     1488.630      704.515      441.737        0.631        0.132       99.671       22.539        0.051      332.226        0.751      862.098
10/30/2013  06:15:00      -73.964      -46.216       11.367       50.741       35.012       23.088     2574.661     1225.827      533.051        0.603        0.217       87.216       18.484        0.045      332.216        0.736      862.085
10/30/2013  06:16:00     -117.633      -68.594       -1.173       38.285       33.915       24.432     1465.753     1150.245      596.911        1.088        0.161      136.172       22.084        0.026      332.177        0.672      862.082
10/30/2013  06:17:00     -121.455      -87.774       -9.412       35.391       27.219       18.343     1252.501      740.874      336.459        1.244        0.116      149.852       18.317        0.015      332.204        0.717      862.095
10/30/2013  06:18:00     -104.308      -80.739       -6.528       41.351       33.246       23.117     1709.924     1105.328      534.416        1.040        0.167      131.905       23.231        0.031      332.230        0.759      862.121
10/30/2013  06:19:00     -101.662      -87.464       -4.817       39.412       37.633       21.615     1553.293     1416.229      467.229        1.072        0.172      134.109       20.041        0.022      332.200        0.708      862.142
10/30/2013  06:20:00      -96.354      -51.050      -13.133       22.334       29.929       19.292      498.801      895.733      372.172        0.691        0.088      109.043       16.530        0.023      332.211        0.728      862.152
10/30/2013  06:21:00     -105.502      -42.337       -4.595       35.423       31.439       20.000     1254.800      988.417      400.003        0.779        0.132      113.680       18.628        0.027      332.183        0.681      862.155
10/30/2013  06:22:00     -112.108      -49.357      -19.771       22.744       28.432       15.837      517.289      808.403      250.813        0.849        0.079      122.492       12.313        0.010      332.189        0.692      862.155
10/30/2013  06:23:00     -110.812      -37.278      -14.234       18.827       21.324       15.594      354.444      454.699      243.158        0.746        0.053      116.914        7.959        0.005      332.189        0.691      862.155
10/30/2013  06:24:00     -107.609      -33.138       -7.405       19.803       28.492       14.949      392.161      811.799      223.475        0.708        0.071      112.596        9.317        0.007      332.248        0.787      862.146
10/30/2013  06:25:00      -94.325      -49.511        2.260       36.301       22.826       18.110     1317.795      521.013      327.958        0.676        0.108      106.529       15.656        0.022      332.251        0.791      862.146
10/30/2013  06:26:00      -66.118      -40.311        3.660       50.152       24.124       20.406     2515.236      581.945      416.417        0.476        0.176       77.437       16.031        0.043      332.251        0.793      862.156
10/30/2013  06:27:00      -38.232      -31.789        4.630       42.777       27.755       20.991     1829.905      770.319      440.615        0.277        0.152       49.721       21.982        0.195      332.173        0.664      862.173
10/30/2013  06:28:00     -126.060      -44.260       -3.598       27.051       22.417       17.218      731.779      502.538      296.444        0.970        0.077      133.604       12.996        0.009      332.115        0.567      862.190
10/30/2013  06:29:00      -94.616      -49.660       -6.910       24.936       18.767       17.071      621.826      352.218      291.407        0.637        0.063      106.856       15.865        0.022      332.188        0.690      862.200
10/30/2013  06:30:00      -82.997      -56.093       -6.756       23.878       17.276       17.920      570.177      298.460      321.124        0.563        0.059      100.174       16.184        0.026      332.175        0.668      862.207
10/30/2013  06:31:00     -100.153      -39.601      -11.334       22.525       19.846       11.746      507.385      393.854      137.960        0.638        0.052      107.697       11.467        0.011      332.149        0.626      862.211
10/30/2013  06:32:00      -89.184      -54.728       -4.588       24.485       25.576       17.590      599.524      654.138      309.419        0.627        0.078      104.637       12.918        0.015      332.157        0.638      862.209
10/30/2013  06:33:00     -103.144      -51.867       -7.493       31.131       27.493       19.074      969.129      755.877      363.822        0.774        0.104      115.450       17.177        0.022      332.188        0.689      862.212
10/30/2013  06:34:00      -72.106      -46.663       -7.293       39.159       17.881       13.254     1533.411      319.727      175.663        0.473        0.101       85.888        9.465        0.012      332.179        0.674      862.222
10/30/2013  06:35:00      -84.114      -51.132      -11.138       19.411       25.505       15.405      376.796      650.490      237.303        0.554        0.063       98.436       12.301        0.016      332.159        0.642      862.234
10/30/2013  06:36:00      -88.082      -50.010       -8.566       29.999       22.223       16.279      899.950      493.880      264.993        0.600        0.083      101.289       13.461        0.018      332.155        0.634      862.248
10/30/2013  06:37:00     -125.957      -50.605       -6.881       27.101       23.547       17.284      734.466      554.440      298.725        1.003        0.079      135.742       11.089        0.007      332.098        0.540      862.250
10/30/2013  06:38:00     -105.331      -43.456        2.009       21.307       26.891       17.312      453.986      723.124      299.718        0.723        0.074      113.943       14.471        0.016      332.033        0.432      862.259
10/30/2013  06:39:00      -76.549      -44.783        2.229       39.246       37.648       19.520     1540.218     1417.356      381.027        0.560        0.167       88.686       18.388        0.043      332.057        0.474      862.261
10/30/2013  06:40:00      -77.823      -36.135        0.118       34.831       25.718       12.865     1213.178      661.391      165.498        0.470        0.102       85.803       12.888        0.023      332.103        0.548      862.263
10/30/2013  06:41:00      -69.069      -43.908        2.633       33.143       23.463       20.567     1098.436      550.530      423.003        0.439        0.104       81.844       16.013        0.038      332.122        0.580      862.268
10/30/2013  06:42:00      -59.948      -59.714        3.445       26.156       23.401       17.632      684.119      547.598      310.874        0.436        0.077       84.614       14.133        0.028      332.116        0.572      862.275
10/30/2013  06:43:00      -91.046      -49.405      -11.493       27.128       18.026       13.872      735.948      324.950      192.438        0.606        0.063      103.587       13.257        0.016      332.103        0.549      862.278
10/30/2013  06:44:00      -72.186      -32.235        3.253       18.194       24.674       13.675      331.021      608.813      187.001        0.369        0.056       79.056        8.179        0.011      332.106        0.553      862.273
10/30/2013  06:45:00      -74.617      -36.738       -1.385       21.001       25.699       12.221      441.059      660.414      149.351        0.408        0.063       83.171       11.119        0.018      332.082        0.515      862.277
10/30/2013  06:46:00      -71.952      -40.396       -2.141       40.967       24.503       20.508     1678.270      600.399      420.569        0.476        0.135       82.516       24.346        0.087      331.999        0.375      862.284
10/30/2013  06:47:00      -61.982      -44.042        0.673       33.949       27.018       21.479     1152.530      729.964      461.346        0.406        0.117       76.036       20.190        0.071      332.088        0.525      862.292
10/30/2013  06:48:00      -90.100      -43.002       -0.259       32.861       23.525       13.823     1079.843      553.416      191.072        0.590        0.091       99.836       14.613        0.021      332.083        0.515      862.309
10/30/2013  06:49:00      -77.560      -57.194       -1.836       36.915       29.914       16.939     1362.697      894.859      286.939        0.592        0.127       96.368       16.798        0.030      332.057        0.472      862.317
10/30/2013  06:50:00      -67.004      -34.376        4.416       48.111       21.798       18.378     2314.641      475.152      337.736        0.441        0.156       75.308       20.791        0.076      332.066        0.487      862.327
10/30/2013  06:51:00      -94.249       -8.163       -2.083       30.713       20.738       15.794      943.260      430.055      249.445        0.529        0.081       94.602       14.183        0.022      331.991        0.362      862.333
10/30/2013  06:52:00      -63.034      -43.992        2.358       25.823       30.743       16.553      666.828      945.109      273.993        0.390        0.094       76.867       15.575        0.041      332.041        0.447      862.333
10/30/2013  06:53:00      -74.936      -37.829        0.380       26.957       19.739       15.817      726.679      389.610      250.190        0.421        0.068       83.943       15.464        0.034      332.085        0.519      862.330
10/30/2013  06:54:00      -74.161      -49.056       -6.609       22.455       15.250       12.687      504.221      232.558      160.964        0.442        0.045       88.917       12.012        0.018      332.068        0.490      862.333
10/30/2013  06:55:00      -54.987      -12.295       -1.943       24.020       18.095       12.214      576.959      327.434      149.191        0.212        0.053       56.344       12.841        0.052      331.977        0.342      862.340
10/30/2013  06:56:00      -71.334      -24.398       -6.741       22.572       17.869       12.650      509.517      319.285      160.033        0.336        0.049       75.391       13.090        0.030      331.983        0.350      862.356
10/30/2013  06:57:00      -90.092      -42.764      -14.607       15.175       14.004        9.202      230.266      196.113       84.675        0.533        0.026       99.726        6.665        0.004      332.041        0.446      862.368
10/30/2013  06:58:00      -82.829      -34.727      -14.059       12.543       15.017        8.645      157.326      225.524       74.744        0.436        0.023       89.815        4.259        0.002      332.020        0.414      862.383
10/30/2013  06:59:00      -89.904      -38.360      -10.254       12.239       19.570       12.387      149.789      382.984      153.447        0.517        0.034       97.746        7.655        0.006      332.084        0.517      862.403
10/30/2013  07:00:00      -70.690      -31.834       -1.406       17.175       21.628       13.477      294.968      467.755      181.618        0.348        0.047       77.527        9.002        0.013      332.054        0.469      862.423
10/30/2013  07:01:00      -76.112      -29.229      -10.314       13.928       15.788       10.140      193.982      249.259      102.813        0.365        0.027       81.531        2.348        0.001      332.040        0.445      862.442
10/30/2013  07:02:00      -59.737      -14.740       -1.510       17.979       15.341        9.456      323.244      235.336       89.423        0.222        0.032       61.529        6.845        0.012      331.994        0.369      862.455
10/30/2013  07:03:00      -44.167      -27.778       -6.380       16.554        9.991        9.211      274.045       99.814       84.847        0.161        0.023       52.176        4.940        0.009      332.066        0.487      862.466
10/30/2013  07:04:00      -32.293      -16.559        2.887       22.519       13.910       11.332      507.104      193.485      128.412        0.108        0.041       36.292        9.357        0.066      332.023        0.418      862.468
10/30/2013  07:05:00      -15.934      -15.621        4.664       15.963       16.856       10.209      254.810      284.129      104.223        0.058        0.032       22.314        4.613        0.043      332.008        0.392      862.469
10/30/2013  07:06:00      -25.595      -14.276       -0.984       31.553       13.821       10.437      995.620      191.032      108.939        0.108        0.065       29.308       13.930        0.226      331.989        0.363      862.478
10/30/2013  07:07:00      -65.736      -27.943       -3.019       17.701       15.442        9.771      313.339      238.464       95.470        0.288        0.032       71.429        7.434        0.011      331.975        0.337      862.490
10/30/2013  07:08:00      -64.796      -30.415        2.152       21.077       15.692       11.062      444.243      246.241      122.369        0.297        0.041       71.579       11.651        0.026      331.965        0.321      862.504
10/30/2013  07:09:00      -46.717      -35.042       -2.427       21.132       15.915       11.500      446.556      253.296      132.260        0.212        0.042       58.399       10.171        0.030      331.985        0.353      862.516
10/30/2013  07:10:00      -81.119      -36.629       -8.649       18.249       13.000       15.574      333.036      169.012      242.553        0.437        0.037       89.006       12.060        0.018      331.966        0.322      862.538
10/30/2013  07:11:00      -99.564      -25.083       -7.588       17.635       18.317       11.566      311.004      335.515      133.774        0.569        0.039      102.675        6.898        0.005      332.004        0.384      862.554
10/30/2013  07:12:00      -58.516      -32.672       -4.693       25.121       11.898       15.242      631.054      141.569      232.311        0.276        0.050       67.019       11.619        0.030      332.033        0.432      862.565
10/30/2013  07:13:00      -79.959      -43.842       -1.549       37.386       17.248       12.905     1397.727      297.498      166.526        0.509        0.093       91.189       13.922        0.023      331.995        0.368      862.573
10/30/2013  07:14:00      -85.899      -39.112       -6.350       22.604       20.275       15.332      510.939      411.088      235.064        0.505        0.058       94.384       12.714        0.018      331.927        0.257      862.589
10/30/2013  07:15:00     -101.314      -38.635       -8.344       12.758       12.448        9.180      162.775      154.948       84.274        0.611        0.020      108.431        6.377        0.003      332.013        0.399      862.611
10/30/2013  07:16:00      -50.482      -48.754       -8.242       17.670       14.594        8.358      312.243      212.974       69.848        0.279        0.030       70.181        4.930        0.005      332.067        0.489      862.624
10/30/2013  07:17:00      -60.379      -39.310        0.503       25.743       18.598       14.187      662.712      345.887      201.260        0.320        0.060       72.048        9.951        0.019      332.040        0.445      862.637
10/30/2013  07:18:00      -57.638      -35.915       -6.929       25.253       12.367       15.275      637.720      152.936      233.334        0.284        0.051       67.912       12.712        0.035      332.060        0.478      862.657
10/30/2013  07:19:00      -61.784      -28.079       -5.419       30.084       16.455       14.318      905.038      270.773      205.010        0.301        0.069       67.865       13.594        0.040      332.082        0.513      862.674
10/30/2013  07:20:00     -122.987      -53.821      -13.527       20.525       22.930       17.041      421.280      525.765      290.390        0.972        0.062      134.247       10.873        0.007      331.988        0.358      862.693
10/30/2013  07:21:00      -67.818      -42.114       -6.241       43.427       19.632       13.985     1885.923      385.420      195.567        0.444        0.123       79.831        7.950        0.010      332.018        0.408      862.708
10/30/2013  07:22:00      -82.186      -36.917       -2.941       21.657       16.860        9.461      469.028      284.250       89.516        0.448        0.042       90.097        7.614        0.007      332.058        0.473      862.711
10/30/2013  07:23:00      -29.874      -44.881       -8.685       13.700       15.142       10.203      187.689      229.269      104.109        0.175        0.026       53.914        3.766        0.005      332.146        0.619      862.707
10/30/2013  07:24:00      -18.767      -18.413       -4.120       13.590       10.861        9.467      184.680      117.953       89.617        0.055        0.020       26.291        3.460        0.017      332.192        0.695      862.701
10/30/2013  07:25:00      -42.302      -21.975       -5.100       13.932        8.018        8.461      194.112       64.282       71.587        0.131        0.016       47.669        4.715        0.010      332.192        0.696      862.697
10/30/2013  07:26:00      -41.799      -15.225       -1.617       13.354        8.797        6.674      178.321       77.396       44.542        0.114        0.015       44.485        2.766        0.004      332.145        0.618      862.704
10/30/2013  07:27:00      -46.094      -16.634       -1.826       11.950       12.323        6.820      142.794      151.868       46.513        0.137        0.017       49.003        5.699        0.014      332.158        0.638      862.706
10/30/2013  07:28:00      -49.932      -36.542       -4.598       18.512        9.594        9.132      342.682       92.037       83.396        0.218        0.026       61.875        4.619        0.006      332.155        0.635      862.713
10/30/2013  07:29:00      -35.408      -30.324        5.916       26.223       21.084       19.448      687.672      444.540      378.205        0.186        0.076       46.618       15.617        0.112      332.213        0.731      862.718
10/30/2013  07:30:00      -29.105      -13.765        5.469       23.017       20.500       12.907      529.801      420.252      166.579        0.109        0.056       32.195       11.986        0.139      332.055        0.469      862.728
10/30/2013  07:31:00      -37.158      -25.488        0.192       27.366       16.012       13.272      748.877      256.395      176.153        0.161        0.059       45.060       12.000        0.071      332.112        0.562      862.747
10/30/2013  07:32:00      -40.380      -21.586        2.980       34.992       20.050       16.873     1224.472      402.009      284.686        0.201        0.096       45.787       22.575        0.243      332.037        0.439      862.755
10/30/2013  07:33:00      -53.938      -30.881        0.629       44.965       14.216       13.333     2021.812      202.109      177.770        0.313        0.120       62.152       16.834        0.073      332.131        0.595      862.764
10/30/2013  07:34:00      -83.923      -42.490      -10.273       19.643       15.637        9.111      385.839      244.528       83.011        0.483        0.036       94.067        5.387        0.003      332.136        0.602      862.780
10/30/2013  07:35:00      -66.366      -35.397       -6.455       21.168       15.416       10.581      448.075      237.648      111.958        0.325        0.040       75.216        7.274        0.009      332.101        0.545      862.790
10/30/2013  07:36:00      -97.175      -54.345       -8.403       24.505       24.116       17.375      600.507      581.602      301.905        0.698        0.074      111.339       10.068        0.008      332.056        0.471      862.786
10/30/2013  07:37:00      -60.920      -45.367        6.369       40.733       29.214       20.515     1659.147      853.479      420.854        0.437        0.147       75.957       20.525        0.073      332.054        0.467      862.780
10/30/2013  07:38:00      -70.505      -42.862        2.151       39.433       25.164       20.519     1554.932      633.236      421.016        0.471        0.130       82.511       19.849        0.058      332.046        0.454      862.787
10/30/2013  07:39:00      -25.901      -23.886        7.882       29.197       20.309       13.355      852.488      412.471      178.350        0.137        0.072       35.234       12.262        0.121      332.102        0.549      862.791
10/30/2013  07:40:00      -25.227      -37.928       15.572       44.989       33.650       21.695     2024.046     1132.306      470.670        0.297        0.181       45.551       25.377        0.310      332.154        0.632      862.798
10/30/2013  07:41:00      -41.249      -31.729       10.978       37.617       19.180       17.610     1415.067      367.878      310.115        0.246        0.105       52.041       19.747        0.144      332.148        0.622      862.818
10/30/2013  07:42:00      -50.090      -35.140        1.612       37.293       20.524       15.799     1390.734      421.238      249.602        0.290        0.103       61.187       13.203        0.047      332.158        0.638      862.831
10/30/2013  07:43:00      -49.838      -46.675       -4.308       35.519       25.837       13.645     1261.569      667.565      186.195        0.340        0.106       68.281       14.745        0.047      332.147        0.622      862.832
10/30/2013  07:44:00      -51.207      -60.774        2.087       23.625       30.512       17.236      558.132      930.979      297.085        0.405        0.089       79.471       10.516        0.018      332.114        0.567      862.824
10/30/2013  07:45:00      -62.341      -77.042       -1.031       30.710       28.980       21.184      943.107      839.823      448.767        0.603        0.112       99.106       18.566        0.035      332.036        0.437      862.819
10/30/2013  07:46:00      -69.693      -53.087        1.465       33.493       32.549       16.916     1121.813     1059.422      286.139        0.507        0.123       87.609       19.788        0.051      332.040        0.443      862.824
10/30/2013  07:47:00      -83.584      -72.764        2.752       44.646       42.407       32.198     1993.248     1798.328     1036.726        0.856        0.241      110.819       29.862        0.073      332.022        0.415      862.832
10/30/2013  07:48:00     -147.886     -123.520      -18.868       48.074       27.410       22.956     2311.110      751.281      526.997        2.054        0.179      192.685        8.993        0.002      331.963        0.316      862.837
10/30/2013  07:49:00      -98.651      -85.155      -14.506       65.133       33.548       31.258     4242.350     1125.464      977.079        1.177        0.317      130.321       16.610        0.016      331.985        0.354      862.831
10/30/2013  07:50:00      -91.981      -50.507       -9.088       52.097       28.588       27.781     2714.109      817.293      771.794        0.770        0.215      104.935       23.009        0.048      331.963        0.317      862.833
10/30/2013  07:51:00     -100.400      -61.526      -12.012       37.526       30.981       23.982     1408.203      959.829      575.131        0.848        0.147      117.752       16.388        0.019      331.996        0.372      862.841
10/30/2013  07:52:00      -75.009      -28.662       -4.592       48.022       26.366       29.007     2306.159      695.153      841.412        0.516        0.192       80.299       26.242        0.107      331.956        0.306      862.842
10/30/2013  07:53:00      -89.644      -75.373       -0.663       70.289       53.767       28.221     4940.554     2890.908      796.402        1.117        0.431      117.120       37.872        0.105      332.023        0.416      862.853
10/30/2013  07:54:00     -132.843     -111.154       -7.806       35.385       45.578       26.179     1252.118     2077.375      685.324        1.704        0.201      173.212       23.155        0.018      331.938        0.276      862.880
10/30/2013  07:55:00     -151.120      -96.814      -14.060       37.750       33.315       26.753     1425.036     1109.916      715.697        1.783        0.163      179.472       18.846        0.011      331.959        0.310      862.896
10/30/2013  07:56:00      -74.435      -52.482        6.722       48.014       36.479       26.867     2305.300     1330.693      721.852        0.635        0.218       91.077       25.494        0.078      332.061        0.480      862.912
10/30/2013  07:57:00     -104.412     -108.251       -9.472       25.617       25.499       15.422      656.213      650.218      237.837        1.213        0.077      150.400        9.959        0.004      332.039        0.441      862.905
10/30/2013  07:58:00     -106.193      -74.767       -8.373       28.104       26.774       19.337      789.812      716.862      373.933        0.941        0.094      129.873       13.916        0.011      332.111        0.561      862.901
10/30/2013  07:59:00      -53.928      -42.949        5.479       37.462       23.244       17.414     1403.433      540.281      303.246        0.351        0.112       68.941       18.567        0.073      332.121        0.577      862.897
10/30/2013  08:00:00      -43.854      -30.490        8.715       30.644       22.646       20.607      939.055      512.837      424.661        0.240        0.094       53.412       17.392        0.106      332.167        0.654      862.894
10/30/2013  08:01:00      -30.920      -33.626        9.039       33.633       24.638       17.984     1131.183      607.038      323.419        0.211        0.103       45.680       16.786        0.135      332.208        0.722      862.901
10/30/2013  08:02:00      -75.573      -88.491       -2.691       29.724       31.502       15.124      883.503      992.370      228.730        0.783        0.105      116.370       13.620        0.014      332.148        0.622      862.905
10/30/2013  08:03:00      -89.399      -88.363       -8.218       29.725       28.123       17.045      883.601      790.888      290.539        0.892        0.098      125.698       10.169        0.007      332.127        0.587      862.923
10/30/2013  08:04:00      -70.367      -71.948       -4.153       30.917       16.336       18.025      955.879      266.875      324.908        0.585        0.077      100.638       14.109        0.020      332.142        0.614      862.941
10/30/2013  08:05:00      -76.240      -83.290       -9.369       24.724       23.164       12.235      611.255      536.592      149.687        0.707        0.065      112.914       12.429        0.012      332.146        0.619      862.961
10/30/2013  08:06:00      -77.857      -72.337       -8.825       26.043       29.600       14.334      678.232      876.166      205.453        0.657        0.088      106.275       13.842        0.017      332.175        0.668      862.973
10/30/2013  08:07:00      -59.519      -63.913        2.345       35.080       22.183       17.475     1230.604      492.083      305.358        0.483        0.101       87.335       19.050        0.048      332.234        0.765      862.985
10/30/2013  08:08:00      -88.770      -85.399       -7.661       30.637       33.938       21.976      938.601     1151.791      482.941        0.890        0.129      123.179       17.552        0.020      332.166        0.653      863.001
10/30/2013  08:09:00      -96.034      -95.257      -12.815       29.475       34.054       24.199      868.782     1159.642      585.568        1.054        0.131      135.265       18.280        0.018      332.136        0.603      863.012
10/30/2013  08:10:00      -82.077      -89.453        0.609       39.619       28.072       27.032     1569.641      788.040      730.742        0.891        0.154      121.403       28.701        0.056      332.209        0.724      863.020
10/30/2013  08:11:00      -92.855      -74.176       -7.126       34.686       33.398       22.082     1203.126     1115.423      487.633        0.849        0.140      118.845       23.666        0.040      332.230        0.758      863.035
10/30/2013  08:12:00      -51.887      -35.118       -0.082       40.772       18.584       19.081     1662.338      345.361      364.069        0.315        0.119       62.654       18.242        0.085      332.351        0.957      863.059
10/30/2013  08:13:00      -98.715      -54.524       -5.112       29.691       15.574       13.124      881.579      242.539      172.239        0.702        0.065      112.772       10.505        0.009      332.225        0.750      863.097
10/30/2013  08:14:00      -82.333      -57.339      -10.434       36.808       26.458       18.005     1354.851      700.009      324.186        0.628        0.119      100.332       19.774        0.039      332.294        0.862      863.131
10/30/2013  08:15:00      -50.992      -55.342        2.358       29.928       22.668       17.638      895.673      513.852      311.101        0.369        0.086       75.253       14.363        0.036      332.302        0.877      863.138
10/30/2013  08:16:00      -42.991      -39.821        6.932       41.613       34.971       20.307     1731.613     1222.985      412.394        0.342        0.168       58.600       20.112        0.118      332.339        0.937      863.124
10/30/2013  08:17:00      -73.656      -78.109        1.476       28.931       19.116       20.214      837.026      365.405      408.602        0.657        0.081      107.360       16.267        0.023      332.302        0.876      863.092
10/30/2013  08:18:00      -60.951      -58.371        0.069       31.495       22.548       15.255      991.950      508.424      232.720        0.443        0.087       84.393       16.742        0.039      332.334        0.929      863.071
10/30/2013  08:19:00      -62.582      -52.868       -4.930       17.359       15.497       11.422      301.330      240.152      130.466        0.370        0.034       81.924        9.830        0.014      332.359        0.969      863.069
10/30/2013  08:20:00      -37.894      -59.671       -4.253       29.248       24.839       12.884      855.472      616.969      166.006        0.333        0.082       70.686       13.639        0.037      332.335        0.929      863.074
10/30/2013  08:21:00      -29.269      -41.784        1.246       25.178       23.857       15.830      633.923      569.155      250.597        0.203        0.073       51.016       12.847        0.063      332.450        1.120      863.075
10/30/2013  08:22:00      -33.370      -67.224      -10.393       23.648       32.195       21.042      559.218     1036.522      442.774        0.389        0.102       75.051       20.698        0.076      332.351        0.958      863.074
10/30/2013  08:23:00      -40.116      -23.787        3.973       38.918       21.268       17.022     1514.612      452.314      289.735        0.222        0.113       46.638       17.547        0.142      332.413        1.058      863.067
10/30/2013  08:24:00      -38.526      -14.451       -3.741       25.044       26.712       19.488      627.211      713.534      379.800        0.171        0.086       41.147       11.174        0.074      332.356        0.964      863.073
10/30/2013  08:25:00      -48.769      -35.404       -7.568       39.421       28.871       19.779     1554.017      833.553      391.218        0.323        0.139       60.265        5.185        0.007      332.340        0.939      863.097
10/30/2013  08:26:00      -47.783      -46.434       -6.158       27.019       16.811       14.344      730.035      282.617      205.740        0.285        0.061       66.629        9.393        0.020      332.357        0.966      863.126
10/30/2013  08:27:00      -39.650      -23.765        4.476       35.605       21.208       17.515     1267.711      449.764      306.764        0.209        0.101       46.227       18.321        0.157      332.474        1.159      863.167
10/30/2013  08:28:00      -64.600      -65.579       -7.640       20.787       16.524       16.962      432.084      273.036      287.709        0.476        0.050       92.053       13.106        0.020      332.390        1.021      863.203
10/30/2013  08:29:00      -44.996      -17.053       -7.656       16.978       18.754       17.456      288.260      351.702      304.720        0.166        0.047       48.119       13.506        0.079      332.486        1.181      863.228
10/30/2013  08:30:00      -31.467      -50.609       -4.565       14.709       24.467       14.552      216.362      598.657      211.764        0.230        0.051       59.594       13.073        0.048      332.458        1.134      863.233
10/30/2013  08:31:00      -41.185       -2.689      -15.185       12.062       15.811       10.128      145.480      249.978      102.579        0.122        0.025       41.273        6.622        0.026      332.537        1.263      863.224
10/30/2013  08:32:00      -22.885      -17.421       -1.303       30.364       20.467       12.638      922.000      418.891      159.719        0.116        0.075       28.762        9.860        0.118      332.633        1.422      863.211
10/30/2013  08:33:00      -41.354      -61.985       -6.860       12.351       28.785       14.268      152.547      828.579      203.567        0.339        0.059       74.514        6.228        0.007      332.540        1.269      863.198
10/30/2013  08:34:00      -16.537      -39.732       -3.182       16.338       15.448       14.700      266.914      238.651      216.094        0.129        0.036       43.036        9.366        0.047      332.648        1.448      863.183
10/30/2013  08:35:00      -29.805      -51.508        0.008       16.359       17.335       10.893      267.611      300.498      118.660        0.211        0.034       59.510        7.033        0.014      332.605        1.375      863.176
10/30/2013  08:36:00      -45.436      -36.816       -4.432       26.323       27.725       14.766      692.920      768.658      218.039        0.256        0.084       58.479       13.222        0.051      332.675        1.492      863.172
10/30/2013  08:37:00      -52.687      -70.783        0.593       32.432       29.565       21.267     1051.817      874.082      452.293        0.508        0.119       88.239       18.488        0.044      332.672        1.487      863.194
10/30/2013  08:38:00      -43.328      -42.661        7.224       37.494       32.068       15.070     1405.797     1028.366      227.110        0.320        0.133       60.805       14.414        0.056      332.836        1.760      863.215
10/30/2013  08:39:00      -44.866      -66.629       -1.366       39.522       24.697       28.675     1561.969      609.944      822.242        0.472        0.150       80.327       25.301        0.099      332.768        1.645      863.239
10/30/2013  08:40:00      -62.695      -50.361      -12.622       26.897       27.982       19.428      723.464      783.006      377.446        0.425        0.094       80.417       14.692        0.033      332.737        1.594      863.264
10/30/2013  08:41:00      -59.430      -59.511      -11.216       30.850       20.403       11.960      951.747      416.291      143.041        0.435        0.076       84.105       10.293        0.015      332.815        1.724      863.299
10/30/2013  08:42:00      -41.128      -61.811       -7.413       17.977       13.370        8.605      323.184      178.751       74.052        0.307        0.029       74.244        4.751        0.004      332.779        1.666      863.331
10/30/2013  08:43:00      -59.801      -51.574      -12.219       16.652       17.362       10.118      277.277      301.422      102.380        0.353        0.034       78.969        9.262        0.014      332.861        1.801      863.349
10/30/2013  08:44:00      -46.816      -42.955      -12.043       19.656       24.871       13.664      386.347      618.584      186.700        0.269        0.060       63.536        6.547        0.011      332.924        1.904      863.362
10/30/2013  08:45:00      -81.078      -58.021       -6.946       18.079       33.247       14.061      326.846     1105.378      197.699        0.581        0.081       99.700        9.132        0.008      332.804        1.705      863.367
10/30/2013  08:46:00      -54.931      -44.119       -2.676       49.325       17.841       19.214     2432.989      318.294      369.184        0.405        0.156       70.455       23.638        0.113      332.887        1.842      863.372
10/30/2013  08:47:00      -69.184      -48.455       -2.889       30.055       33.150       16.588      903.316     1098.936      275.164        0.471        0.114       84.465       15.286        0.033      332.860        1.798      863.387
10/30/2013  08:48:00      -81.111      -81.830       -7.764       19.905       16.760       17.230      396.195      280.894      296.876        0.715        0.049      115.218       11.480        0.010      332.789        1.682      863.405
10/30/2013  08:49:00      -77.669      -68.383       -5.446       24.353       23.939       15.750      593.090      573.068      248.063        0.608        0.071      103.483       13.515        0.017      332.862        1.803      863.413
10/30/2013  08:50:00      -75.124      -60.765        6.190       34.597       28.636       24.781     1196.957      820.002      614.111        0.600        0.132       96.623       20.730        0.046      332.922        1.899      863.410
10/30/2013  08:51:00      -77.809      -80.000       -9.301       21.703       19.093       17.760      471.008      364.535      315.401        0.685        0.058      111.598       12.659        0.013      332.880        1.832      863.397
10/30/2013  08:52:00      -78.404      -57.692       -7.796       25.628       24.452       16.417      656.785      597.923      269.523        0.553        0.076       97.343       17.390        0.032      332.926        1.908      863.385
10/30/2013  08:53:00      -76.543      -92.308       -2.751       37.409       34.216       21.695     1399.443     1170.758      470.651        0.871        0.152      119.915       12.333        0.011      332.959        1.960      863.392
10/30/2013  08:54:00      -76.535      -74.444      -11.263       50.032       29.596       22.197     2503.229      875.899      492.697        0.770        0.194      106.768       19.058        0.032      333.001        2.029      863.415
10/30/2013  08:55:00     -102.308      -82.768      -10.908       19.404       18.662       15.441      376.500      348.262      238.419        0.920        0.048      131.596       10.333        0.006      333.020        2.062      863.426
10/30/2013  08:56:00      -69.025      -56.695        7.471       27.893       24.197       18.439      778.020      585.480      340.009        0.487        0.085       89.324       16.557        0.034      333.090        2.178      863.437
10/30/2013  08:57:00      -62.989      -59.153       -1.945       15.719       18.814       13.041      247.092      353.979      170.059        0.412        0.039       86.410        8.760        0.010      333.094        2.185      863.445
10/30/2013  08:58:00      -40.861      -83.000       -4.690       23.911       25.589       14.379      571.759      654.776      206.761        0.501        0.072       92.513       10.574        0.013      333.193        2.348      863.453
10/30/2013  08:59:00      -45.705      -39.764        3.874       39.811       27.304       21.543     1584.904      745.511      464.086        0.324        0.140       60.581       17.990        0.088      333.310        2.540      863.468
10/30/2013  09:00:00      -67.309      -50.544       -7.848       18.138       21.362       11.103      328.996      456.346      123.270        0.403        0.045       84.174        6.821        0.007      333.240        2.424      863.499
10/30/2013  09:01:00      -68.402      -70.961       -1.944       45.032       26.241       16.008     2027.842      688.574      256.260        0.634        0.149       98.561       12.910        0.017      333.313        2.545      863.524
10/30/2013  09:02:00      -57.754      -59.435       -0.011       19.784       33.456       17.068      391.405     1119.308      291.314        0.433        0.090       82.874       14.353        0.030      333.318        2.554      863.538
10/30/2013  09:03:00      -71.755      -46.371       -3.141       19.504       24.666       17.096      380.411      608.396      292.285        0.429        0.064       85.434       15.577        0.033      333.334        2.581      863.550
10/30/2013  09:04:00      -64.584      -64.894       -8.634       33.288       28.719       22.064     1108.077      824.766      486.842        0.544        0.121       91.555       15.055        0.027      333.384        2.663      863.566
10/30/2013  09:05:00      -56.152      -80.801       -5.484       30.033       30.669       11.111      901.961      940.595      123.456        0.584        0.098       98.396       12.068        0.015      333.257        2.451      863.574
10/30/2013  09:06:00      -60.551      -83.657      -15.952       36.013       23.132       19.471     1296.930      535.084      379.124        0.656        0.111      103.271       13.418        0.017      333.337        2.586      863.563
10/30/2013  09:07:00      -39.523      -84.134       -8.251       13.883       16.450       13.999      192.735      270.603      195.967        0.468        0.033       92.955        5.533        0.004      333.248        2.437      863.557
10/30/2013  09:08:00      -35.609      -37.308      -14.451       23.488       45.232       12.738      551.695     2045.916      162.251        0.281        0.138       51.575        8.075        0.025      333.450        2.773      863.574
10/30/2013  09:09:00      -54.660      -31.883       18.288       45.472       37.037       24.882     2067.694     1371.704      619.127        0.420        0.203       63.279       23.438        0.137      333.648        3.099      863.597
10/30/2013  09:10:00     -118.444      -42.192       -4.045       51.003       35.682       26.993     2601.327     1273.192      728.636        1.021        0.230      125.734       26.649        0.045      333.454        2.778      863.622
10/30/2013  09:11:00      -55.498      -48.513       -8.718       36.961       18.381       16.445     1366.122      337.865      270.443        0.374        0.099       73.713       16.322        0.049      333.434        2.745      863.645
10/30/2013  09:12:00        1.909      -20.409        0.438       14.146       26.518       22.444      200.115      703.186      503.749        0.091        0.070       20.498       20.507        1.001      333.881        3.486      863.653
10/30/2013  09:13:00      -12.198       -5.323        8.065       20.048       15.724       10.755      401.910      247.243      115.663        0.050        0.038       13.309        6.881        0.267      333.970        3.635      863.655
10/30/2013  09:14:00      -35.333      -34.419       -6.202       21.654       22.288       20.157      468.912      496.771      406.303        0.192        0.069       49.326       10.623        0.046      333.677        3.148      863.661
10/30/2013  09:15:00      -27.854      -19.715        1.188       20.791       17.979       14.204      432.284      323.253      201.768        0.106        0.048       34.126       10.250        0.090      333.707        3.198      863.669
10/30/2013  09:16:00      -39.981      -20.572        0.835       15.051       20.565       14.807      226.524      422.931      219.244        0.145        0.043       44.963        9.756        0.047      333.645        3.096      863.694
10/30/2013  09:17:00      -31.073      -17.072       -7.346       11.640       10.937        9.215      135.481      119.629       84.924        0.083        0.017       35.454        4.295        0.015      333.695        3.179      863.715
10/30/2013  09:18:00      -45.860      -30.275        2.721       35.855       33.981       18.678     1285.602     1154.700      348.851        0.291        0.139       54.952       18.568        0.114      333.783        3.325      863.722
10/30/2013  09:19:00      -65.695      -77.701       -4.307       53.788       32.457       29.075     2893.103     1053.479      845.365        0.758        0.240      101.751       31.893        0.098      333.637        3.081      863.732
10/30/2013  09:20:00     -104.227      -65.855       -0.773       39.243       31.972       22.686     1540.039     1022.224      514.665        0.914        0.154      123.289       19.653        0.025      333.555        2.944      863.743
10/30/2013  09:21:00      -69.832      -47.299       -0.045       27.450       21.891       16.928      753.509      479.219      286.546        0.432        0.076       84.342        8.369        0.010      333.583        2.991      863.746
10/30/2013  09:22:00      -52.864      -48.731       -0.994       34.344       27.635       21.725     1179.544      763.703      471.993        0.379        0.121       71.897       14.881        0.043      333.646        3.097      863.743
10/30/2013  09:23:00      -60.326      -25.856        4.316       31.206       24.175       17.162      973.843      584.454      294.548        0.309        0.093       65.634       14.772        0.051      333.685        3.162      863.748
10/30/2013  09:24:00      -85.487      -14.325      -10.840       22.242       21.348       14.964      494.708      455.717      223.914        0.440        0.059       86.679       13.950        0.026      333.600        3.021      863.763
10/30/2013  09:25:00      -44.442       14.377       -0.675       13.343       18.892       15.674      178.030      356.898      245.682        0.148        0.039       46.709       11.150        0.057      333.735        3.245      863.764
10/30/2013  09:26:00      -31.413      -23.593       -2.639       35.928       17.815       12.418     1290.803      317.373      154.201        0.166        0.088       39.287       17.132        0.190      334.014        3.709      863.755
10/30/2013  09:27:00      -49.140      -34.017       -1.690       44.644       37.964       22.688     1993.071     1441.274      514.748        0.376        0.197       59.766       18.246        0.093      333.899        3.516      863.744
10/30/2013  09:28:00      -24.724      -20.742        9.296       40.300       40.596       29.880     1624.089     1648.040      892.808        0.265        0.208       32.272       31.153        0.932      334.306        4.191      863.732
10/30/2013  09:29:00      -58.100      -43.771       -7.403       29.626       26.564       23.294      877.697      705.664      542.627        0.374        0.106       72.743       13.498        0.034      333.817        3.381      863.730
10/30/2013  09:30:00      -11.083      -53.558      -14.461       24.676       34.105       23.480      608.898     1163.142      551.317        0.276        0.116       54.693       14.569        0.071      334.034        3.740      863.735
10/30/2013  09:31:00      -11.494      -38.891       -1.287       33.076       34.862       26.466     1093.992     1215.347      700.452        0.233        0.150       40.554       11.058        0.074      334.159        3.948      863.728
10/30/2013  09:32:00       -2.322      -43.417       -2.512       31.291       53.951       32.798      979.138     2910.713     1075.676        0.343        0.248       43.479       21.277        0.239      334.227        4.060      863.737
10/30/2013  09:33:00        2.251        1.258       21.755       30.885       24.490       32.602      953.862      599.758     1062.904        0.155        0.131        2.578       22.465       75.910      334.570        4.630      863.733
10/30/2013  09:34:00      -12.445      -48.779      -17.556       37.010       40.330       27.383     1369.765     1626.479      749.821        0.329        0.187       50.342       19.162        0.145      334.256        4.109      863.744
10/30/2013  09:35:00      -40.266      -23.243       11.391       22.828       36.355       21.666      521.136     1321.697      469.412        0.230        0.116       46.493        9.823        0.045      334.222        4.053      863.742
10/30/2013  09:36:00      -22.920      -25.704       12.388       45.835       64.092       25.734     2100.806     4107.813      662.225        0.410        0.344       34.439       16.935        0.242      334.256        4.108      863.751
10/30/2013  09:37:00      -17.884        1.012       12.080       24.318       15.628       12.637      591.352      244.224      159.697        0.073        0.050       17.912        6.377        0.127      334.470        4.465      863.753
10/30/2013  09:38:00      -18.118       11.581       46.168       18.880       22.809       30.966      356.461      520.237      958.914        0.221        0.092       21.503       16.958        0.622      334.828        5.058      863.754
10/30/2013  09:39:00       11.272        8.930       37.973       24.576       30.958       18.131      603.964      958.393      328.746        0.177        0.095       14.381       10.115        0.495      334.622        4.717      863.755
10/30/2013  09:40:00      -12.846       24.329       38.622       27.720       25.517       30.693      768.426      651.128      942.074        0.230        0.118       27.512       19.245        0.489      334.724        4.884      863.751
10/30/2013  09:41:00      -15.301       23.360       42.570       30.176       28.911       24.268      910.578      835.848      588.955        0.246        0.117       27.926       19.994        0.513      334.688        4.826      863.758
10/30/2013  09:42:00       11.502       29.988       41.475       19.316       24.408       20.441      373.116      595.749      417.834        0.207        0.069       32.118       16.144        0.253      334.537        4.576      863.756
10/30/2013  09:43:00        4.681       26.273       27.168       27.861       38.803       19.685      776.215     1505.635      387.492        0.206        0.133       26.687       15.081        0.319      334.546        4.589      863.756
10/30/2013  09:44:00      -18.734       21.786       50.417       22.280       33.218       33.669      496.394     1103.451     1133.610        0.305        0.137       28.733       26.894        0.876      334.783        4.985      863.755
10/30/2013  09:45:00        9.405      -25.750       35.487       28.609       60.790       37.766      818.478     3695.468     1426.291        0.397        0.297       27.413       29.488        1.157      334.789        4.994      863.752
10/30/2013  09:46:00       39.836      -30.762       16.618       38.564       45.411       44.762     1487.146     2062.153     2003.680        0.418        0.278       50.331       39.481        0.615      334.478        4.478      863.750
10/30/2013  09:47:00      -36.039       -2.695        4.491       25.086       20.561       18.631      629.292      422.757      347.114        0.136        0.070       36.140       16.339        0.204      334.470        4.464      863.757
10/30/2013  09:48:00      -36.989      -10.093       15.206       38.318       52.063       29.303     1468.299     2710.571      858.643        0.337        0.252       38.341       24.606        0.412      334.495        4.507      863.757
10/30/2013  09:49:00     -113.519      -60.742        8.535       69.867       42.728       33.856     4881.397     1825.640     1146.212        1.225        0.393      128.749       37.016        0.083      334.230        4.065      863.772
10/30/2013  09:50:00      -70.130      -83.664        0.579       53.010       32.523       25.179     2810.045     1057.727      633.978        0.821        0.225      109.169       25.727        0.056      334.146        3.926      863.794
10/30/2013  09:51:00      -44.654       -5.226       -0.307       25.824       34.594       19.637      666.902     1196.775      385.613        0.213        0.112       44.959       15.393        0.117      334.108        3.864      863.803
10/30/2013  09:52:00      -22.624        6.071       28.124       18.631       22.556       22.709      347.124      508.793      515.719        0.136        0.069       23.424       14.846        0.402      334.664        4.786      863.809
10/30/2013  09:53:00       -2.492      -27.421       12.095       37.011       35.109       32.434     1369.813     1232.625     1051.940        0.228        0.183       27.534       26.742        0.943      334.528        4.560      863.816
10/30/2013  09:54:00       25.106       54.231       31.488       30.401       38.722       32.698      924.237     1499.386     1069.154        0.403        0.175       59.761       28.676        0.230      334.368        4.296      863.812
10/30/2013  09:55:00       39.505       26.010       18.363       28.771       39.009       31.452      827.775     1521.730      989.244        0.296        0.167       47.299       23.224        0.241      334.425        4.389      863.825
10/30/2013  09:56:00      -20.332       31.733       18.228       18.940       23.934       23.584      358.721      572.827      556.204        0.162        0.074       37.687        3.964        0.011      334.535        4.571      863.844
10/30/2013  09:57:00      -11.339       53.995        5.033       53.272       27.363       28.638     2837.930      748.734      820.158        0.374        0.220       55.172       24.451        0.196      334.423        4.387      863.860
10/30/2013  09:58:00      -29.335       16.159        5.119       33.564       42.554       29.852     1126.548     1810.802      891.158        0.249        0.191       33.491       18.875        0.318      334.402        4.351      863.878
10/30/2013  09:59:00      -31.902       -0.180        9.559       27.515       26.157       22.385      757.054      684.209      501.107        0.153        0.097       31.903       18.210        0.326      334.721        4.883      863.889
10/30/2013  10:00:00      -61.489       31.130      -11.112       30.820       29.737       18.466      949.882      884.285      341.003        0.352        0.109       68.920        7.197        0.011      334.316        4.209      863.907
10/30/2013  10:01:00      -17.569       12.135       44.282       23.350       49.475       54.183      545.244     2447.741     2935.806        0.417        0.296       21.352       25.091        1.381      334.641        4.748      863.917
10/30/2013  10:02:00       30.104       51.657       87.999       50.107       90.308       55.167     2510.683     8155.588     3043.402        1.251        0.685       59.788       67.678        1.281      334.733        4.902      863.922
10/30/2013  10:03:00       33.679       47.153       73.930       53.665       62.244       34.070     2879.881     3874.313     1160.783        0.837        0.396       57.946       35.107        0.367      334.719        4.877      863.925
10/30/2013  10:04:00       59.842      -28.384       36.809       51.957       88.905       56.295     2699.533     7904.045     3169.111        0.975        0.689       66.232       57.622        0.757      334.716        4.872      863.917
10/30/2013  10:05:00       61.298       -5.464       60.717       70.831       80.518       71.575     5017.015     6483.186     5123.012        1.205        0.831       61.541       73.353        1.421      334.755        4.937      863.897
10/30/2013  10:06:00       81.160      -83.255        6.097       58.713       88.234       55.767     3447.178     7785.229     3110.004        1.395        0.717      116.268       57.588        0.245      334.647        4.756      863.887
10/30/2013  10:07:00       83.724      -78.176        6.498       58.520       94.855       58.667     3424.592     8997.457     3441.859        1.451        0.793      114.547       52.865        0.213      334.625        4.721      863.875
10/30/2013  10:08:00       88.076     -113.210      -14.826       58.686       80.361       48.749     3444.079     6457.917     2376.491        1.653        0.614      143.436       52.511        0.134      334.621        4.713      863.882
10/30/2013  10:09:00       62.016       93.392      105.934       71.548       60.659       38.017     5119.154     3679.469     1445.318        1.702        0.512      112.107       31.645        0.080      334.746        4.920      863.881
10/30/2013  10:10:00        5.059       66.245       99.498       53.592       50.272       36.013     2872.141     2527.257     1296.969        1.050        0.335       66.438       30.613        0.212      334.949        5.258      863.874
10/30/2013  10:11:00        3.758       27.359       74.598       58.075       62.361       50.107     3372.694     3888.832     2510.716        0.805        0.489       27.616       43.672        2.501      335.061        5.444      863.878
10/30/2013  10:12:00       63.347      -53.943       21.227       60.453       79.500       58.963     3654.600     6320.323     3476.652        1.041        0.673       83.203       54.496        0.429      334.728        4.893      863.882
10/30/2013  10:13:00       66.161      -61.721      -10.395       65.336       62.603       47.335     4268.812     3919.193     2240.647        0.936        0.521       90.480       51.870        0.329      334.655        4.769      863.898
10/30/2013  10:14:00       57.094      -65.608        7.703       54.736       84.366       44.055     2996.006     7117.704     1940.847        0.984        0.603       86.972       50.660        0.339      334.844        5.084      863.891
10/30/2013  10:15:00       57.945       30.174       73.131       73.308       84.294       60.500     5374.122     7105.406     3660.213        1.288        0.807       65.330       63.856        0.955      334.926        5.220      863.877
10/30/2013  10:16:00       80.338     -103.140       -7.302       58.065       79.028       62.885     3371.542     6245.434     3954.559        1.536        0.679      130.737       49.310        0.142      334.702        4.849      863.877
10/30/2013  10:17:00       41.146      -40.107       48.404       43.649      101.549       56.010     1905.257    10312.140     3137.142        1.050        0.768       57.459       66.074        1.322      334.667        4.792      863.887
10/30/2013  10:18:00       50.583       25.282       29.058       46.573       49.574       32.443     2169.035     2457.546     1052.571        0.486        0.284       56.550       32.384        0.328      334.879        5.142      863.894
10/30/2013  10:19:00       92.205      101.686       89.915       85.221       46.623       46.787     7262.554     2173.682     2189.033        1.927        0.581      137.265       46.879        0.117      334.647        4.757      863.893
10/30/2013  10:20:00       86.166      137.635      125.661       46.916       51.145       28.033     2201.138     2615.806      785.823        2.388        0.280      162.383       23.778        0.021      334.490        4.494      863.893
10/30/2013  10:21:00      113.242      121.617      116.581       61.119       43.970       37.733     3735.491     1933.340     1423.742        2.415        0.355      166.176       31.059        0.035      334.484        4.485      863.909
10/30/2013  10:22:00      121.871       89.915       58.027       49.819       44.582       43.003     2481.885     1987.587     1849.228        1.631        0.316      151.451       29.410        0.038      334.345        4.256      863.939
10/30/2013  10:23:00      106.343       68.946       31.667       57.167       45.274       45.449     3268.024     2049.728     2065.652        1.222        0.369      126.738       26.401        0.043      334.574        4.638      863.972
10/30/2013  10:24:00       98.781       72.259       17.060       65.723       45.118       44.735     4319.461     2035.656     2001.204        1.181        0.418      122.389       20.093        0.027      334.570        4.629      863.964
10/30/2013  10:25:00      122.856      106.556       60.100       44.754       31.251       32.647     2002.928      976.622     1065.841        1.705        0.202      162.627       21.787        0.018      334.504        4.520      863.957
10/30/2013  10:26:00       36.587       64.294       95.242       57.863       69.895       42.553     3348.119     4885.324     1810.740        1.229        0.502       73.976       38.627        0.273      335.092        5.497      863.944
10/30/2013  10:27:00       29.662       38.992       83.366       39.697       62.915       40.612     1575.877     3958.332     1649.375        0.827        0.359       48.992       45.092        0.847      335.185        5.652      863.958
10/30/2013  10:28:00        3.502       17.592       73.713       32.435       73.171       49.498     1052.055     5354.012     2450.033        0.730        0.443       17.937       52.025        8.412      335.317        5.871      863.948
10/30/2013  10:29:00       58.670       86.569       97.073       74.065       76.870       49.692     5485.613     5908.975     2469.308        1.711        0.693      104.577       50.413        0.232      334.735        4.902      863.943
10/30/2013  10:30:00      146.031       72.350       12.116       51.878       36.483       41.492     2691.282     1331.041     1721.558        1.622        0.287      162.971       23.916        0.022      334.432        4.400      863.941
10/30/2013  10:31:00      126.646       88.274       12.293       32.606       27.707       26.493     1063.148      767.650      701.893        1.326        0.127      154.375       14.937        0.009      334.329        4.230      863.934
10/30/2013  10:32:00       38.944       55.617       10.730       51.535       52.287       33.742     2655.907     2733.886     1138.519        0.563        0.326       67.896       29.187        0.185      334.639        4.745      863.927
10/30/2013  10:33:00      -22.770      108.315      -23.356       16.719       24.448       20.156      279.530      597.684      406.282        0.704        0.064      110.683       12.095        0.012      334.429        4.395      863.911
10/30/2013  10:34:00      -21.965       77.677        2.018       19.957       35.265       24.147      398.275     1243.636      583.097        0.437        0.111       80.723       19.733        0.060      335.016        5.371      863.912
10/30/2013  10:35:00       19.271       36.401       14.661       42.620       32.958       23.856     1816.490     1086.260      569.115        0.269        0.174       41.187       21.477        0.272      335.160        5.610      863.912
10/30/2013  10:36:00       20.508       31.041       36.562       53.885       65.387       55.239     2903.539     4275.402     3051.385        0.647        0.512       37.204       46.714        1.577      335.061        5.445      863.903
10/30/2013  10:37:00      114.438      164.255      129.929       96.508       64.571       62.787     9313.743     4169.386     3942.183        3.719        0.871      200.189       60.183        0.090      334.608        4.688      863.900
10/30/2013  10:38:00      110.532      112.685      101.441       64.125       57.910       57.556     4112.006     3353.525     3312.687        2.299        0.539      157.846       50.438        0.102      334.638        4.741      863.911
10/30/2013  10:39:00       86.770       55.624       24.927       79.768       66.518       61.169     6362.889     4424.710     3741.695        1.288        0.726      103.068       48.882        0.225      334.986        5.319      863.905
10/30/2013  10:40:00       97.000       85.357       22.406       61.543       49.857       48.362     3787.488     2485.706     2338.861        1.290        0.431      129.208       37.361        0.084      334.723        4.883      863.915
10/30/2013  10:41:00       38.567       17.380       14.392       68.057       52.926       30.911     4631.805     2801.213      955.477        0.519        0.419       42.302       30.066        0.505      335.140        5.576      863.900
10/30/2013  10:42:00      -30.023      -74.464        5.851       91.250      118.804       51.825     8326.643    14114.488     2685.809        1.580        1.256       80.289       62.278        0.602      334.992        5.330      863.891
10/30/2013  10:43:00        1.309       18.890       97.430       58.748       85.615       54.214     3451.310     7329.953     2939.167        1.178        0.686       18.936       56.742        8.979      335.236        5.736      863.896
10/30/2013  10:44:00      -50.101      -26.378       26.461       41.413       54.133       38.085     1715.058     2930.362     1450.444        0.500        0.305       56.621       33.573        0.352      334.898        5.175      863.925
10/30/2013  10:45:00        6.141      -72.267      -12.083       86.567       86.060       41.515     7493.792     7406.284     1723.523        1.101        0.831       72.528       45.680        0.397      335.068        5.456      863.924
10/30/2013  10:46:00       41.323      -38.035       36.293       71.604      133.401       72.508     5127.087    17795.931     5257.397        1.632        1.409       56.163       83.032        2.186      334.987        5.321      863.920
10/30/2013  10:47:00       47.838       28.559       57.252       75.371       94.847       54.957     5680.725     8996.021     3020.314        1.204        0.885       55.714       46.466        0.696      334.947        5.256      863.895
10/30/2013  10:48:00      127.557      116.633      101.529       83.938       85.691       60.632     7045.536     7342.951     3676.242        2.912        0.903      172.842       61.027        0.125      334.829        5.058      863.889
10/30/2013  10:49:00      125.998       81.517       53.375       89.229       66.359       51.541     7961.859     4403.480     2656.512        2.019        0.751      150.068       45.566        0.092      334.687        4.822      863.894
10/30/2013  10:50:00       86.465       39.357       49.234       69.871      116.804       60.015     4881.892    13643.085     3601.854        1.678        1.106       95.001       60.887        0.411      334.821        5.045      863.903
10/30/2013  10:51:00       13.159        8.546       58.992       43.080       68.540       55.407     1855.913     4697.670     3069.969        0.667        0.481       15.691       51.605       10.816      335.417        6.038      863.892
10/30/2013  10:52:00      132.416      100.101       31.613       47.977       40.145       51.179     2301.790     1611.624     2619.297        1.754        0.327      165.995       23.860        0.021      334.533        4.567      863.894
10/30/2013  10:53:00       -7.265      -11.865        5.764       62.893       53.841       31.094     3955.490     2898.904      966.853        0.402        0.391       13.912       25.828        3.447      334.944        5.250      863.884
10/30/2013  10:54:00       23.854        4.549       51.805       64.955       78.953       40.417     4219.127     6233.510     1633.523        0.768        0.604       24.284       39.273        2.615      335.432        6.063      863.877
10/30/2013  10:55:00       64.720       30.113       88.003       74.521      133.890       86.656     5553.414    17926.636     7509.293        2.191        1.549       71.383      102.988        2.082      335.087        5.486      863.867
10/30/2013  10:56:00      132.405       56.263       44.838       61.197       78.866       56.608     3745.121     6219.777     3204.464        1.794        0.658      143.863       19.049        0.018      334.860        5.110      863.883
10/30/2013  10:57:00       52.925       42.927       63.752       67.051       77.403       45.857     4495.798     5991.196     2102.836        1.065        0.629       68.146       40.897        0.360      335.084        5.484      863.893
10/30/2013  10:58:00       58.723      -70.655       32.199       70.127       94.235       68.314     4917.857     8880.159     4666.860        1.397        0.923       91.872       67.184        0.535      335.380        5.975      863.892
10/30/2013  10:59:00       26.933      -18.177       43.556       63.102       62.385       50.815     3981.868     3891.919     2582.150        0.670        0.523       32.493       42.936        1.746      335.562        6.279      863.888
10/30/2013  11:00:00       61.501      -96.814      -15.575       51.019       58.798       37.347     2602.980     3457.257     1394.799        1.043        0.373      114.697       28.048        0.060      335.089        5.493      863.873
10/30/2013  11:01:00       26.493       15.648       13.694       46.878       73.291       33.104     2197.560     5371.596     1095.868        0.490        0.433       30.769       22.837        0.551      335.302        5.846      863.875
10/30/2013  11:02:00       11.846       88.662       -4.632       47.769       61.989       37.133     2281.906     3842.642     1378.828        0.776        0.375       89.449       34.704        0.151      335.047        5.421      863.864
10/30/2013  11:03:00       62.873       58.174       49.736       53.598       56.117       46.641     2872.763     3149.155     2175.393        0.900        0.410       85.658       36.698        0.184      335.215        5.702      863.866
10/30/2013  11:04:00       47.050       47.329       45.607       47.507       36.639       33.464     2256.874     1342.402     1119.830        0.563        0.236       66.737       24.384        0.133      335.110        5.527      863.880
10/30/2013  11:05:00       85.380       67.504       20.579       35.972       38.685       39.223     1293.962     1496.503     1538.465        0.830        0.216      108.842       15.713        0.021      335.358        5.938      863.880
10/30/2013  11:06:00        3.659       64.570       89.719       39.419       45.473       32.354     1553.882     2067.785     1046.802        0.845        0.233       64.673       28.875        0.199      335.675        6.466      863.872
10/30/2013  11:07:00      122.200      127.286      108.881      109.728       66.066       70.160    12040.165     4364.698     4922.365        3.215        1.066      176.450       70.170        0.158      335.098        5.502      863.851
10/30/2013  11:08:00       99.779      163.142      142.930       88.316       67.469       52.428     7799.688     4552.112     2748.689        3.605        0.755      191.236       28.844        0.023      334.815        5.033      863.847
10/30/2013  11:09:00      140.804      145.683      120.227       84.616       81.868       71.439     7159.804     6702.367     5103.595        3.723        0.948      202.606       69.466        0.118      334.698        4.839      863.843
10/30/2013  11:10:00       75.540       93.986       97.992       63.633       78.656       61.756     4049.111     6186.794     3813.766        1.909        0.702      120.580       50.548        0.176      335.022        5.378      863.837
10/30/2013  11:11:00       62.209       87.473       69.823       64.883       53.044       50.737     4209.789     2813.695     2574.272        1.300        0.480      107.339       43.359        0.163      335.362        5.943      863.826
10/30/2013  11:12:00       81.906      -41.978       44.037       55.069       65.981       42.165     3032.632     4353.446     1777.920        0.979        0.458       92.037       38.639        0.176      335.210        5.692      863.826
10/30/2013  11:13:00       35.932        8.031       59.685       39.968       50.863       35.441     1597.435     2587.037     1256.084        0.518        0.272       36.819       20.961        0.324      335.382        5.979      863.823
10/30/2013  11:14:00       -0.711      -15.700        4.327       38.211       50.657       29.635     1460.051     2566.131      878.246        0.258        0.245       15.716       28.125        3.203      335.468        6.124      863.800
10/30/2013  11:15:00        3.418        9.681       54.854       21.908       62.021       36.412      479.981     3846.562     1325.843        0.438        0.283       10.267       23.130        5.075      335.856        6.770      863.791
10/30/2013  11:16:00       77.162      110.517       91.736       89.015       72.781       66.899     7923.680     5297.104     4475.484        2.214        0.885      134.788       55.856        0.172      335.475        6.132      863.787
10/30/2013  11:17:00      132.368      114.056       71.403       57.744       53.920       53.633     3334.324     2907.339     2876.524        2.237        0.456      174.729       33.082        0.036      334.909        5.190      863.805
10/30/2013  11:18:00       50.600       63.337       81.287       70.910       49.392       46.528     5028.272     2439.600     2164.834        1.140        0.482       81.068       41.517        0.262      335.240        5.743      863.817
10/30/2013  11:19:00      181.241       69.349       76.104       65.398       59.349       64.995     4276.846     3522.352     4224.357        2.773        0.601      194.056       48.622        0.063      334.881        5.143      863.795
10/30/2013  11:20:00       69.728      -12.027       -2.421       45.654       53.210       29.793     2084.278     2831.288      887.648        0.541        0.290       70.757       18.876        0.071      334.895        5.170      863.794
10/30/2013  11:21:00        9.589       -6.453       51.508       30.317       63.679       25.211      919.123     4055.067      635.581        0.420        0.280       11.558       28.917        6.259      335.524        6.215      863.768
10/30/2013  11:22:00       26.566       35.758       34.732       60.268       26.971       38.065     3632.178      727.430     1448.923        0.450        0.290       44.546       24.615        0.305      335.684        6.483      863.761
10/30/2013  11:23:00       46.730       88.053        0.980       40.887       53.378       45.774     1671.742     2849.177     2095.252        0.828        0.331       99.684       34.336        0.119      335.418        6.037      863.764
10/30/2013  11:24:00      -19.034      157.571      -21.181       36.057       38.631       34.448     1300.103     1492.383     1186.685        1.481        0.199      158.717       29.820        0.035      334.954        5.268      863.779
10/30/2013  11:25:00       -9.457       97.955       -9.134       32.572       54.475       22.733     1060.937     2967.545      516.807        0.716        0.227       98.411       19.608        0.040      335.196        5.671      863.776
10/30/2013  11:26:00        2.413       13.533       14.167       23.727       22.785       20.280      562.963      519.134      411.271        0.094        0.075       13.746       10.281        0.559      335.474        6.131      863.786
10/30/2013  11:27:00      -61.046       39.926       -1.839       31.193       41.350       34.075      972.990     1709.840     1161.112        0.458        0.192       72.943       16.568        0.052      335.291        5.829      863.788
10/30/2013  11:28:00      -20.024      148.075      -27.830       47.125       71.248       41.386     2220.760     5076.287     1712.828        1.605        0.450      149.423       27.152        0.033      335.034        5.400      863.806
10/30/2013  11:29:00      -13.350       24.850       17.895       40.921       40.289       34.991     1674.501     1623.174     1224.396        0.282        0.226       28.209        6.889        0.060      335.538        6.240      863.827
10/30/2013  11:30:00     -117.287      -93.694        6.813       83.079       64.123       44.045     6902.195     4111.818     1939.952        1.777        0.648      150.116       47.567        0.100      335.253        5.762      863.827
10/30/2013  11:31:00     -112.966      -35.128       -5.398       46.165       27.697       18.696     2131.184      767.146      349.550        0.864        0.162      118.302       18.143        0.024      334.980        5.310      863.855
10/30/2013  11:32:00      -14.053       16.222        5.320       18.493       27.809       25.959      341.998      773.328      673.886        0.114        0.089       21.462       13.111        0.373      335.671        6.461      863.852
10/30/2013  11:33:00      -24.945      -11.503       -6.607       27.132       34.419       15.656      736.149     1184.684      245.116        0.148        0.108       27.469       10.790        0.154      335.525        6.216      863.843
10/30/2013  11:34:00       11.771       20.066       10.548       44.433       43.208       24.039     1974.322     1866.970      577.874        0.254        0.221       23.263       13.805        0.352      335.948        6.922      863.847
10/30/2013  11:35:00        1.278      102.931       -5.148       27.988       55.599       31.548      783.345     3091.248      995.248        0.775        0.243      102.939       36.019        0.122      335.675        6.469      863.854
10/30/2013  11:36:00       -7.738       31.875        5.293       35.209       42.734       25.377     1239.641     1826.230      644.005        0.241        0.185       32.800        9.710        0.088      336.035        7.068      863.859
10/30/2013  11:37:00      137.536       91.090       25.188       63.103       50.639       51.461     3981.982     2564.329     2648.259        1.852        0.460      164.965       38.691        0.055      335.617        6.369      863.852
10/30/2013  11:38:00      211.647      140.451       19.582       62.185       62.040       49.345     3866.970     3848.979     2434.938        3.753        0.508      254.010       25.051        0.010      335.144        5.581      863.834
10/30/2013  11:39:00      166.035       79.150        2.395       43.190       55.505       41.264     1865.339     3080.854     1702.749        2.024        0.332      183.936       15.177        0.007      335.039        5.408      863.838
10/30/2013  11:40:00      119.769       69.316       20.891       65.006       53.887       40.807     4225.840     2903.825     1665.181        1.419        0.440      138.381       26.172        0.036      335.302        5.846      863.806
10/30/2013  11:41:00        8.285       67.808       62.581       46.330       47.633       47.204     2146.430     2268.873     2228.254        0.761        0.332       68.313       32.858        0.231      336.039        7.074      863.777
10/30/2013  11:42:00       -3.356      111.317       -5.333       41.261       60.986       35.657     1702.495     3719.246     1271.428        0.956        0.335      111.367       34.477        0.096      335.523        6.214      863.784
10/30/2013  11:43:00      -65.821       66.881      -21.775       41.392       51.585       26.939     1713.312     2660.983      725.699        0.719        0.255       93.837       19.521        0.043      335.259        5.775      863.808
10/30/2013  11:44:00      -56.560       73.517      -19.831       26.188       46.370       19.129      685.796     2150.159      365.910        0.610        0.160       92.757       11.041        0.014      335.205        5.685      863.814
10/30/2013  11:45:00      -58.041       69.493      -29.192       22.426       33.831       15.017      502.935     1144.557      225.511        0.546        0.094       90.543        8.692        0.009      335.055        5.437      863.821
10/30/2013  11:46:00      -25.248       10.807       -7.207       26.211       35.533       24.608      686.996     1262.597      605.555        0.168        0.128       27.464       19.028        0.480      335.305        5.851      863.814
10/30/2013  11:47:00      -17.341      -17.261        0.983       17.813       27.431       19.271      317.306      752.436      371.357        0.102        0.072       24.468       17.357        0.503      335.559        6.274      863.803
10/30/2013  11:48:00      -52.830      -39.548        9.810       25.968       34.181       30.452      674.342     1168.320      927.297        0.361        0.138       65.993       17.732        0.072      335.563        6.279      863.784
10/30/2013  11:49:00       31.913      -22.285       31.425       74.048       66.295       40.922     5483.100     4394.978     1674.641        0.703        0.578       38.924       31.119        0.639      336.062        7.113      863.768
10/30/2013  11:50:00       28.907       36.898       79.871       57.404       87.471       44.207     3295.258     7651.236     1954.275        1.074        0.645       46.873       50.357        1.154      335.715        6.534      863.745
10/30/2013  11:51:00       70.399       69.051       60.804       45.846       24.634       32.560     2101.853      606.843     1060.145        0.859        0.188       98.610       21.844        0.049      335.510        6.191      863.735
10/30/2013  11:52:00       33.775       35.180       69.442       50.180       57.296       34.232     2518.019     3282.781     1171.814        0.709        0.349       48.769       35.516        0.530      335.813        6.698      863.727
10/30/2013  11:53:00       -7.329       58.485       91.419       32.121       52.498       62.273     1031.780     2756.069     3877.985        0.975        0.383       58.943       46.676        0.627      336.269        7.458      863.720
10/30/2013  11:54:00       16.604       11.574       54.619       49.589       52.556       42.578     2459.092     2762.128     1812.891        0.521        0.352       20.240       45.510        5.056      336.082        7.145      863.723
10/30/2013  11:55:00       83.893     -106.185       13.584       68.110       86.310       47.815     4639.031     7449.438     2286.317        1.643        0.719      135.327       53.487        0.156      335.569        6.290      863.708
10/30/2013  11:56:00       93.275       80.083       15.320       67.993       76.050       47.322     4623.092     5783.657     2239.353        1.400        0.632      122.938       35.350        0.083      336.221        7.375      863.713
10/30/2013  11:57:00       89.296      101.859        2.763       75.601       63.406       55.099     5715.463     4020.311     3035.921        1.556        0.639      135.458       32.208        0.057      335.661        6.442      863.724
10/30/2013  11:58:00       72.021       77.291       10.069       63.923       56.871       48.022     4086.099     3234.275     2306.101        1.044        0.481      105.645       39.485        0.140      335.515        6.201      863.732
10/30/2013  11:59:00      113.620       90.443        0.406       95.318       68.969       45.099     9085.468     4756.746     2033.886        1.848        0.794      145.222       39.182        0.073      335.495        6.165      863.715
10/30/2013  12:00:00      106.259       76.584       23.335       69.424       46.845       39.183     4819.751     2194.448     1535.309        1.312        0.427      130.981       35.291        0.073      335.556        6.269      863.715
10/30/2013  12:01:00       -5.172        0.863       63.613       37.809       59.015       36.521     1429.516     3482.786     1333.815        0.516        0.312        5.244       39.840       57.728      336.180        7.310      863.703
10/30/2013  12:02:00       89.849       73.451       57.538      104.669       51.273       54.442    10955.538     2628.911     2963.906        1.666        0.827      116.051       61.561        0.281      335.872        6.796      863.699
10/30/2013  12:03:00      125.680       76.689        8.586       63.019       38.509       36.150     3971.364     1482.923     1306.840        1.425        0.338      147.230       20.650        0.020      335.729        6.555      863.719
10/30/2013  12:04:00       46.991       92.317       15.831       51.883       57.243       46.080     2691.869     3276.799     2123.391        0.954        0.405      103.588       40.451        0.152      336.088        7.154      863.713
10/30/2013  12:05:00       71.125       82.454       12.542       62.196       54.144       43.916     3868.355     2931.621     1928.628        1.037        0.436      108.892       31.027        0.081      335.877        6.804      863.723
10/30/2013  12:06:00       34.757      103.998        8.229       54.269       74.574       47.418     2945.124     5561.268     2248.436        1.142        0.538      109.653       47.266        0.186      335.754        6.599      863.698
10/30/2013  12:07:00       -4.840       85.698        4.925       47.232       91.770       34.082     2230.839     8421.724     1161.578        0.960        0.591       85.834       38.368        0.200      335.959        6.940      863.664
10/30/2013  12:08:00      -46.577      109.228       -4.274       42.598       67.727       40.190     1814.608     4586.903     1615.238        1.107        0.401      118.744       36.840        0.096      335.876        6.802      863.647
10/30/2013  12:09:00        6.494       35.841       20.494       51.814       33.322       25.062     2684.740     1110.330      628.079        0.308        0.221       36.424       20.770        0.325      336.155        7.268      863.628
10/30/2013  12:10:00       69.012       73.687        8.615       45.444       48.383       48.637     2065.144     2340.912     2365.572        0.852        0.339      100.957       38.529        0.146      335.710        6.526      863.612
10/30/2013  12:11:00      107.781       72.802       23.477       53.285       43.565       44.188     2839.322     1897.942     1952.594        1.208        0.334      130.065       30.515        0.055      335.823        6.713      863.596
10/30/2013  12:12:00       61.737       49.401       17.056       63.519       41.389       39.917     4034.606     1713.084     1593.342        0.694        0.367       79.069       22.121        0.078      336.431        7.728      863.580
10/30/2013  12:13:00       87.201       86.479       18.171       50.345       50.352       42.373     2534.595     2535.342     1795.481        1.114        0.343      122.811       19.127        0.024      336.232        7.395      863.571
10/30/2013  12:14:00       74.727       70.031       76.410       85.422       70.743       57.042     7296.915     5004.614     3253.769        1.594        0.778      102.413       44.929        0.192      336.408        7.687      863.556
10/30/2013  12:15:00      115.725      126.901       87.830       78.590       64.101       77.247     6176.313     4108.993     5967.166        2.673        0.813      171.744       59.102        0.118      335.872        6.792      863.543
10/30/2013  12:16:00       96.859       84.627       45.899       67.353       51.514       55.778     4536.360     2653.706     3111.145        1.447        0.515      128.621       36.390        0.080      335.864        6.782      863.546
10/30/2013  12:17:00       10.717      121.270      138.116       38.332       63.930       47.640     1469.379     4087.088     2269.592        2.086        0.391      121.743       48.466        0.158      335.839        6.738      863.535
10/30/2013  12:18:00      154.369      109.495       63.678       58.391       57.943       68.273     3409.564     3357.402     4661.194        2.565        0.571      189.259       44.382        0.055      335.736        6.565      863.534
10/30/2013  12:19:00       70.965       97.076       56.984       57.912       45.740       70.423     3353.824     2092.145     4959.362        1.405        0.520      120.249       52.974        0.194      335.747        6.586      863.534
10/30/2013  12:20:00      103.569      117.462      104.485       59.588       51.484       50.450     3550.754     2650.607     2545.249        2.209        0.437      156.601       35.623        0.052      335.673        6.462      863.515
10/30/2013  12:21:00      100.610       84.096       77.403       63.329       63.506       48.172     4010.622     4032.979     2320.578        1.677        0.518      131.128       26.845        0.042      335.913        6.863      863.498
10/30/2013  12:22:00       96.760       58.860       11.366       61.314       43.824       45.471     3759.449     1920.523     2067.614        1.035        0.387      113.256       27.366        0.058      335.892        6.828      863.503
10/30/2013  12:23:00       40.713      140.253        1.288       62.041       84.149       49.215     3849.117     7081.012     2422.087        1.734        0.668      146.043       49.734        0.116      335.909        6.856      863.483
10/30/2013  12:24:00       32.238       91.719       -4.568       39.077       52.280       38.831     1527.012     2733.236     1507.848        0.762        0.288       97.220       36.294        0.139      335.847        6.754      863.463
10/30/2013  12:25:00       31.056      113.678       -8.821       30.981       62.881       34.677      959.841     3954.020     1202.513        1.004        0.306      117.844       37.294        0.100      335.799        6.674      863.448
10/30/2013  12:26:00       12.914       57.123      -18.881       21.331       45.362       16.987      455.002     2057.674      288.573        0.329        0.140       58.565        9.576        0.027      335.629        6.389      863.437
10/30/2013  12:27:00       40.950        4.263        6.290       34.638       25.984       23.914     1199.811      675.169      571.867        0.209        0.122       41.171       16.975        0.170      335.924        6.882      863.420
10/30/2013  12:28:00       75.126       42.278        1.672       30.129       26.339       31.821      907.762      693.755     1012.570        0.502        0.131       86.205       15.352        0.032      335.802        6.679      863.403
10/30/2013  12:29:00       32.273       30.857       15.993       33.639       16.613       19.744     1131.565      275.998      389.823        0.202        0.090       44.650       18.914        0.179      335.759        6.607      863.385
10/30/2013  12:30:00       -7.866       13.258       13.904       16.172       23.470       22.465      261.535      550.850      504.691        0.087        0.066       15.416       18.387        1.423      336.586        7.987      863.373
10/30/2013  12:31:00      -27.878        5.085       10.360       70.630       30.963       21.723     4988.551      958.687      471.902        0.366        0.321       28.338       19.565        0.477      336.133        7.230      863.365
10/30/2013  12:32:00     -104.117      -19.632       -1.218       60.772       39.732       28.392     3693.243     1578.593      806.099        0.865        0.304      105.952       29.390        0.077      336.036        7.069      863.331
10/30/2013  12:33:00     -120.861      -12.850        2.616       43.489       41.877       27.841     1891.265     1753.686      775.115        0.960        0.221      121.542       20.641        0.029      335.873        6.796      863.303
10/30/2013  12:34:00      -73.316      -45.725       -7.629       42.042       19.635       23.897     1767.559      385.516      571.046        0.512        0.136       86.406       20.884        0.058      335.714        6.533      863.285
10/30/2013  12:35:00      -17.600      -45.514        1.133       25.603       21.906       20.753      655.534      479.853      430.688        0.197        0.078       48.798       16.333        0.112      335.846        6.753      863.261
10/30/2013  12:36:00       -6.106      -32.053       12.857       28.274       26.371       18.778      799.435      695.420      352.598        0.154        0.092       32.630       18.011        0.305      336.119        7.207      863.241
10/30/2013  12:37:00       35.471       51.301       64.356       49.402       33.894       31.775     2440.554     1148.810     1009.631        0.631        0.230       62.370       29.850        0.229      336.566        7.954      863.225
10/30/2013  12:38:00       75.416      108.280      108.859       69.788       59.066       52.081     4870.356     3488.805     2712.398        2.017        0.554      131.955       40.598        0.095      336.402        7.678      863.205
10/30/2013  12:39:00      152.635        3.549       34.518       63.785       82.457       42.081     4068.488     6799.203     1770.841        1.857        0.632      152.676       32.638        0.046      335.747        6.584      863.204
10/30/2013  12:40:00       23.308       -7.445       33.742       26.993       48.907       35.847      728.628     2391.908     1285.003        0.307        0.220       24.468       25.726        1.105      336.351        7.595      863.211
10/30/2013  12:41:00      -49.683       83.627      -14.559       68.864       79.607       42.287     4742.283     6337.196     1788.176        1.127        0.643       97.272       22.510        0.054      335.905        6.851      863.205
10/30/2013  12:42:00       11.813        9.950       24.878       47.257       26.539       21.762     2233.226      704.310      473.567        0.213        0.171       15.445       19.658        1.620      336.637        8.073      863.186
10/30/2013  12:43:00       63.415      111.189      107.326       60.496       46.389       35.941     3659.781     2151.982     1291.757        1.750        0.355      128.002       34.242        0.072      336.232        7.394      863.182
10/30/2013  12:44:00       81.541       48.763       59.786       50.661       39.857       45.263     2566.498     1588.565     2048.727        0.940        0.310       95.009       22.794        0.058      336.242        7.411      863.156
10/30/2013  12:45:00       91.602      -84.325       14.595       70.233      100.476       49.851     4932.691    10095.329     2485.081        1.661        0.876      124.505       53.432        0.184      336.421        7.710      863.129
10/30/2013  12:46:00       27.551        5.513       71.515       49.645       60.424       52.239     2464.661     3651.083     2728.903        0.737        0.442       28.097       40.452        2.073      336.752        8.266      863.108
10/30/2013  12:47:00      137.545     -195.986       -5.048       99.645      113.333       69.035     9929.192    12844.438     4765.884        4.244        1.377      239.435       92.257        0.148      336.241        7.408      863.064
10/30/2013  12:48:00       40.626      -90.590        1.555      107.922       63.539       46.980    11647.217     4037.245     2207.100        1.387        0.895       99.282       41.220        0.172      336.576        7.969      863.048
10/30/2013  12:49:00       45.903      -16.010       26.235       59.425       60.253       36.355     3531.290     3630.448     1321.714        0.577        0.424       48.615       38.245        0.619      336.794        8.334      863.036
10/30/2013  12:50:00      -17.215      -28.939       31.974       32.429       68.432       42.204     1051.615     4682.895     1781.146        0.483        0.376       33.673       40.473        1.445      336.846        8.423      862.998
10/30/2013  12:51:00       36.756      -15.773       43.957       38.623       77.967       52.694     1491.708     6078.923     2776.707        0.694        0.517       39.998       57.691        2.080      336.518        7.876      862.991
10/30/2013  12:52:00       68.157     -142.725      -10.311       49.388       81.097       35.901     2439.127     6576.707     1288.906        1.771        0.515      158.164       37.511        0.056      336.153        7.263      862.970
10/30/2013  12:53:00       78.564     -105.198       -8.845       47.961       75.413       45.144     2300.276     5687.097     2038.012        1.367        0.501      131.297       43.521        0.110      336.429        7.724      862.944
10/30/2013  12:54:00       95.018       -5.623       23.757       69.770       65.258       53.181     4867.844     4258.610     2828.231        1.079        0.598       95.185       48.641        0.261      336.403        7.682      862.933
10/30/2013  12:55:00       -1.309      -19.375       24.514       49.793       54.970       30.708     2479.327     3021.691      942.990        0.371        0.322       19.419       21.595        1.237      336.776        8.304      862.922
10/30/2013  12:56:00      -11.974       24.865       26.995       23.369       35.494       26.748      546.095     1259.853      715.453        0.201        0.126       27.598       17.956        0.423      337.080        8.814      862.918
10/30/2013  12:57:00        3.461       34.819       13.920       30.473       30.141       31.364      928.582      908.488      983.717        0.212        0.141       34.991       21.139        0.365      336.967        8.625      862.913
10/30/2013  12:58:00       12.629       94.325      111.242       56.801       63.296       53.342     3226.335     4006.343     2845.377        1.575        0.504       95.167       47.737        0.252      336.558        7.939      862.914
10/30/2013  12:59:00       59.097       73.477       66.323       51.942       45.982       36.201     2698.012     2114.350     1310.534        0.971        0.306       94.293       28.932        0.094      336.159        7.273      862.935
10/30/2013  13:00:00       42.563       35.694       54.580       42.484       67.905       45.839     1804.920     4611.146     2101.219        0.729        0.426       55.549       51.675        0.865      336.478        7.807      862.922
10/30/2013  13:01:00      136.083      131.241      103.668       89.499       58.031       58.227     8010.044     3367.649     3390.344        3.063        0.738      189.057       41.225        0.048      336.286        7.483      862.892
10/30/2013  13:02:00       44.951       60.721       82.319       66.430       57.661       52.193     4412.956     3324.782     2724.160        1.147        0.523       75.549       38.030        0.253      336.743        8.250      862.875
10/30/2013  13:03:00      155.860      143.881      108.920      109.703       77.132       74.729    12034.682     5949.288     5584.375        4.021        1.178      212.117       61.928        0.085      336.414        7.695      862.861
10/30/2013  13:04:00       81.692      119.048       75.891       69.370       54.272       68.493     4812.258     2945.492     4691.279        1.953        0.622      144.381       53.121        0.135      336.193        7.330      862.875
10/30/2013  13:05:00        2.611        1.523        8.561       32.497       31.199       19.782     1056.023      973.374      391.319        0.125        0.121        3.022       13.158       18.952      336.407        7.689      862.857
10/30/2013  13:06:00        4.907       85.189       88.476       31.501       50.656       53.820      992.340     2565.993     2896.607        1.078        0.323       85.330       43.972        0.266      336.715        8.202      862.837
10/30/2013  13:07:00      123.316      108.952       61.184       44.495       31.007       45.942     1979.762      961.454     2110.683        1.794        0.253      164.551       24.463        0.022      336.194        7.331      862.824
10/30/2013  13:08:00       25.866       51.675       12.768       40.624       33.261       22.688     1650.317     1106.299      514.729        0.339        0.164       57.787       22.013        0.145      336.184        7.315      862.799
10/30/2013  13:09:00       15.063       94.451       -8.735       46.324       68.689       39.432     2145.915     4718.135     1554.890        0.882        0.421       95.645       42.469        0.197      336.591        7.995      862.766
10/30/2013  13:10:00      101.113       78.539       16.643       50.503       55.161       43.811     2550.551     3042.695     1919.402        1.209        0.376      128.032       34.861        0.074      336.392        7.663      862.749
10/30/2013  13:11:00       50.000       68.269        4.210       28.688       39.722       35.736      822.977     1577.861     1277.027        0.543        0.184       84.620       24.716        0.085      336.367        7.620      862.737
10/30/2013  13:12:00       67.020       15.436       21.268       51.645       45.646       35.244     2667.200     2083.518     1242.135        0.559        0.300       68.774       33.733        0.241      336.703        8.183      862.729
10/30/2013  13:13:00       29.139      -43.291       27.034       68.487       88.714       54.865     4690.476     7870.262     3010.122        0.951        0.779       52.185       58.949        1.276      336.866        8.454      862.711
10/30/2013  13:14:00       72.253     -138.340       15.569      108.376       93.928       67.035    11745.381     8822.380     4493.676        2.483        1.253      156.072       78.270        0.252      336.801        8.345      862.707
10/30/2013  13:15:00       90.852     -186.281      -24.117       59.068       49.350       35.978     3488.992     2435.446     1294.400        2.538        0.361      207.255       23.857        0.013      336.215        7.365      862.708
10/30/2013  13:16:00      -22.887     -103.636       -2.041       68.573       76.268       36.804     4702.201     5816.755     1354.515        1.157        0.594      106.133       20.455        0.037      336.899        8.510      862.677
10/30/2013  13:17:00      -23.309      -28.798       38.831       31.563       54.811       26.176      996.216     3004.252      685.164        0.378        0.234       37.049       21.216        0.328      337.263        9.120      862.662
10/30/2013  13:18:00       66.064       65.412       29.045       81.309       66.972       40.054     6611.229     4485.253     1604.333        1.109        0.635       92.969       31.124        0.112      336.664        8.118      862.652
10/30/2013  13:19:00      200.189      122.366        9.633       60.083       67.027       52.787     3609.939     4492.618     2786.464        3.301        0.544      234.626       26.402        0.013      336.522        7.876      862.644
10/30/2013  13:20:00       45.948       63.952       63.692       70.621       62.170       37.956     4987.291     3865.140     1440.672        1.027        0.515       78.746       23.105        0.086      337.134        8.903      862.642
10/30/2013  13:21:00       58.031       22.363       18.460       68.223       38.086       31.551     4654.316     1450.543      995.458        0.565        0.355       62.191       34.280        0.304      337.134        8.903      862.634
10/30/2013  13:22:00       31.484       56.697        8.322       33.880       34.176       26.685     1147.851     1167.988      712.065        0.365        0.151       64.853       23.789        0.135      336.790        8.328      862.633
10/30/2013  13:23:00       47.600       35.176       14.600       51.900       35.066       37.501     2693.618     1229.630     1406.307        0.452        0.266       59.187       32.233        0.297      337.057        8.775      862.623
10/30/2013  13:24:00       50.930       68.266       -2.171       43.766       49.803       42.650     1915.480     2480.314     1819.024        0.674        0.311       85.171       36.029        0.179      336.953        8.602      862.617
10/30/2013  13:25:00       47.518       60.009       21.246       44.476       40.944       34.446     1978.104     1676.437     1186.534        0.557        0.242       76.545       27.524        0.129      336.531        7.894      862.618
10/30/2013  13:26:00       24.705       79.837      -12.923       22.006       33.686       21.119      484.275     1134.774      446.028        0.461        0.103       83.572       17.214        0.042      336.475        7.801      862.619
10/30/2013  13:27:00      -20.848      135.755      -19.897       36.705       37.280       20.251     1347.226     1389.816      410.091        1.120        0.157      137.346       16.916        0.015      336.521        7.880      862.624
10/30/2013  13:28:00       -0.198       64.143       10.339       55.301       42.619       30.840     3058.242     1816.379      951.131        0.502        0.291       64.143       24.277        0.143      337.035        8.738      862.611
10/30/2013  13:29:00       14.431       81.624       -6.090       41.084       37.359       28.791     1687.907     1395.722      828.926        0.541        0.196       82.890       23.169        0.078      336.990        8.663      862.599
10/30/2013  13:30:00      -34.907      -19.103       -4.051       33.467       37.036       26.013     1120.018     1371.646      676.691        0.238        0.158       39.792       22.365        0.316      336.958        8.610      862.602
10/30/2013  13:31:00       28.491       60.423       84.567       93.425       61.489       60.404     8728.243     3780.846     3648.605        1.388        0.808       66.803       45.381        0.461      337.024        8.717      862.586
10/30/2013  13:32:00       75.131       31.153       55.913       54.410       56.707       37.449     2960.498     3215.689     1402.398        0.866        0.379       81.334       34.518        0.180      336.760        8.278      862.594
10/30/2013  13:33:00       52.442      -77.273        5.654       36.886       76.143       21.966     1360.541     5797.683      482.501        0.820        0.382       93.388       27.899        0.089      336.548        7.923      862.591
10/30/2013  13:34:00        4.546       21.951       26.102       40.651       41.216       34.760     1652.539     1698.725     1208.240        0.287        0.228       22.417       31.385        1.960      337.060        8.778      862.586
10/30/2013  13:35:00      101.187       90.048       46.342       59.935       28.800       41.530     3592.145      829.443     1724.753        1.332        0.307      135.452       37.480        0.077      336.514        7.867      862.572
10/30/2013  13:36:00       84.432      118.879       -8.922       41.259       60.737       38.510     1702.295     3688.957     1483.035        1.411        0.344      145.811       41.037        0.079      336.648        8.091      862.577
10/30/2013  13:37:00       -6.614      253.647      -25.735       31.242       81.011       32.720      976.046     6562.710     1070.628        3.682        0.430      253.733       34.869        0.019      336.643        8.079      862.570
10/30/2013  13:38:00      -18.463      161.277      -17.708       26.125       50.651       25.647      682.507     2565.496      657.748        1.528        0.195      162.331       21.722        0.018      336.584        7.982      862.575
10/30/2013  13:39:00      -48.033      191.311      -26.128       56.508       68.789       28.586     3193.175     4731.871      817.145        2.416        0.437      197.248       31.377        0.025      336.755        8.269      862.581
10/30/2013  13:40:00      -64.841      137.031      -17.016       35.477       53.418       31.044     1258.636     2853.464      963.702        1.417        0.254      151.598       22.440        0.022      336.881        8.479      862.592
10/30/2013  13:41:00      -29.999      106.902       -7.221       43.560       43.823       32.795     1897.475     1920.479     1075.521        0.864        0.245      111.032       26.620        0.057      337.052        8.766      862.592
10/30/2013  13:42:00      -16.474      153.199      -19.217       34.907       45.425       21.933     1218.523     2063.396      481.042        1.394        0.188      154.082       16.912        0.012      336.556        7.937      862.598
10/30/2013  13:43:00      -30.102       75.058       -9.307       37.480       30.218       24.667     1404.715      913.105      608.462        0.478        0.146       80.869       17.760        0.048      336.869        8.461      862.582
10/30/2013  13:44:00      -39.839       63.829      -21.477       33.839       28.265       25.431     1145.048      798.912      646.753        0.436        0.130       75.242       12.131        0.026      336.780        8.313      862.563
10/30/2013  13:45:00      -11.577       -5.095      -13.457       16.652       22.920       16.281      277.288      525.336      265.062        0.070        0.053       12.648       13.367        1.117      337.147        8.923      862.539
10/30/2013  13:46:00      -35.674        0.222      -11.242       25.509       28.798       24.658      650.713      829.349      607.998        0.174        0.104       35.675       10.837        0.092      336.911        8.530      862.527
10/30/2013  13:47:00      -21.185      -35.925       -8.832       28.536       29.685       28.575      814.323      881.213      816.503        0.216        0.126       41.706       18.133        0.189      336.891        8.498      862.526
10/30/2013  13:48:00      -50.235        4.657      -14.469       45.117       34.247       33.039     2035.542     1172.879     1091.549        0.353        0.215       50.451       21.333        0.179      336.939        8.577      862.526
10/30/2013  13:49:00      -76.602      -50.032       -5.883       66.777       32.919       29.767     4459.173     1083.679      886.062        0.742        0.321       91.493       13.939        0.023      337.075        8.805      862.507
10/30/2013  13:50:00      -41.841      -56.307       -5.152       57.378       39.197       33.307     3292.280     1536.391     1109.328        0.544        0.297       70.151       28.123        0.161      337.132        8.901      862.499
10/30/2013  13:51:00      -79.783      -69.658       -8.809       51.954       50.442       29.391     2699.240     2544.440      863.829        0.870        0.305      105.913       20.307        0.037      336.916        8.538      862.488
10/30/2013  13:52:00      -92.629      -36.074       -4.899       45.588       32.679       22.054     2078.264     1067.897      486.376        0.677        0.182       99.405       19.546        0.039      336.835        8.404      862.472
10/30/2013  13:53:00      -12.904       16.898       25.301       22.072       20.511       18.320      487.189      420.708      335.624        0.117        0.062       21.262       12.917        0.369      337.573        9.639      862.475
10/30/2013  13:54:00       62.014       78.388       66.073       63.371       49.855       64.071     4015.842     2485.568     4105.146        1.248        0.530       99.952       43.042        0.185      337.478        9.478      862.462
10/30/2013  13:55:00       62.020      107.976       77.550       70.012       43.971       51.888     4901.712     1933.411     2692.314        1.552        0.476      124.521       45.662        0.134      337.135        8.906      862.453
10/30/2013  13:56:00       63.895       77.187       18.564       42.672       27.477       39.954     1820.932      754.979     1596.313        0.728        0.209      100.202       22.861        0.052      336.906        8.521      862.456
10/30/2013  13:57:00       44.193       48.984       25.024       40.482       53.255       52.753     1638.802     2836.095     2782.877        0.612        0.363       65.973       33.821        0.263      336.929        8.560      862.452
10/30/2013  13:58:00       23.613       19.103      -10.334       33.248       70.967       38.025     1105.431     5036.383     1445.900        0.431        0.379       30.373       26.837        0.781      337.019        8.711      862.431
10/30/2013  13:59:00      -12.448       52.503        3.621       18.404       31.020       24.617      338.715      962.235      606.013        0.242        0.095       53.959       22.736        0.178      337.238        9.078      862.421
10/30/2013  14:00:00       42.766       31.834       17.492       45.884       29.741       24.216     2105.310      884.545      586.394        0.336        0.179       53.314       15.198        0.081      337.352        9.268      862.408
10/30/2013  14:01:00       41.966       32.106       13.476       50.381       59.887       37.943     2538.232     3586.410     1439.689        0.527        0.378       52.839       30.925        0.343      337.260        9.114      862.404
10/30/2013  14:02:00      104.490       93.753       40.120       76.911       51.656       43.267     5915.264     2668.393     1872.047        1.588        0.523      140.385       40.999        0.085      337.259        9.112      862.406
10/30/2013  14:03:00      151.416      100.434        7.280       77.806       54.302       39.787     6053.715     2948.729     1582.998        2.182        0.529      181.697       17.418        0.009      336.982        8.648      862.401
10/30/2013  14:04:00      164.173      118.886       16.443       46.853       40.795       40.871     2195.233     1664.228     1670.469        2.344        0.276      202.699       20.510        0.010      337.126        8.888      862.394
10/30/2013  14:05:00       80.172       75.512        4.990       70.911       58.104       45.553     5028.386     3376.041     2075.104        1.132        0.524      110.135       38.495        0.122      337.238        9.076      862.383
10/30/2013  14:06:00      174.647       99.906       -3.321       61.342       42.481       50.667     3762.814     1804.602     2567.104        2.431        0.407      201.203       33.530        0.028      337.004        8.684      862.377
10/30/2013  14:07:00       66.148       24.451        4.614       44.023       38.358       27.848     1937.988     1471.309      775.494        0.459        0.209       70.522       23.489        0.111      337.067        8.791      862.362
10/30/2013  14:08:00        6.442       63.097      -17.255       25.013       34.588       24.401      625.667     1196.326      595.404        0.337        0.121       63.425       23.406        0.136      337.054        8.769      862.331
10/30/2013  14:09:00       -6.023       55.983        5.039       34.816       56.905       26.395     1212.179     3238.205      696.674        0.417        0.257       56.306       20.780        0.136      337.567        9.627      862.299
10/30/2013  14:10:00       44.548       56.471        6.242       59.093       51.661       44.014     3492.039     2668.853     1937.192        0.665        0.405       71.927       37.857        0.277      337.348        9.261      862.283
10/30/2013  14:11:00      105.822       75.417       28.581       75.463       74.257       34.291     5694.698     5514.073     1175.893        1.504        0.619      129.946       28.541        0.048      337.624        9.723      862.267
10/30/2013  14:12:00      198.628      114.301       45.385       65.976       56.942       47.884     4352.875     3242.398     2292.897        3.223        0.494      229.168       13.240        0.003      337.381        9.314      862.269
10/30/2013  14:13:00      100.344       96.842       14.387       76.351       52.149       39.332     5829.449     2719.563     1547.005        1.487        0.505      139.454       29.022        0.043      337.277        9.142      862.283
10/30/2013  14:14:00      151.806      103.887       20.856       67.474       50.890       44.425     4552.801     2589.796     1973.599        2.169        0.456      183.950       23.848        0.017      337.166        8.953      862.283
10/30/2013  14:15:00      135.447       95.604       37.641       58.337       37.595       50.385     3403.207     1413.364     2538.624        1.813        0.368      165.789       28.758        0.030      337.075        8.803      862.284
10/30/2013  14:16:00       93.202       66.208       69.944       52.016       43.085       33.807     2705.649     1856.298     1142.924        1.183        0.285      114.324       19.830        0.030      337.315        9.206      862.281
10/30/2013  14:17:00      105.166       39.111       26.127       38.073       35.388       37.304     1449.581     1252.306     1391.581        0.868        0.205      112.203        8.663        0.006      337.099        8.845      862.271
10/30/2013  14:18:00       22.132      -40.525        0.400       18.357       51.097       25.411      336.975     2610.927      645.744        0.286        0.180       46.174       32.497        0.495      337.038        8.741      862.253
10/30/2013  14:19:00      -47.376      -76.455      -21.283       54.429       72.661       31.503     2962.558     5279.550      992.408        0.889        0.462       89.944       21.931        0.059      337.067        8.790      862.219
10/30/2013  14:20:00      -31.687       -1.825        5.230       43.612       39.555       29.079     1901.980     1564.599      845.591        0.267        0.216       31.739       14.292        0.203      337.424        9.389      862.201
10/30/2013  14:21:00        2.505      -25.580       31.126       53.646       60.074       37.743     2877.910     3608.829     1424.544        0.477        0.396       25.702       28.158        1.200      337.842       10.089      862.189
10/30/2013  14:22:00       63.338      -40.084       25.855       46.152       73.566       39.063     2129.985     5411.892     1525.905        0.768        0.453       74.956       47.809        0.407      337.460        9.448      862.190
10/30/2013  14:23:00      193.972       76.550       52.374       74.367       67.295       56.249     5530.426     4528.552     3163.925        2.972        0.661      208.531       42.717        0.042      337.313        9.201      862.201
10/30/2013  14:24:00       55.655       68.131       77.233       85.694       91.478       63.887     7343.540     8368.282     4081.520        1.675        0.990       87.974       52.628        0.358      337.762        9.953      862.209
10/30/2013  14:25:00      183.254      114.722       60.451       91.175       61.977       57.345     8312.866     3841.090     3288.426        3.292        0.772      216.201       26.461        0.015      337.493        9.502      862.212
10/30/2013  14:26:00      198.249      110.714       38.574       61.036       56.874       52.590     3725.348     3234.681     2765.727        3.139        0.486      227.069       28.451        0.016      337.341        9.248      862.221
10/30/2013  14:27:00      192.035      104.440        9.650       63.962       55.231       47.701     4091.178     3050.502     2275.360        2.865        0.471      218.598       23.799        0.012      337.154        8.933      862.224
10/30/2013  14:28:00       93.837       96.567       13.724       69.873       44.737       36.249     4882.169     2001.365     1313.962        1.326        0.410      134.650       27.369        0.041      337.309        9.194      862.222
10/30/2013  14:29:00       45.527       10.384       -7.379       77.245       33.590       32.161     5966.749     1128.290     1034.320        0.518        0.406       46.697       38.685        0.686      337.462        9.451      862.212
10/30/2013  14:30:00      -44.375       25.467      -10.171       31.293       22.971       21.804      979.231      527.674      475.411        0.235        0.099       51.164       14.247        0.078      337.725        9.893      862.183
10/30/2013  14:31:00        7.652       18.846       17.760       38.261       18.552       19.170     1463.931      344.161      367.501        0.145        0.109       20.340       13.121        0.416      337.931       10.238      862.170
10/30/2013  14:32:00      113.282      108.279       67.682      114.715       74.475       64.956    13159.519     5546.468     4219.328        2.603        1.146      156.707       47.983        0.094      337.570        9.632      862.172
10/30/2013  14:33:00      114.075       72.669       83.741       69.200       74.596       57.916     4788.695     5564.523     3354.305        1.950        0.685      135.255       57.039        0.178      337.407        9.361      862.163
10/30/2013  14:34:00      146.226       73.705       17.366       73.464       47.961       51.451     5396.938     2300.266     2647.195        1.873        0.517      163.752       34.776        0.045      337.631        9.735      862.151
10/30/2013  14:35:00       92.289       58.138        9.917       50.917       39.371       37.448     2592.586     1550.094     1402.352        0.877        0.277      109.074       20.373        0.035      337.626        9.727      862.156
10/30/2013  14:36:00      -10.651       50.577       65.162       36.694       37.665       37.919     1346.456     1418.632     1437.829        0.556        0.210       51.686       23.905        0.214      338.218       10.720      862.172
10/30/2013  14:37:00       43.285       43.918       62.142       73.376       60.350       37.087     5383.982     3642.089     1375.453        0.903        0.520       61.663       29.912        0.235      337.983       10.325      862.182
10/30/2013  14:38:00       38.667       18.249       38.301       41.599       49.479       36.201     1730.439     2448.162     1310.479        0.439        0.274       42.757       30.532        0.510      337.711        9.869      862.197
10/30/2013  14:39:00       45.133       36.556        4.010       49.454       60.301       47.424     2445.649     3636.210     2249.015        0.586        0.417       58.080       42.301        0.530      337.587        9.662      862.192
10/30/2013  14:40:00       36.166       20.008       -3.935       34.413       32.844       26.056     1184.289     1078.718      678.938        0.233        0.147       41.332       16.864        0.166      337.557        9.611      862.186
10/30/2013  14:41:00       57.501       16.163       13.846       27.119       34.527       32.071      735.433     1192.126     1028.555        0.336        0.148       59.729       19.955        0.112      337.631        9.735      862.175
10/30/2013  14:42:00       29.717       40.073       13.138       39.721       44.932       21.333     1577.762     2018.850      455.106        0.336        0.203       49.889       10.822        0.047      337.896       10.180      862.164
10/30/2013  14:43:00       23.597       66.574       93.940       47.909       74.393       64.832     2295.266     5534.255     4203.205        1.292        0.602       70.633       61.850        0.767      338.085       10.496      862.176
10/30/2013  14:44:00       14.656       37.685       58.057       65.251       66.943       58.277     4257.702     4481.318     3396.173        0.857        0.607       40.435       55.483        1.883      338.246       10.767      862.197
10/30/2013  14:45:00       21.333       -3.797       13.177       33.013       25.009       42.443     1089.864      625.440     1801.411        0.208        0.176       21.668       18.804        0.753      337.832       10.072      862.208
10/30/2013  14:46:00       29.977       -0.611       28.306       70.331       58.316       49.044     4946.442     3400.780     2405.358        0.622        0.538       29.983       36.329        1.468      337.819       10.051      862.184
10/30/2013  14:47:00       71.810      -11.830       57.078       92.464       73.918       53.966     8549.512     5463.866     2912.366        1.274        0.846       72.778       50.258        0.477      337.915       10.212      862.158
10/30/2013  14:48:00       30.900       22.553       79.500       65.237       65.115       50.620     4255.821     4239.938     2562.405        0.942        0.553       38.255       43.705        1.305      338.322       10.895      862.157
10/30/2013  14:49:00       94.650      -27.086       45.048       72.105       71.210       56.453     5199.062     5070.876     3186.928        1.259        0.673       98.449       50.597        0.264      338.059       10.453      862.160
10/30/2013  14:50:00       35.979        5.758       37.081       73.158       47.254       54.634     5352.072     2232.904     2984.858        0.663        0.528       36.436       43.502        1.425      337.875       10.145      862.171
10/30/2013  14:51:00       33.522       -5.966       32.686       52.482       66.726       27.713     2754.308     4452.298      768.020        0.510        0.399       34.049       26.345        0.599      338.052       10.441      862.165
10/30/2013  14:52:00       60.028       36.522       38.518       57.295       54.442       40.251     3282.750     2963.962     1620.149        0.714        0.393       70.266       25.983        0.137      338.175       10.648      862.163
10/30/2013  14:53:00      131.067       96.540       64.455       56.924       54.077       55.185     3240.308     2924.358     3045.417        1.993        0.461      162.783       34.673        0.045      337.772        9.972      862.173
10/30/2013  14:54:00       52.814       43.114       43.412       56.282       54.868       45.910     3167.715     3010.492     2107.691        0.741        0.414       68.177       40.710        0.357      338.012       10.375      862.185
10/30/2013  14:55:00       29.198       15.359       30.567       31.001       36.784       31.927      961.084     1353.067     1019.335        0.268        0.167       32.991       27.544        0.697      337.958       10.283      862.199
10/30/2013  14:56:00        5.430        1.063       23.043       22.061       54.368       35.420      486.680     2955.933     1254.579        0.263        0.235        5.533       36.956       44.614      337.992       10.342      862.193
10/30/2013  14:57:00       39.560     -122.142       -4.013       50.296       51.694       36.761     2529.664     2672.232     1351.359        1.153        0.328      128.389       34.312        0.071      338.155       10.614      862.180
10/30/2013  14:58:00       47.421      -69.640       26.677       63.256       72.982       50.883     4001.370     5326.424     2589.051        0.986        0.596       84.253       48.492        0.331      338.196       10.682      862.182
10/30/2013  14:59:00       38.343      -38.985       28.269       42.131       68.751       45.355     1775.053     4726.715     2057.031        0.617        0.428       54.681       42.708        0.610      337.979       10.320      862.193
10/30/2013  15:00:00       19.735      -45.909       19.925       42.184       71.044       29.555     1779.517     5047.235      873.488        0.530        0.385       49.971       21.260        0.181      338.230       10.741      862.202
10/30/2013  15:01:00       68.348      -28.616       21.589       42.423       70.620       40.562     1799.682     4987.179     1645.269        0.719        0.422       74.096       42.762        0.333      338.135       10.582      862.229
10/30/2013  15:02:00       12.500      -23.678       13.293       50.327       65.802       40.588     2532.772     4329.864     1647.352        0.470        0.425       26.776       17.695        0.437      338.321       10.894      862.244
10/30/2013  15:03:00       94.664        1.906       31.681       61.292       86.083       48.747     3756.715     7410.242     2376.286        1.175        0.677       94.683       38.126        0.162      338.248       10.770      862.238
10/30/2013  15:04:00       58.724       74.181       -1.347       53.335       35.425       38.243     2844.578     1254.937     1462.559        0.726        0.278       94.611       23.930        0.064      338.192       10.676      862.244
10/30/2013  15:05:00      -11.221       74.441       -4.913       33.721       43.182       18.366     1137.104     1864.686      337.314        0.451        0.167       75.282       22.194        0.087      337.813       10.041      862.233
10/30/2013  15:06:00      128.701       99.258       37.689       62.373       44.622       33.302     3890.434     1991.151     1109.047        1.741        0.350      162.530       26.315        0.026      337.782        9.988      862.227
10/30/2013  15:07:00      198.929      113.231       51.103       95.453       61.972       52.545     9111.232     3840.551     2760.938        3.536        0.786      228.898       39.836        0.030      337.839       10.080      862.206
10/30/2013  15:08:00      108.869       62.710       55.477       63.422       68.139       59.289     4022.382     4642.980     3515.219        1.552        0.609      125.638       49.347        0.154      337.838       10.082      862.194
10/30/2013  15:09:00       51.455       17.263       37.201       59.686       42.902       34.068     3562.439     1840.618     1160.601        0.545        0.328       54.274       24.674        0.207      338.140       10.590      862.170
10/30/2013  15:10:00      115.858       89.375       50.906       76.830       53.386       69.810     5902.901     2850.103     4873.462        1.881        0.681      146.325       54.926        0.141      337.901       10.187      862.148
10/30/2013  15:11:00       74.086       24.643       38.352       54.393       48.388       41.383     2958.610     2341.429     1712.540        0.729        0.351       78.077       34.314        0.193      338.079       10.487      862.143
10/30/2013  15:12:00      139.757       90.309       59.327       70.318       52.073       60.166     4944.644     2711.646     3619.944        2.124        0.564      166.396       36.560        0.048      337.813       10.040      862.143
10/30/2013  15:13:00       68.321       93.701       93.449       88.363       68.190       76.177     7807.992     4649.942     5802.917        2.022        0.913      115.964       71.272        0.378      338.023       10.391      862.132
10/30/2013  15:14:00       75.939       64.830       37.782       46.028       37.160       30.614     2118.531     1380.848      937.227        0.792        0.222       99.848       21.335        0.046      337.902       10.190      862.154
10/30/2013  15:15:00       20.283       -9.282        3.422       18.374       30.404       14.384      337.621      924.427      206.889        0.099        0.073       22.307       13.191        0.350      338.059       10.454      862.164
10/30/2013  15:16:00       35.396      -56.915       23.301       32.148       79.156       31.095     1033.498     6265.640      966.920        0.665        0.413       67.023       21.530        0.103      338.132       10.576      862.163
10/30/2013  15:17:00       15.225      -36.760       17.712       27.956       35.580       24.502      781.528     1265.932      600.348        0.227        0.132       39.788       18.133        0.208      338.239       10.755      862.169
10/30/2013  15:18:00       54.036      -64.190       -1.918       45.009       55.670       38.110     2025.852     3099.144     1452.410        0.681        0.329       83.906       37.318        0.198      338.319       10.891      862.181
10/30/2013  15:19:00      102.469     -101.243       21.326       64.833      114.971       51.321     4203.357    13218.271     2633.859        2.063        1.003      144.049       59.087        0.168      338.217       10.717      862.164
10/30/2013  15:20:00      101.650      118.336      117.706       74.652       69.137       63.433     5572.876     4779.885     4023.773        2.628        0.719      156.000       45.243        0.084      338.091       10.505      862.161
10/30/2013  15:21:00      164.388      146.632      120.760       65.731       69.372       61.701     4320.620     4812.465     3806.990        3.802        0.647      220.282       47.266        0.046      337.856       10.108      862.131
10/30/2013  15:22:00       57.546       71.069       95.717       75.659       56.951       48.774     5724.334     3243.374     2378.927        1.443        0.567       91.445       45.326        0.246      338.258       10.786      862.125
10/30/2013  15:23:00      119.256       76.422       41.919       75.601       64.159       50.041     5715.556     4116.402     2504.148        1.708        0.617      141.641       29.310        0.043      338.382       10.994      862.120
10/30/2013  15:24:00      122.961      109.547        9.721       86.044       48.915       44.762     7403.654     2392.704     2003.610        1.951        0.590      164.681       46.868        0.081      338.174       10.644      862.120
10/30/2013  15:25:00      134.666       88.099       10.586       49.268       39.983       38.833     2427.347     1598.639     1507.980        1.577        0.277      160.924       33.974        0.045      337.962       10.290      862.119
10/30/2013  15:26:00      156.023      104.803       44.288       45.672       38.317       35.869     2085.892     1468.178     1286.558        2.106        0.242      187.954       14.673        0.006      337.981       10.320      862.120
10/30/2013  15:27:00       95.346       65.631       33.575       46.282       41.888       36.900     2141.990     1754.639     1361.644        0.989        0.263      115.751       25.408        0.048      338.086       10.499      862.118
10/30/2013  15:28:00       48.781        5.345        5.240       20.194       44.271       23.974      407.809     1959.961      574.737        0.269        0.147       49.073       13.058        0.071      337.990       10.339      862.109
10/30/2013  15:29:00      113.882       -9.236        8.210       52.738       46.679       40.016     2781.282     2178.894     1601.293        0.984        0.328      114.256       30.155        0.070      338.078       10.485      862.104
10/30/2013  15:30:00       71.660       29.491       54.063       61.787       44.843       47.569     3817.597     2010.915     2262.776        0.851        0.405       77.491       44.975        0.337      338.237       10.751      862.095
10/30/2013  15:31:00       97.675       78.017       51.224       86.111       58.739       51.989     7415.090     3450.250     2702.859        1.591        0.678      125.008       53.199        0.181      338.416       11.052      862.080
10/30/2013  15:32:00       49.479       34.695       52.113       74.328       61.068       58.532     5524.723     3729.333     3426.053        0.952        0.634       60.431       53.490        0.783      338.446       11.104      862.096
10/30/2013  15:33:00       59.503      114.364      118.615       57.103       91.386       56.297     3260.786     8351.318     3169.299        2.273        0.739      128.917       62.575        0.236      338.446       11.100      862.100
10/30/2013  15:34:00      154.693      110.282       79.241       77.528       61.361       59.131     6010.644     3765.228     3496.456        2.782        0.664      189.979       52.706        0.077      338.097       10.514      862.106
10/30/2013  15:35:00       74.298       55.037       76.281       76.189       67.522       50.154     5804.800     4559.265     2515.382        1.362        0.644       92.463       47.852        0.268      338.345       10.933      862.093
10/30/2013  15:36:00      129.549      117.921       71.255       76.414       41.342       64.995     5839.091     1709.128     4224.351        2.377        0.589      175.181       55.329        0.100      338.076       10.481      862.077
10/30/2013  15:37:00       26.211       64.020       74.583       62.168       59.290       81.007     3864.900     3515.323     6562.121        1.214        0.697       69.178       65.644        0.900      338.230       10.740      862.065
10/30/2013  15:38:00       60.973      152.288      128.909       64.654       65.493       59.439     4180.195     4289.376     3532.992        2.776        0.600      164.041       54.034        0.108      338.137       10.581      862.050
10/30/2013  15:39:00       43.658       41.183       61.614       53.332       41.060       47.125     2844.307     1685.945     2220.732        0.707        0.338       60.017       45.237        0.568      338.225       10.732      862.046
10/30/2013  15:40:00       17.460       26.037       34.754       40.499       18.489       15.971     1640.170      341.827      255.089        0.221        0.112       31.349        6.781        0.047      338.410       11.043      862.026
10/30/2013  15:41:00      101.100       81.185       64.317       67.474       51.348       40.534     4552.777     2636.642     1642.996        1.489        0.442      129.662       31.645        0.060      338.339       10.922      862.014
10/30/2013  15:42:00        1.879       36.526       73.760       30.784       68.466       36.465      947.683     4687.653     1329.714        0.687        0.348       36.574       26.812        0.537      338.722       11.567      862.010
10/30/2013  15:43:00       35.794       25.993       42.506       52.132       65.218       56.159     2717.732     4253.386     3153.794        0.694        0.506       44.236       50.987        1.329      338.500       11.192      862.020
10/30/2013  15:44:00       36.235      -21.630       -4.362       24.277       47.079       22.732      589.356     2216.430      516.728        0.256        0.166       42.200       23.266        0.304      338.434       11.085      862.010
10/30/2013  15:45:00       83.932       49.206       22.503       72.326       60.676       40.689     5231.000     3681.559     1655.587        1.027        0.528       97.292       16.824        0.030      338.370       10.974      861.996
10/30/2013  15:46:00      176.744      102.332       38.760       64.701       58.793       49.498     4186.168     3456.571     2450.050        2.665        0.505      204.231       29.887        0.021      338.376       10.983      861.986
10/30/2013  15:47:00       92.663       77.115       69.651       79.175       61.507       50.032     6268.697     3783.053     2503.185        1.597        0.628      120.553       39.157        0.106      338.415       11.051      861.985
10/30/2013  15:48:00       40.515      -31.726       36.569       78.885       82.783       59.542     6222.904     6853.093     3545.260        1.030        0.831       51.459       60.314        1.374      338.695       11.521      861.987
10/30/2013  15:49:00      129.124       99.296       77.942       91.426       82.906       79.027     8358.644     6873.444     6245.208        2.704        1.074      162.888       52.757        0.105      338.408       11.037      861.970
10/30/2013  15:50:00      109.816      125.225       77.151       89.561       79.650       76.891     8021.105     6344.069     5912.294        2.698        1.014      166.556       63.046        0.143      338.456       11.116      861.968
10/30/2013  15:51:00       56.347      -11.841       23.288       61.253       75.835       34.891     3751.955     5750.889     1217.412        0.729        0.536       57.578       33.703        0.343      338.650       11.446      861.961
10/30/2013  15:52:00       73.790      -40.047       39.186       83.355       56.123       46.768     6948.101     3149.779     2187.266        1.043        0.614       83.957       45.218        0.290      338.725       11.570      861.960
10/30/2013  15:53:00       51.913       92.563      109.300       68.823       77.975       44.977     4736.600     6080.086     2022.962        1.802        0.642      106.127       49.539        0.218      338.723       11.565      861.972
10/30/2013  15:54:00      153.223      102.588       34.838       57.583       35.139       42.334     3315.832     1234.769     1792.187        2.078        0.317      184.396       18.420        0.010      338.271       10.808      861.983
10/30/2013  15:55:00       28.868       21.704       25.707       35.577       43.662       31.879     1265.706     1906.390     1016.269        0.308        0.209       36.117       27.621        0.585      338.492       11.181      861.980
10/30/2013  15:56:00       14.763      -41.305        6.174       36.344       31.847       27.263     1320.866     1014.253      743.246        0.252        0.154       43.864       22.055        0.253      338.841       11.766      861.974
10/30/2013  15:57:00      -11.747      -21.894        0.742       46.835       37.509       18.637     2193.487     1406.962      347.324        0.228        0.197       24.846       22.793        0.842      338.923       11.904      861.979
10/30/2013  15:58:00       24.423       11.632       38.480       31.889       58.777       38.861     1016.912     3454.685     1510.182        0.410        0.299       27.051       42.266        2.441      338.759       11.628      862.000
10/30/2013  15:59:00       45.715      104.488      111.339       71.405       75.056       64.246     5098.610     5633.388     4127.528        2.013        0.743      114.050       65.762        0.332      338.516       11.221      861.998
10/30/2013  16:00:00      118.758       54.415       59.436       64.744       94.612       49.925     4191.782     8951.364     2492.485        1.811        0.782      130.631       56.349        0.186      338.439       11.090      862.000
10/30/2013  16:01:00       67.295       83.794       91.942       72.836       68.229       52.304     5305.067     4655.131     2735.742        1.635        0.635      107.471       55.555        0.267      338.639       11.426      861.982
10/30/2013  16:02:00       93.801       97.976       76.327       91.249       51.106       52.412     8326.309     2611.857     2747.010        1.895        0.684      135.639       56.219        0.172      338.801       11.699      861.975
10/30/2013  16:03:00       96.383       74.659       76.239      104.426       76.224       61.031    10904.733     5810.129     3724.731        2.055        1.022      121.917       62.515        0.263      338.721       11.562      861.974
10/30/2013  16:04:00      132.781       70.111       54.453       87.401       58.526       54.013     7638.873     3425.298     2917.358        1.974        0.699      150.154       46.841        0.097      338.578       11.322      861.978
10/30/2013  16:05:00       52.771       98.509      106.214       65.192       44.480       43.545     4249.944     1978.455     1896.143        1.595        0.406      111.754       36.584        0.107      338.669       11.475      861.991
10/30/2013  16:06:00       81.998       56.891       74.155       73.275       57.754       52.818     5369.223     3335.475     2789.701        1.347        0.575       99.801       38.879        0.152      338.688       11.509      861.999
10/30/2013  16:07:00       72.764       39.141       52.742       61.069       47.607       48.002     3729.362     2266.440     2304.146        0.895        0.415       82.623       30.641        0.138      338.705       11.539      862.010
10/30/2013  16:08:00       67.714       60.951        4.545       64.957       52.697       44.016     4219.410     2776.984     1937.390        0.863        0.447       91.106       30.592        0.113      338.506       11.204      862.023
10/30/2013  16:09:00      121.219       56.847       10.713       65.786       31.266       30.016     4327.812      977.559      900.941        1.212        0.310      133.887        7.440        0.003      338.475       11.150      862.038
10/30/2013  16:10:00      100.856       49.202        7.032       57.437       58.929       38.479     3299.059     3472.662     1480.626        1.045        0.413      112.217       14.794        0.017      338.612       11.381      862.041
10/30/2013  16:11:00       89.403       43.243       19.924       43.775       34.014       32.016     1916.227     1156.946     1024.999        0.718        0.205       99.312       24.260        0.060      338.631       11.414      862.053
10/30/2013  16:12:00      129.099       96.753       40.615       74.429       68.354       54.290     5539.650     4672.245     2947.376        2.042        0.658      161.331       48.931        0.092      338.470       11.141      862.059
10/30/2013  16:13:00      127.492      102.254       21.153       46.517       41.927       38.568     2163.814     1757.914     1487.491        1.628        0.270      163.432       16.124        0.010      338.353       10.945      862.081
10/30/2013  16:14:00       67.396       49.765       15.141       65.101       39.437       27.195     4238.097     1555.284      739.559        0.689        0.327       83.778       15.493        0.034      338.488       11.174      862.074
10/30/2013  16:15:00       62.865       44.542       27.732       68.832       41.633       47.598     4737.779     1733.289     2265.596        0.772        0.437       77.046       42.997        0.311      338.497       11.188      862.071
10/30/2013  16:16:00       33.992      127.038      127.012       76.325       97.354       96.664     5825.438     9477.760     9343.976        2.903        1.232      131.507       94.957        0.521      338.504       11.198      862.056
10/30/2013  16:17:00       80.833      118.908      107.597       55.483       69.039       65.092     3078.315     4766.340     4236.932        2.216        0.604      143.782       60.481        0.177      338.246       10.765      862.057
10/30/2013  16:18:00       86.283       57.206       38.718       55.801       57.864       46.440     3113.733     3348.187     2156.642        1.042        0.431      103.525       35.478        0.117      338.349       10.940      862.056
10/30/2013  16:19:00       75.267      -24.915       38.783       64.967      101.383       44.027     4220.669    10278.541     1938.362        1.211        0.822       79.284       39.562        0.249      338.613       11.384      862.047
10/30/2013  16:20:00       21.696       50.604       15.700       43.706       35.908       34.176     1910.173     1289.372     1168.003        0.382        0.218       55.059       14.163        0.066      338.682       11.499      862.055
10/30/2013  16:21:00       76.866       26.821        8.203       75.096       78.805       50.098     5639.435     6210.280     2509.775        1.052        0.718       81.411       46.249        0.323      338.690       11.512      862.068
10/30/2013  16:22:00      102.258      106.772       86.807       96.413       95.095       84.080     9295.371     9043.048     7069.380        2.740        1.270      147.841       85.978        0.338      338.501       11.191      862.054
10/30/2013  16:23:00      101.683       86.425       77.073       78.883       62.178       67.240     6222.527     3866.077     4521.171        1.918        0.730      133.449       57.770        0.187      338.570       11.310      862.045
10/30/2013  16:24:00      102.329       36.758       22.725       79.539       54.854       45.775     6326.442     3008.993     2095.386        1.188        0.572      108.731       24.207        0.050      338.595       11.352      862.050
10/30/2013  16:25:00      168.904      123.490       69.739       94.958       68.212       75.129     9016.973     4652.813     5644.309        3.397        0.966      209.232       68.476        0.107      338.540       11.257      862.063
10/30/2013  16:26:00       73.537       99.775       77.336       77.168       70.569       49.969     5954.939     4979.944     2496.922        1.739        0.672      123.946       43.136        0.121      338.562       11.298      862.067
10/30/2013  16:27:00      101.478      128.062       71.656       80.972       53.276       72.114     6556.423     2838.333     5200.441        2.321        0.730      163.395       59.273        0.132      338.402       11.027      862.080
10/30/2013  16:28:00       91.756       18.477       33.818       66.930       79.245       48.873     4479.579     6279.779     2388.601        1.152        0.657       93.598       49.906        0.284      338.484       11.167      862.085
10/30/2013  16:29:00       77.188      113.989      125.542       76.995       90.064       78.353     5928.227     8111.448     6139.189        2.744        1.009      137.664       73.754        0.287      338.484       11.165      862.087
10/30/2013  16:30:00      113.028      105.834      120.355       85.056       76.285       60.987     7234.607     5819.458     3719.446        2.761        0.839      154.843       52.324        0.114      338.500       11.192      862.078
10/30/2013  16:31:00       87.895       51.086       60.730       95.082       62.498       53.807     9040.664     3906.029     2895.208        1.493        0.792      101.663       51.454        0.256      338.554       11.283      862.074
10/30/2013  16:32:00       78.555       49.375       76.736       85.557       73.148       45.707     7320.013     5350.656     2089.132        1.463        0.738       92.784       34.003        0.134      338.575       11.318      862.077
10/30/2013  16:33:00       47.016       65.117       88.107       66.733       54.805       35.139     4453.359     3003.636     1234.720        1.145        0.435       80.316       22.661        0.080      338.717       11.558      862.078
10/30/2013  16:34:00      143.981      140.826      119.089      116.557       94.920       88.643    13585.568     9009.869     7857.501        4.259        1.523      201.402       63.068        0.098      338.567       11.304      862.103
10/30/2013  16:35:00       96.968       76.551        8.787       84.407       49.816       40.573     7124.470     2481.608     1646.136        1.329        0.563      123.543       24.732        0.040      338.612       11.381      862.150
10/30/2013  16:36:00       76.033       54.715        8.585       69.114       69.384       41.446     4776.715     4814.128     1717.752        1.008        0.565       93.673       38.108        0.165      338.634       11.419      862.169
10/30/2013  16:37:00      153.995       73.541       39.957       82.628       49.801       44.714     6827.399     2480.179     1999.322        2.101        0.565      170.654       41.726        0.060      338.615       11.385      862.173
10/30/2013  16:38:00      116.209      109.299       61.484       45.054       36.084       39.913     2029.877     1302.083     1593.060        1.708        0.246      159.533       14.709        0.009      338.636       11.422      862.170
10/30/2013  16:39:00      180.969      104.708       13.553      106.039       88.542       48.228    11244.354     7839.629     2325.912        3.265        1.070      209.078       12.006        0.003      338.509       11.208      862.177
10/30/2013  16:40:00      182.754      133.774       32.482       67.104       45.082       47.734     4503.004     2032.365     2278.567        3.058        0.441      226.482       12.839        0.003      338.383       10.993      862.176
10/30/2013  16:41:00       45.494       68.792       67.414       58.863       54.812       57.010     3464.832     3004.380     3250.123        1.053        0.486       82.474       44.622        0.293      338.598       11.359      862.155
10/30/2013  16:42:00      131.762      128.858       41.464      114.082       72.398       69.419    13014.639     5241.501     4819.064        2.938        1.154      184.297       56.096        0.093      338.480       11.159      862.151
10/30/2013  16:43:00      149.621      172.028       -2.531       78.592       81.587       56.379     6176.636     6656.402     3178.608        3.400        0.801      227.991       51.855        0.052      338.328       10.901      862.150
10/30/2013  16:44:00       85.761      158.971       -1.423       77.066       86.341       59.557     5939.152     7454.732     3547.071        2.478        0.847      180.629       58.917        0.106      338.363       10.960      862.148
10/30/2013  16:45:00      249.840      155.577       49.165       69.756       74.504       46.750     4865.839     5550.884     2185.606        5.082        0.630      294.320       23.982        0.007      338.371       10.974      862.147
10/30/2013  16:46:00      225.753      170.445       34.078       90.147       68.524       64.722     8126.413     4695.511     4188.941        4.909        0.851      282.871       34.801        0.015      338.319       10.885      862.142
10/30/2013  16:47:00      246.662      173.005       52.024       75.592       59.085       56.013     5714.117     3490.987     3137.490        5.291        0.617      301.285       30.443        0.010      338.281       10.822      862.134
10/30/2013  16:48:00      215.186      157.154        4.190       79.012       50.320       44.141     6242.963     2532.125     1948.404        4.087        0.536      266.463       39.008        0.021      338.301       10.856      862.114
10/30/2013  16:49:00      170.307       98.057       24.865       76.824       65.885       53.540     5901.875     4340.827     2866.569        2.617        0.655      196.519       43.269        0.048      338.394       11.013      862.098
10/30/2013  16:50:00      103.093      105.186       82.848      103.535       63.112       71.168    10719.395     3983.132     5064.887        2.416        0.988      147.283       70.413        0.229      338.403       11.029      862.089
10/30/2013  16:51:00      112.976       88.800       78.517       86.292       82.718       76.922     7446.351     6842.346     5917.056        2.351        1.010      143.698       53.384        0.138      338.407       11.036      862.090
10/30/2013  16:52:00       89.556       66.776       76.083       99.646       78.521       67.329     9929.236     6165.489     4533.168        1.944        1.031      111.711       56.081        0.252      338.384       10.998      862.088
10/30/2013  16:53:00       81.432       98.111       90.565      118.167       78.986       72.215    13963.480     6238.828     5214.946        2.493        1.271      127.503       46.295        0.132      338.372       10.977      862.095
10/30/2013  16:54:00       68.734       75.996       26.016       66.915       56.836       47.197     4477.560     3230.320     2227.574        1.055        0.497      102.468       24.219        0.056      338.371       10.977      862.130
10/30/2013  16:55:00      141.167      101.654       17.136       51.907       46.645       42.612     2694.342     2175.794     1815.783        1.862        0.334      173.959       21.111        0.015      338.346       10.933      862.145
10/30/2013  16:56:00       63.878       83.626       71.210       54.916       52.404       44.231     3015.806     2746.229     1956.365        1.193        0.386      105.231       34.818        0.109      338.416       11.052      862.168
10/30/2013  16:57:00       47.660       77.827       83.219       45.289       45.073       36.868     2051.119     2031.588     1359.224        1.035        0.272       91.261       15.886        0.030      338.427       11.073      862.194
10/30/2013  16:58:00       71.339       74.277       77.317       72.114       61.959       46.140     5200.414     3838.974     2128.903        1.387        0.558      102.987       44.331        0.185      338.384       10.999      862.202
10/30/2013  16:59:00      151.818       98.561       74.848      105.337       96.111       90.180    11095.835     9237.255     8132.500        3.341        1.423      181.005       65.907        0.133      338.278       10.818      862.201
10/30/2013  17:00:00      175.022       87.685       16.392       79.976       72.664       54.595     6396.220     5280.078     2980.628        2.662        0.733      195.759       40.803        0.043      338.269       10.804      862.216
10/30/2013  17:01:00      102.039       66.144       58.674       59.779       56.010       46.209     3573.509     3137.124     2135.304        1.354        0.442      121.602       30.200        0.062      338.302       10.861      862.217
10/30/2013  17:02:00       85.355      123.016       99.601       97.586       67.700       67.002     9523.041     4583.325     4489.283        2.546        0.930      149.728       59.852        0.160      338.313       10.878      862.229
10/30/2013  17:03:00      218.236      147.879       28.687      112.238       89.469       62.535    12597.408     8004.663     3910.674        4.741        1.226      263.619       45.858        0.030      338.229       10.735      862.256
10/30/2013  17:04:00      222.183      111.155       56.551      131.086       84.497       77.013    17183.638     7139.816     5930.951        4.758        1.513      248.437       57.617        0.054      338.170       10.636      862.258
10/30/2013  17:05:00      125.583       76.746       34.985      167.614       88.031       59.587    28094.613     7749.431     3550.563        3.113        1.970      147.177       66.798        0.206      338.166       10.632      862.277
10/30/2013  17:06:00      141.842       85.055       56.486       81.652       53.592       45.239     6667.055     2872.123     2046.536        2.106        0.579      165.389       39.450        0.057      338.204       10.693      862.300
10/30/2013  17:07:00      155.106       70.780       37.368      110.785       80.700       74.361    12273.233     6512.413     5529.529        2.739        1.216      170.492       31.587        0.034      338.154       10.611      862.312
10/30/2013  17:08:00      162.797       87.781       11.342       67.147       76.513       56.176     4508.668     5854.234     3155.736        2.393        0.676      184.955       27.168        0.022      338.141       10.589      862.332
10/30/2013  17:09:00      175.633      154.421       23.769      119.382       76.183       67.920    14252.091     5803.816     4613.110        3.996        1.233      233.865       49.412        0.045      338.097       10.513      862.362
10/30/2013  17:10:00      159.137      118.678       42.373      121.160       70.937       58.350    14679.756     5032.086     3404.747        3.216        1.156      198.517       26.873        0.018      338.065       10.461      862.395
10/30/2013  17:11:00      208.106      130.609       44.411      102.230       80.097       78.803    10450.906     6415.451     6209.863        4.270        1.154      245.697       45.889        0.035      338.082       10.489      862.414
10/30/2013  17:12:00      133.602       92.334       12.618      128.874       73.176       58.383    16608.572     5354.744     3408.572        2.595        1.269      162.404       54.820        0.114      338.080       10.488      862.428
10/30/2013  17:13:00      113.811       99.052       -3.157       84.531       66.958       57.368     7145.471     4483.402     3291.114        1.884        0.746      150.878       32.870        0.047      338.078       10.485      862.440
10/30/2013  17:14:00      159.446       89.588       14.744       96.882       71.141       55.290     9386.075     5061.053     3057.007        2.558        0.875      182.891       37.139        0.041      338.072       10.474      862.466
10/30/2013  17:15:00      171.186      166.172       12.232      114.315       84.135       68.933    13067.949     7078.777     4751.731        4.098        1.245      238.575       45.168        0.036      338.014       10.376      862.478
10/30/2013  17:16:00      121.428      208.060      -10.504       98.930      102.085       78.745     9787.079    10421.428     6200.789        4.227        1.320      240.902       62.417        0.067      338.004       10.358      862.472
10/30/2013  17:17:00      187.492      131.046        4.791      112.439       78.348       61.252    12642.599     6138.417     3751.801        3.744        1.127      228.750       47.304        0.043      338.037       10.414      862.467
10/30/2013  17:18:00      112.517       88.361       49.137      128.938       86.874       63.257    16625.083     7547.104     4001.442        2.552        1.409      143.065       67.750        0.224      338.080       10.488      862.457
10/30/2013  17:19:00      231.202      164.658        8.463      145.871       97.796       70.768    21278.338     9563.992     5008.062        5.824        1.793      283.842       48.087        0.029      337.962       10.288      862.472
10/30/2013  17:20:00      118.047      229.336      -13.962      122.728      151.824       82.634    15062.139    23050.600     6828.437        5.583        2.247      257.934       87.147        0.114      337.930       10.235      862.489
10/30/2013  17:21:00      157.576      190.533      -10.507      125.573       98.471       78.539    15768.665     9696.476     6168.423        4.643        1.582      247.251       53.693        0.047      337.908       10.196      862.480
10/30/2013  17:22:00      231.907      147.935       16.311      112.678       89.385       76.364    12696.414     7989.604     5831.399        5.122        1.326      275.074       48.972        0.032      337.889       10.165      862.503
10/30/2013  17:23:00      136.969      125.915       21.047      144.368      117.502       79.062    20841.976    13806.789     6250.834        3.797        2.045      186.051       56.497        0.092      337.857       10.112      862.518
10/30/2013  17:24:00      191.879      157.691       12.913      126.420      100.328       69.681    15981.921    10065.624     4855.486        4.637        1.545      248.363       50.114        0.041      337.868       10.129      862.512
10/30/2013  17:25:00       73.201       47.886       21.344       83.666       63.213       48.386     6999.935     3995.879     2341.227        1.072        0.667       87.473       37.610        0.185      337.897       10.181      862.528
10/30/2013  17:26:00      176.595      118.103       19.197      122.150       94.243       52.826    14920.724     8881.793     2790.576        3.604        1.330      212.448       54.735        0.066      337.882       10.153      862.534
10/30/2013  17:27:00       73.672      100.029        5.669       84.105       76.273       46.631     7073.713     5817.539     2174.471        1.526        0.753      124.231       39.817        0.103      337.874       10.142      862.555
10/30/2013  17:28:00       47.772      184.797       -8.604       49.210      161.088       61.231     2421.608    25949.281     3749.223        3.431        1.606      190.872       76.929        0.162      337.881       10.153      862.546
10/30/2013  17:29:00       85.243       88.612        1.866       70.907       54.114       44.866     5027.752     2928.300     2012.958        1.254        0.498      122.958       34.712        0.080      337.875       10.145      862.555
10/30/2013  17:30:00       64.683       62.746        7.317       68.645       68.337       48.464     4712.161     4669.962     2348.798        0.995        0.587       90.116       38.361        0.181      337.888       10.165      862.553
10/30/2013  17:31:00       -1.410       62.437       -1.188       37.450       56.479       29.972     1402.529     3189.901      898.322        0.470        0.275       62.453       17.313        0.077      337.866       10.130      862.552
10/30/2013  17:32:00       24.807      125.647      -15.448       42.831       67.343       35.856     1834.484     4535.013     1285.619        1.215        0.383      128.073       31.393        0.060      337.855       10.111      862.541
10/30/2013  17:33:00       28.172      181.429      -17.817       59.607       73.946       39.135     3552.936     5467.968     1531.521        2.229        0.528      183.603       39.059        0.045      337.815       10.043      862.542
10/30/2013  17:34:00       24.458      258.473      -21.126       68.163      116.952       54.212     4646.163    13677.883     2938.923        4.455        1.063      259.628       65.287        0.063      337.795       10.008      862.528
10/30/2013  17:35:00      -10.626      204.556      -24.661       56.521       64.438       28.499     3194.649     4152.279      812.181        2.536        0.408      204.832       21.792        0.011      337.813       10.039      862.539
10/30/2013  17:36:00       32.661      238.668      -28.817       43.075       71.830       40.427     1855.457     5159.486     1634.371        3.375        0.432      240.892       35.751        0.022      337.781        9.983      862.555
10/30/2013  17:37:00       81.322      178.877        0.894       93.569      119.147       66.569     8755.084    14196.035     4431.458        3.299        1.369      196.495       70.445        0.129      337.705        9.856      862.562
10/30/2013  17:38:00       78.124      127.690       -4.000       65.458       75.042       62.730     4284.808     5631.296     3935.006        1.814        0.693      149.693       53.085        0.126      337.680        9.817      862.560
10/30/2013  17:39:00       88.343      119.727       -0.491      104.313       67.572       56.252    10881.289     4566.019     3164.257        2.037        0.931      148.792       43.273        0.085      337.649        9.765      862.573
10/30/2013  17:40:00       68.956       84.513        0.078       53.097       60.468       46.699     2819.341     3656.383     2180.768        1.028        0.433      109.075       38.738        0.126      337.630        9.732      862.581
10/30/2013  17:41:00      163.311      131.308       14.736      131.051       85.431       59.881    17174.386     7298.372     3585.696        3.609        1.403      209.553       42.893        0.042      337.597        9.675      862.593
10/30/2013  17:42:00       52.496       89.106       -0.231       49.322       73.402       32.475     2432.684     5387.880     1054.650        0.978        0.444      103.420       36.447        0.124      337.600        9.682      862.611
10/30/2013  17:43:00       75.790      178.218      -16.603      108.302      131.005       61.105    11729.251    17162.211     3733.831        3.520        1.631      193.664       59.234        0.094      337.557        9.608      862.624
10/30/2013  17:44:00       29.908      241.160      -33.514       54.228       87.705       42.191     2940.703     7692.203     1780.042        3.629        0.621      243.008       48.076        0.039      337.565        9.621      862.621
10/30/2013  17:45:00       75.569      161.212      -13.274       65.520      107.825       62.964     4292.897    11626.244     3964.438        2.588        0.994      178.045       61.215        0.118      337.527        9.559      862.622
10/30/2013  17:46:00       44.491      138.722        2.284       62.974      110.924       55.307     3965.752    12304.177     3058.913        2.028        0.966      145.682       56.375        0.150      337.506        9.523      862.624
10/30/2013  17:47:00       56.706      108.518        2.431       49.094       99.652       43.989     2410.201     9930.467     1934.998        1.463        0.714      122.441       54.837        0.201      337.490        9.499      862.620
10/30/2013  17:48:00       98.785      104.511       14.659       87.346       73.166       54.894     7629.384     5353.269     3013.395        1.844        0.800      143.809       39.791        0.077      337.475        9.472      862.633
10/30/2013  17:49:00       70.415       65.196        7.473       45.624       24.078       30.808     2081.550      579.738      949.134        0.644        0.181       95.963       20.357        0.045      337.469        9.465      862.638
10/30/2013  17:50:00      100.384       87.862       12.898       35.202       38.844       37.410     1239.210     1508.848     1399.479        1.105        0.207      133.404       24.783        0.035      337.437        9.410      862.645
10/30/2013  17:51:00      121.825      105.934       29.076       84.814       54.888       55.634     7193.403     3012.738     3095.186        2.010        0.665      161.442       29.786        0.034      337.410        9.362      862.646
10/30/2013  17:52:00      131.400       88.447       22.657       62.263       52.919       45.688     3876.680     2800.458     2087.364        1.718        0.438      158.395       24.988        0.025      337.403        9.351      862.657
10/30/2013  17:53:00      159.626      118.427       26.175      113.276       81.135       62.708    12831.464     6582.889     3932.339        3.176        1.167      198.760       34.474        0.030      337.355        9.270      862.666
10/30/2013  17:54:00      199.998      143.017       11.773      102.774       79.101       60.202    10562.537     6256.899     3624.340        4.051        1.022      245.872       28.388        0.013      337.338        9.241      862.673
10/30/2013  17:55:00      158.553      105.318       15.292       70.389       55.119       50.664     4954.571     3038.076     2566.824        2.351        0.528      190.344       32.670        0.029      337.331        9.231      862.685
10/30/2013  17:56:00       95.209       60.338       23.783       64.182       40.257       39.258     4119.390     1620.608     1541.161        1.027        0.364      112.719       25.669        0.052      337.309        9.194      862.678
10/30/2013  17:57:00      129.021      102.469       12.632       64.557       61.495       46.174     4167.628     3781.688     2132.031        1.869        0.504      164.761       34.363        0.043      337.280        9.147      862.683
10/30/2013  17:58:00      133.365       93.653       19.313       73.590       76.505       59.076     5415.443     5853.073     3489.985        2.084        0.738      162.964       48.429        0.088      337.279        9.145      862.677
10/30/2013  17:59:00      174.636      100.494       22.048       54.725       46.409       47.389     2994.833     2153.797     2245.670        2.424        0.370      201.487       26.507        0.017      337.291        9.163      862.693
10/30/2013  18:00:00       74.947       69.813       11.389       49.804       32.853       29.852     2480.420     1079.309      891.146        0.754        0.223      102.425       27.028        0.070      337.264        9.120      862.723
10/30/2013  18:01:00       67.022       34.192        7.142       20.551       30.368       17.108      422.353      922.237      292.694        0.367        0.082       75.240        5.301        0.005      337.239        9.079      862.751
10/30/2013  18:02:00       20.458       34.275       11.049       29.253       42.717       25.004      855.739     1824.731      625.184        0.251        0.165       39.916       19.753        0.245      337.224        9.056      862.783
10/30/2013  18:03:00       30.417       77.547        0.085       29.114       55.579       27.695      847.629     3089.022      767.026        0.582        0.235       83.299       29.211        0.123      337.241        9.083      862.815
10/30/2013  18:04:00       77.440       42.873        7.184       47.659       34.726       23.468     2271.390     1205.875      550.743        0.596        0.201       88.516       13.675        0.024      337.231        9.066      862.841
10/30/2013  18:05:00       51.107       61.368        2.358       34.411       29.875       34.751     1184.145      892.499     1207.627        0.483        0.164       79.862       22.215        0.077      337.211        9.034      862.861
10/30/2013  18:06:00       67.940       71.245        3.812       37.044       39.794       32.856     1372.241     1583.542     1079.513        0.687        0.202       98.446       24.822        0.064      337.194        9.006      862.872
10/30/2013  18:07:00       37.272       38.997        9.901       33.947       25.391       29.966     1152.391      644.703      897.974        0.285        0.135       53.944       21.167        0.154      337.155        8.939      862.861
10/30/2013  18:08:00       44.009       44.443       -6.394       32.752       31.253       21.648     1072.674      976.756      468.655        0.324        0.126       62.546       15.029        0.058      337.127        8.890      862.854
10/30/2013  18:09:00       22.085       42.755       -1.495       24.724       33.828       16.154      611.276     1144.309      260.942        0.217        0.101       48.122       16.076        0.112      337.131        8.898      862.852
10/30/2013  18:10:00       39.784       71.875      -12.538       31.958       34.268       21.448     1021.334     1174.312      460.036        0.478        0.133       82.151       18.016        0.048      337.166        8.957      862.863
10/30/2013  18:11:00       21.543       83.982      -13.497       20.802       24.083       13.404      432.714      579.979      179.654        0.445        0.060       86.701       13.342        0.024      337.192        9.001      862.879
10/30/2013  18:12:00        8.104       88.862      -17.791       22.092       71.234       24.069      488.063     5074.287      579.299        0.721        0.307       89.230       37.584        0.177      337.168        8.962      862.889
10/30/2013  18:13:00       24.338       83.151      -14.185       25.613       38.969       18.500      656.016     1518.564      342.245        0.511        0.126       86.640       19.770        0.052      337.174        8.971      862.902
10/30/2013  18:14:00        7.727       35.095        4.166       24.353       27.161       18.563      593.065      737.697      344.587        0.149        0.084       35.936       16.756        0.217      337.103        8.850      862.919
10/30/2013  18:15:00       31.960       27.142       -8.770       27.681       23.601       25.333      766.211      556.988      641.738        0.190        0.098       41.930       15.555        0.138      337.099        8.842      862.940
10/30/2013  18:16:00       22.865       46.735        4.234       27.339       30.593       20.375      747.422      935.920      415.130        0.241        0.105       52.029       18.861        0.131      337.055        8.769      862.972
10/30/2013  18:17:00        4.758       85.480      -13.245       25.725       20.553       13.392      661.768      422.421      179.358        0.438        0.063       85.612        9.379        0.012      337.090        8.829      863.009
10/30/2013  18:18:00       -5.566       94.123      -16.632       16.207       18.026        9.973      262.664      324.921       99.458        0.493        0.034       94.287        3.652        0.002      337.134        8.903      863.056
10/30/2013  18:19:00       -6.321       93.790      -12.918       21.370       32.869       13.617      456.664     1080.353      185.431        0.536        0.086       94.002       14.856        0.025      337.168        8.960      863.078
10/30/2013  18:20:00      -22.680       77.094       -5.951       41.495       29.977       18.802     1721.807      898.640      353.526        0.473        0.149       80.361       16.880        0.044      337.183        8.986      863.088
10/30/2013  18:21:00      -19.980      122.200      -15.754       26.985       32.005       18.455      728.201     1024.348      340.582        0.884        0.105      123.823       17.163        0.019      337.223        9.052      863.103
10/30/2013  18:22:00      -12.306      133.696      -21.079       45.165       48.379       18.046     2039.911     2340.499      325.655        1.159        0.235      134.261       16.879        0.016      337.181        8.981      863.102
10/30/2013  18:23:00        6.546       73.348      -20.649       15.770       43.393       20.174      248.708     1882.956      406.982        0.419        0.127       73.640       20.461        0.077      337.094        8.837      863.096
10/30/2013  18:24:00       50.739       46.608       -5.880       24.194       23.679       16.608      585.364      560.715      275.831        0.310        0.071       68.896        9.000        0.017      337.041        8.748      863.109
10/30/2013  18:25:00       10.062      113.146       -9.797       36.542       35.490       26.398     1335.293     1259.512      696.871        0.814        0.165      113.592       22.467        0.039      337.066        8.787      863.118
10/30/2013  18:26:00       27.237       92.751      -17.085       25.348       23.012       19.314      642.535      529.555      373.048        0.559        0.077       96.668       11.138        0.013      337.066        8.788      863.126
10/30/2013  18:27:00       58.858       59.324        1.634       34.067       44.034       20.051     1160.580     1939.001      402.025        0.524        0.175       83.568       17.022        0.041      337.043        8.750      863.142
10/30/2013  18:28:00       32.233       64.149       -6.488       23.828       28.156       15.677      567.766      792.761      245.781        0.340        0.080       71.792       16.249        0.051      337.016        8.705      863.148
10/30/2013  18:29:00       36.864       27.415       -2.646       19.148       18.827       10.946      366.632      354.466      119.806        0.148        0.042       45.940       10.410        0.051      337.016        8.704      863.156
10/30/2013  18:30:00       33.086       23.128       -8.712       12.052       19.551        6.515      145.250      382.257       42.448        0.114        0.028       40.369        4.763        0.014      337.035        8.734      863.159
10/30/2013  18:31:00       44.181       31.301       -1.903       17.405       14.470       10.296      302.949      209.387      106.008        0.178        0.031       54.145        5.218        0.009      336.945        8.587      863.162
10/30/2013  18:32:00       68.491       34.697        3.443       22.922       20.504       19.121      525.431      420.396      365.622        0.361        0.066       76.778        9.717        0.016      336.939        8.577      863.177
10/30/2013  18:33:00       40.176       67.519       -8.280       19.900       29.761       16.381      396.009      885.701      268.332        0.390        0.078       78.568       15.395        0.038      336.994        8.667      863.192
10/30/2013  18:34:00       33.644       59.580       -5.694       23.880       37.929       21.930      570.278     1438.584      480.926        0.360        0.124       68.423       18.565        0.074      336.969        8.626      863.213
10/30/2013  18:35:00       42.666       37.378       -2.251       31.675       24.545       18.204     1003.301      602.473      331.369        0.258        0.097       56.723       14.198        0.063      336.908        8.524      863.236
10/30/2013  18:36:00       10.658       24.992       -1.129       23.773       18.573       13.765      565.142      344.945      189.480        0.092        0.055       27.170       11.174        0.169      336.862        8.449      863.259
10/30/2013  18:37:00       25.229       31.391        2.586       18.770       19.844       18.728      352.304      393.793      350.745        0.136        0.055       40.273       12.174        0.091      336.924        8.550      863.272
10/30/2013  18:38:00       29.063       31.302       -1.337       27.557       23.558       13.842      759.411      554.972      191.607        0.167        0.075       42.714       12.857        0.091      336.879        8.478      863.287
10/30/2013  18:39:00       41.391       35.801        3.370       23.373       16.524       21.111      546.300      273.027      445.687        0.214        0.063       54.726       12.918        0.056      336.853        8.433      863.302
10/30/2013  18:40:00       54.541       32.585       -0.087       31.551       30.820       20.846      995.473      949.893      434.535        0.321        0.119       63.533       15.667        0.061      336.892        8.499      863.308
10/30/2013  18:41:00       30.988       32.467        3.241       25.962       21.908       15.912      674.007      479.948      253.194        0.172        0.070       44.881       11.331        0.064      336.895        8.505      863.308
10/30/2013  18:42:00       36.229       63.388       -8.332       27.611       44.171       17.661      762.366     1951.101      311.895        0.421        0.151       73.010       18.978        0.068      336.881        8.482      863.302
10/30/2013  18:43:00        9.079      102.000      -14.989       26.493       20.568       13.800      701.882      423.048      190.435        0.601        0.066      102.404       10.335        0.010      336.940        8.580      863.314
10/30/2013  18:44:00        0.913       79.917      -11.453       18.398       18.988       13.252      338.479      360.539      175.606        0.370        0.044       79.922        9.327        0.014      336.939        8.577      863.323
10/30/2013  18:45:00      -15.529       64.478       -6.408       24.033       24.701       15.600      577.567      610.164      243.366        0.294        0.072       66.322       10.145        0.023      336.956        8.605      863.329
10/30/2013  18:46:00      -38.091       29.565        1.749       21.529       15.657       13.604      463.511      245.132      185.067        0.161        0.045       48.218        9.967        0.043      336.936        8.571      863.328
10/30/2013  18:47:00      -53.840       65.632       -5.951       44.188       42.167       18.360     1952.621     1778.074      337.073        0.565        0.203       84.890       13.908        0.027      336.981        8.647      863.318
10/30/2013  18:48:00     -105.859      109.260      -26.537       33.405       40.716       20.326     1115.915     1657.812      413.145        1.352        0.159      152.131       17.096        0.013      336.829        8.393      863.314
10/30/2013  18:49:00     -111.325      101.892      -30.023       38.182       38.691       21.195     1457.858     1497.012      449.226        1.354        0.170      150.915       18.953        0.016      336.812        8.366      863.312
10/30/2013  18:50:00      -41.063      137.717      -18.813       57.546       60.241       24.330     3311.516     3629.018      591.933        1.427        0.377      143.708       24.455        0.029      336.805        8.354      863.322
10/30/2013  18:51:00      -50.427      166.551      -23.216       54.515       46.552       25.186     2971.895     2167.132      634.330        1.830        0.289      174.017       22.976        0.017      336.781        8.314      863.315
10/30/2013  18:52:00      -87.676      149.778      -23.593       53.128       46.151       32.050     2822.630     2129.924     1027.176        1.833        0.299      173.553       30.516        0.031      336.714        8.201      863.326
10/30/2013  18:53:00      -63.092      147.684      -20.285       37.352       39.063       22.500     1395.158     1525.935      506.270        1.481        0.171      160.596       21.420        0.018      336.793        8.334      863.334
10/30/2013  18:54:00     -113.268      146.783      -30.010       51.616       49.185       30.528     2664.241     2419.204      931.966        2.064        0.301      185.405       29.261        0.025      336.772        8.297      863.352
10/30/2013  18:55:00      -48.974      151.911      -21.187       35.392       43.549       24.341     1252.612     1896.530      592.487        1.483        0.187      159.610       23.300        0.021      336.737        8.240      863.362
10/30/2013  18:56:00      -57.755       96.454      -11.894       45.833       37.938       26.506     2100.671     1439.290      702.547        0.851        0.212      112.423       24.140        0.046      336.711        8.197      863.388
10/30/2013  18:57:00      -42.599       93.994       -7.454       35.570       46.086       30.136     1265.253     2123.886      908.171        0.750        0.215      103.196       28.862        0.078      336.696        8.172      863.403
10/30/2013  18:58:00        3.172      179.783      -20.672       29.730       66.889       29.330      883.878     4474.189      860.254        1.949        0.311      179.811       38.260        0.045      336.620        8.044      863.412
10/30/2013  18:59:00      -43.873      216.552      -28.236       51.114       60.784       28.988     2612.656     3694.669      840.294        2.838        0.357      220.952       26.421        0.014      336.585        7.983      863.410
10/30/2013  19:00:00      -22.565      162.863      -22.774       39.571       35.326       20.001     1565.866     1247.926      400.038        1.538        0.161      164.419       15.048        0.008      336.586        7.987      863.411
10/30/2013  19:01:00       -3.069      169.920      -23.454       35.921       47.798       20.229     1290.332     2284.609      409.210        1.671        0.199      169.947       13.696        0.006      336.536        7.902      863.420
10/30/2013  19:02:00      -20.075      202.990      -16.942       28.690       39.409       20.122      823.118     1553.035      404.912        2.234        0.139      203.981       15.804        0.006      336.514        7.868      863.438
10/30/2013  19:03:00      -38.624      197.703      -20.844       33.122       40.133       21.126     1097.067     1610.635      446.310        2.208        0.158      201.440       18.785        0.009      336.532        7.897      863.459
10/30/2013  19:04:00      -27.214      192.143      -24.742       32.683       31.891       18.647     1068.170     1017.064      347.701        2.035        0.122      194.061       13.569        0.005      336.529        7.891      863.498
10/30/2013  19:05:00      -61.994      114.887      -17.124       42.224       56.732       23.146     1782.830     3218.485      535.724        1.144        0.277      130.546       21.777        0.028      336.583        7.982      863.540
10/30/2013  19:06:00      -83.948       74.281      -16.084       39.469       54.594       23.653     1557.803     2980.519      559.483        0.896        0.255      112.093       21.101        0.035      336.526        7.887      863.559
10/30/2013  19:07:00      -52.923      142.192      -14.975       45.550       55.411       33.461     2074.770     3070.395     1119.641        1.475        0.313      151.721       31.010        0.042      336.500        7.843      863.565
10/30/2013  19:08:00      -65.007      128.577      -16.882       44.235       57.754       27.134     1956.771     3335.511      736.229        1.353        0.301      144.077       21.781        0.023      336.538        7.908      863.563
10/30/2013  19:09:00     -135.205       54.270      -15.550       58.259       46.061       27.202     3394.097     2121.655      739.956        1.386        0.313      145.690       27.118        0.035      336.468        7.789      863.583
10/30/2013  19:10:00      -72.441      115.173      -16.428       42.398       54.698       34.479     1797.614     2991.879     1188.812        1.238        0.299      136.061       23.974        0.031      336.382        7.647      863.601
10/30/2013  19:11:00     -124.337      128.881      -21.349       44.699       53.757       31.841     1997.958     2889.835     1013.862        1.921        0.295      179.081       27.259        0.023      336.357        7.603      863.629
10/30/2013  19:12:00      -91.935      115.633      -27.547       42.259       38.047       26.767     1785.834     1447.578      716.498        1.327        0.197      147.726       25.283        0.029      336.308        7.521      863.629
10/30/2013  19:13:00      -88.314      103.680      -14.621       45.361       52.936       31.602     2057.575     2802.242      998.703        1.231        0.293      136.195       26.329        0.037      336.355        7.601      863.639
10/30/2013  19:14:00     -109.640      152.096      -30.648       48.859       62.443       32.628     2387.227     3899.094     1064.564        2.172        0.368      187.495       30.238        0.026      336.301        7.508      863.647
10/30/2013  19:15:00      -75.539      195.566      -24.527       33.872       42.484       30.197     1147.332     1804.897      911.850        2.421        0.193      209.648       21.410        0.010      336.355        7.598      863.657
10/30/2013  19:16:00     -116.809      191.566      -37.883       40.850       46.898       25.505     1668.716     2199.432      650.523        2.815        0.226      224.370       20.559        0.008      336.300        7.506      863.654
10/30/2013  19:17:00      -40.775      140.386      -13.525       38.675       61.022       25.374     1495.787     3723.723      643.856        1.371        0.293      146.188       29.930        0.042      336.308        7.521      863.667
10/30/2013  19:18:00      -31.500      141.516       -9.190       39.139       66.000       33.014     1531.878     4355.978     1089.937        1.404        0.349      144.979       37.896        0.068      336.299        7.507      863.667
10/30/2013  19:19:00      -52.832      208.003      -28.551       43.078       54.632       28.140     1855.689     2984.703      791.842        2.625        0.282      214.608       24.533        0.013      336.248        7.420      863.675
10/30/2013  19:20:00      -80.813      152.893      -25.485       78.327       62.626       38.746     6135.149     3922.042     1501.247        2.106        0.578      172.937       34.842        0.041      336.303        7.512      863.681
10/30/2013  19:21:00      -95.118      162.188      -23.096       66.134       59.770       32.555     4373.744     3572.498     1059.855        2.244        0.450      188.022       17.633        0.009      336.238        7.405      863.704
10/30/2013  19:22:00      -34.137      115.956        8.030       39.251       75.017       35.231     1540.667     5627.606     1241.199        1.154        0.420      120.877       35.538        0.086      336.205        7.350      863.713
10/30/2013  19:23:00      -77.712       99.444      -18.784       37.395       55.459       25.679     1398.398     3075.680      659.385        1.071        0.257      126.207       27.247        0.047      336.258        7.439      863.744
10/30/2013  19:24:00      -39.464      181.413      -23.172       31.479       46.685       24.721      990.914     2179.456      611.119        1.939        0.189      185.656       23.835        0.016      336.223        7.380      863.767
10/30/2013  19:25:00      -47.978      202.227      -22.126       32.664       44.266       21.789     1066.945     1959.450      474.743        2.359        0.175      207.840       17.154        0.007      336.292        7.494      863.795
10/30/2013  19:26:00        3.275      162.296      -22.525       44.019       51.152       31.704     1937.632     2616.512     1005.149        1.621        0.278      162.329       27.997        0.030      336.190        7.325      863.796
10/30/2013  19:27:00      -23.738      155.142      -19.393       46.732       52.932       29.480     2183.856     2801.782      869.051        1.543        0.293      156.948       27.052        0.030      336.185        7.315      863.806
10/30/2013  19:28:00      -27.077       96.634       -4.297       47.164       39.926       28.367     2224.456     1594.095      804.708        0.736        0.231      100.355       25.477        0.064      336.242        7.411      863.801
10/30/2013  19:29:00       14.776      130.106      -21.935       25.451       67.400       23.525      647.770     4542.783      553.440        1.168        0.287      130.943       35.463        0.073      336.243        7.412      863.806
10/30/2013  19:30:00      -57.883      112.549      -14.387       57.332       61.885       37.767     3286.902     3829.794     1426.350        1.238        0.427      126.561       37.552        0.088      336.163        7.278      863.809
10/30/2013  19:31:00       15.141       67.230        9.503       45.309       49.812       37.384     2052.889     2481.213     1397.600        0.538        0.297       68.914       41.936        0.370      336.160        7.276      863.814
10/30/2013  19:32:00       15.566      102.414      -10.690       40.134       45.177       26.126     1610.733     2040.949      682.574        0.759        0.217      103.590       24.839        0.057      336.123        7.212      863.814
10/30/2013  19:33:00        5.673      134.098      -18.554       38.927       44.727       30.396     1515.338     2000.523      923.922        1.140        0.222      134.218       23.715        0.031      336.197        7.337      863.830
10/30/2013  19:34:00       -4.521       55.384        4.896       22.813       38.402       21.910      520.429     1474.681      480.063        0.279        0.124       55.569       22.899        0.170      336.145        7.248      863.851
10/30/2013  19:35:00      -31.695      133.029       -5.979       49.796       68.955       31.115     2479.651     4754.747      968.154        1.347        0.410      136.753       40.707        0.089      336.245        7.416      863.868
10/30/2013  19:36:00      -64.090      156.112      -20.456       38.023       38.035       23.353     1445.748     1446.692      545.367        1.617        0.172      168.756       17.116        0.010      336.339        7.573      863.893
10/30/2013  19:37:00      -28.758      123.640      -11.931       31.891       54.088       25.226     1017.040     2925.469      636.359        1.042        0.229      126.940       27.251        0.046      336.373        7.631      863.911
10/30/2013  19:38:00      -27.227      154.044      -18.877       30.799       49.379       19.744      948.576     2438.254      389.808        1.430        0.189      156.432       21.554        0.019      336.410        7.692      863.925
10/30/2013  19:39:00      -33.488      158.342      -24.071       43.990       60.020       23.903     1935.091     3602.420      571.347        1.644        0.305      161.844       24.637        0.023      336.378        7.639      863.956
10/30/2013  19:40:00      -13.896      158.486      -20.112       31.483       52.182       18.080      991.199     2722.998      326.869        1.488        0.202      159.095       16.120        0.010      336.352        7.596      863.962
10/30/2013  19:41:00      -20.931      118.524      -20.402       39.559       41.100       20.338     1564.892     1689.228      413.653        0.928        0.183      120.358       16.506        0.019      336.390        7.659      863.988
10/30/2013  19:42:00      -26.228       49.936       -7.310       44.985       32.056       25.300     2023.614     1027.605      640.066        0.346        0.185       56.405       22.493        0.159      336.408        7.689      864.007
10/30/2013  19:43:00      -35.254      118.865      -13.140       49.878       50.813       33.740     2487.823     2581.933     1138.397        1.088        0.310      123.983       17.484        0.020      336.412        7.695      864.022
10/30/2013  19:44:00       10.636       84.099      -14.875       41.307       45.416       20.096     1706.244     2062.595      403.852        0.579        0.209       84.769       13.904        0.027      336.372        7.631      864.047
10/30/2013  19:45:00       -4.056       55.202        2.600       50.313       37.256       27.582     2531.367     1387.973      760.767        0.387        0.234       55.350       20.949        0.143      336.264        7.450      864.055
10/30/2013  19:46:00      -11.872      131.522      -17.200       39.778       62.845       34.146     1582.283     3949.485     1165.978        1.222        0.335      132.057       36.099        0.075      336.325        7.552      864.065
10/30/2013  19:47:00      -52.677      122.886      -11.298       49.699       46.716       27.723     2470.006     2182.345      768.582        1.171        0.271      133.700       24.507        0.034      336.407        7.689      864.082
10/30/2013  19:48:00      -18.658      172.670      -17.385       44.492       55.173       32.485     1979.499     3044.101     1055.264        1.827        0.304      173.675       32.458        0.035      336.372        7.628      864.102
10/30/2013  19:49:00       17.106      140.425       -1.402       59.265       73.894       39.376     3512.384     5460.374     1550.471        1.527        0.526      141.463       41.434        0.086      336.247        7.419      864.114
10/30/2013  19:50:00      -17.628      187.607      -19.030       48.098       66.220       27.341     2313.381     4385.146      747.512        2.166        0.372      188.433       20.719        0.012      336.240        7.408      864.133
10/30/2013  19:51:00        6.947      135.177      -23.382       40.188       71.503       29.499     1615.106     5112.701      870.199        1.323        0.380      135.355       36.948        0.075      336.140        7.242      864.150
10/30/2013  19:52:00       -9.937      122.460      -17.959       38.196       39.825       23.122     1458.900     1585.994      534.645        0.950        0.179      122.863       20.002        0.027      336.164        7.282      864.175
10/30/2013  19:53:00      -46.404      201.237      -29.756       42.256       65.746       26.762     1785.569     4322.563      716.186        2.518        0.341      206.518       24.645        0.014      336.341        7.576      864.186
10/30/2013  19:54:00      -44.736      183.296      -21.144       41.419       71.452       24.994     1715.561     5105.317      624.695        2.174        0.372      188.677       31.615        0.028      336.368        7.621      864.192
10/30/2013  19:55:00      -22.172      130.900      -20.710       44.531       44.757       25.666     1983.006     2003.145      658.745        1.135        0.232      132.765       27.507        0.043      336.237        7.404      864.217
10/30/2013  19:56:00        8.686      120.909      -19.397       29.682       36.145       15.051      881.041     1306.434      226.523        0.874        0.121      121.220       16.251        0.018      336.131        7.226      864.247
10/30/2013  19:57:00       29.370       77.464      -10.978       25.584       40.884       19.460      654.550     1671.498      378.694        0.484        0.135       82.844       22.430        0.073      336.050        7.092      864.265
10/30/2013  19:58:00       32.909      117.730      -17.165       31.923       31.890       23.470     1019.097     1016.949      550.820        0.891        0.129      122.243       19.863        0.026      336.062        7.110      864.281
10/30/2013  19:59:00       34.290       89.183       -4.846       28.703       33.272       27.436      823.889     1107.045      752.755        0.592        0.134       95.548       20.930        0.048      336.019        7.041      864.296
10/30/2013  20:00:00       27.538       84.135       -3.332       43.593       50.979       27.715     1900.353     2598.874      768.101        0.656        0.263       88.527       26.744        0.091      336.033        7.062      864.326
10/30/2013  20:01:00       17.453       77.532       -3.743       42.845       49.129       31.583     1835.702     2413.636      997.492        0.579        0.262       79.472       28.711        0.131      335.968        6.954      864.353
10/30/2013  20:02:00       33.387      124.385      -19.360       30.178       33.213       21.910      910.741     1103.133      480.059        0.973        0.125      128.788       15.821        0.015      335.992        6.994      864.369
10/30/2013  20:03:00       26.496      177.345      -25.228       32.664       52.483       22.984     1066.968     2754.428      528.242        1.857        0.217      179.313       23.921        0.018      336.027        7.053      864.387
10/30/2013  20:04:00      -30.175      174.493      -23.788       29.549       46.637       16.721      873.170     2174.973      279.591        1.763        0.166      177.083       14.885        0.007      336.135        7.234      864.416
10/30/2013  20:05:00      -67.095      123.648      -17.094       38.178       49.919       28.471     1457.543     2491.934      810.608        1.242        0.238      140.678       28.775        0.042      336.281        7.477      864.434
10/30/2013  20:06:00      -96.261      147.900      -37.415       43.528       43.453       26.859     1894.661     1888.133      721.387        1.852        0.225      176.467       21.902        0.015      336.203        7.347      864.428
10/30/2013  20:07:00      -87.445       72.041      -20.091       50.372       51.378       23.933     2537.368     2639.717      572.781        0.949        0.287      113.298       23.428        0.043      336.260        7.441      864.423
10/30/2013  20:08:00      -81.993       67.471      -25.655       32.680       30.871       16.402     1067.973      953.023      269.026        0.711        0.115      106.185       17.198        0.026      336.218        7.373      864.433
10/30/2013  20:09:00      -44.459       15.047      -12.716       38.360       46.977       17.826     1471.487     2206.873      317.749        0.318        0.200       46.936       20.277        0.187      336.260        7.441      864.445
10/30/2013  20:10:00      -68.476       11.791      -13.499       26.126       45.354       20.632      682.589     2056.950      425.676        0.409        0.158       69.484       10.611        0.023      336.251        7.427      864.455
10/30/2013  20:11:00      -44.469       37.804      -19.876       17.703       27.643       15.595      313.397      764.161      243.211        0.256        0.066       58.367        9.617        0.027      336.244        7.417      864.465
10/30/2013  20:12:00      -83.130       -5.843       -6.886       25.498       30.182       20.372      650.139      910.963      415.037        0.448        0.099       83.335        6.407        0.006      336.251        7.428      864.460
10/30/2013  20:13:00      -97.347       12.915      -12.925       15.860       16.190       14.856      251.537      262.109      220.689        0.527        0.037       98.200        6.468        0.004      336.217        7.368      864.450
10/30/2013  20:14:00      -26.620       23.085       -5.228       57.885       37.120       20.606     3350.718     1377.865      424.624        0.321        0.258       35.236       19.700        0.313      336.180        7.307      864.449
10/30/2013  20:15:00      -64.646        2.122       -5.691       30.683       27.961       16.362      941.454      781.823      267.700        0.310        0.100       64.681       10.800        0.028      336.284        7.482      864.447
10/30/2013  20:16:00      -84.253       39.761      -21.014       31.023       27.563       14.761      962.412      759.727      217.890        0.553        0.097       93.164       20.049        0.046      336.216        7.370      864.455
10/30/2013  20:17:00      -45.827       48.038      -20.668       24.158       34.965       16.844      583.633     1222.559      283.731        0.346        0.104       66.391        9.359        0.020      336.187        7.321      864.477
10/30/2013  20:18:00      -99.915        7.753      -10.305       24.961       19.495       19.968      623.053      380.053      398.734        0.578        0.070      100.215       15.625        0.024      336.230        7.393      864.488
10/30/2013  20:19:00      -78.757        1.564      -12.359       24.235       11.925       14.354      587.347      142.194      206.043        0.365        0.047       78.773       10.702        0.018      336.186        7.318      864.505
10/30/2013  20:20:00      -80.271       25.957      -10.141       48.992       28.117       20.411     2400.184      790.593      416.607        0.541        0.180       84.363       17.313        0.042      336.175        7.300      864.525
10/30/2013  20:21:00     -110.564      101.711      -31.085       32.853       38.143       22.789     1079.294     1454.903      519.325        1.329        0.153      150.232       22.344        0.022      336.145        7.249      864.532
10/30/2013  20:22:00     -108.608       51.427      -13.108       36.480       31.364       21.647     1330.758      983.728      468.581        0.870        0.139      120.168        9.442        0.006      336.099        7.173      864.521
10/30/2013  20:23:00       -6.436       53.892        4.794       30.990       23.468       19.518      960.389      550.754      380.943        0.243        0.095       54.275       18.433        0.115      336.072        7.128      864.514
10/30/2013  20:24:00       27.692      151.245      -16.917       51.411       42.427       30.055     2643.120     1800.083      903.303        1.464        0.267      153.759       25.773        0.028      336.058        7.104      864.488
10/30/2013  20:25:00       18.746      163.024      -26.738       27.555       40.589       23.296      759.265     1647.504      542.685        1.530        0.147      164.099       24.757        0.023      336.012        7.027      864.491
10/30/2013  20:26:00       31.394      127.633      -15.693       39.405       46.405       30.749     1552.771     2153.387      945.532        1.109        0.233      131.438       29.339        0.050      335.979        6.973      864.517
10/30/2013  20:27:00      -16.967      156.017      -18.459       24.017       60.128       23.874      576.813     3615.362      569.982        1.487        0.238      156.937       25.393        0.026      335.973        6.962      864.545
10/30/2013  20:28:00       19.929       96.356       -7.720       50.675       79.173       38.334     2567.972     6268.286     1469.465        1.002        0.515       98.396       43.175        0.193      335.913        6.864      864.564
10/30/2013  20:29:00        7.579      170.193      -30.586       50.292       57.068       29.984     2529.278     3256.700      899.057        1.832        0.334      170.362       28.979        0.029      335.918        6.870      864.574
10/30/2013  20:30:00      -22.012      172.444      -21.633       21.128       38.401       18.059      446.406     1474.624      326.127        1.647        0.112      173.843       14.337        0.007      335.929        6.889      864.573
10/30/2013  20:31:00      -23.121      202.624      -26.582       37.635       51.667       26.347     1416.401     2669.491      694.178        2.354        0.239      203.939       23.587        0.013      335.941        6.906      864.592
10/30/2013  20:32:00      -23.868       99.110      -10.853       32.761       55.892       26.356     1073.302     3123.881      694.651        0.770        0.245      101.943       26.589        0.068      335.900        6.841      864.588
10/30/2013  20:33:00       12.244      142.891      -17.558       26.938       22.345       20.854      725.665      499.319      434.909        1.127        0.083      143.415       15.048        0.011      335.890        6.825      864.572
10/30/2013  20:34:00      -66.817      152.809      -14.744       45.005       68.983       34.067     2025.467     4758.674     1160.582        1.799        0.397      166.778       36.904        0.049      335.987        6.985      864.578
10/30/2013  20:35:00      -91.388      105.153      -20.584       52.062       45.059       26.860     2710.498     2030.335      721.451        1.265        0.273      139.316       26.346        0.036      335.988        6.988      864.575
10/30/2013  20:36:00      -39.017      153.639      -14.512       35.545       63.776       23.361     1263.441     4067.372      545.746        1.561        0.294      158.516       22.079        0.019      335.944        6.914      864.582
10/30/2013  20:37:00      -27.938      145.218      -19.073       27.016       37.555       17.993      729.885     1410.413      323.740        1.235        0.123      147.881       11.922        0.006      335.994        6.999      864.580
10/30/2013  20:38:00      -38.440      175.117      -25.529       35.709       62.323       26.752     1275.138     3884.102      715.665        1.933        0.294      179.286       13.201        0.005      335.958        6.936      864.588
10/30/2013  20:39:00      -51.801      207.949      -23.550       31.388       41.950       19.268      985.178     1759.765      371.271        2.480        0.156      214.304       15.998        0.006      335.961        6.940      864.606
10/30/2013  20:40:00      -41.278      166.984      -15.044       35.549       49.650       22.223     1263.735     2465.134      493.882        1.702        0.211      172.010       18.489        0.012      335.980        6.974      864.629
10/30/2013  20:41:00      -19.454      137.713      -14.100       24.354       40.189       17.068      593.109     1615.187      291.305        1.102        0.125      139.080       10.262        0.005      335.938        6.904      864.656
10/30/2013  20:42:00      -43.422      103.177      -11.169       33.743       31.177       22.600     1138.563      971.977      510.757        0.764        0.131      111.942       12.929        0.013      336.044        7.082      864.680
10/30/2013  20:43:00      -58.355       79.205      -14.553       39.057       42.835       21.491     1525.417     1834.857      461.858        0.686        0.191       98.381       10.192        0.011      336.063        7.112      864.703
10/30/2013  20:44:00      -91.589       73.909      -16.783       39.734       36.826       28.821     1578.815     1356.134      830.634        0.895        0.188      117.690       24.912        0.045      335.992        6.995      864.734
10/30/2013  20:45:00     -107.788       81.866      -18.799       25.959       37.680       20.005      673.894     1419.786      400.180        1.058        0.125      135.352       10.611        0.006      336.017        7.036      864.745
10/30/2013  20:46:00      -92.956       -5.604       -7.584       29.645       27.334       21.043      878.803      747.129      442.825        0.540        0.103       93.125       15.362        0.027      336.046        7.083      864.757
10/30/2013  20:47:00      -91.388      -32.379      -15.848       23.549       19.248       18.657      554.562      370.469      348.080        0.546        0.064       96.955        9.989        0.011      336.053        7.096      864.761
10/30/2013  20:48:00      -70.364        4.875      -12.737       29.927       42.282       14.231      895.599     1787.757      202.515        0.401        0.144       70.533        6.341        0.008      335.989        6.989      864.759
10/30/2013  20:49:00     -101.590        4.589      -12.349       46.579       36.152       18.091     2169.628     1306.941      327.279        0.715        0.190      101.693       18.579        0.033      335.898        6.838      864.757
10/30/2013  20:50:00      -79.157       33.129      -20.793       30.705       58.437       18.992      942.785     3414.858      360.702        0.626        0.236       85.810       16.971        0.039      335.974        6.964      864.768
10/30/2013  20:51:00      -51.138       -6.592        1.761       33.380       44.525       19.262     1114.197     1982.493      371.019        0.306        0.173       51.561       15.009        0.085      335.919        6.872      864.789
10/30/2013  20:52:00     -114.249       42.240      -14.802       50.933       30.664       25.336     2594.191      940.283      641.935        0.962        0.209      121.808       11.028        0.008      335.973        6.963      864.808
10/30/2013  20:53:00      -89.053       82.110      -15.908       53.615       39.955       30.469     2874.526     1596.440      928.372        1.016        0.270      121.130       30.752        0.064      335.926        6.885      864.828
10/30/2013  20:54:00      -93.922       35.645      -18.758       39.946       60.096       32.678     1595.697     3611.578     1067.882        0.836        0.314      100.459       23.257        0.054      335.962        6.945      864.851
10/30/2013  20:55:00      -40.635       57.703       -4.625       48.762       28.204       25.366     2377.744      795.455      643.410        0.441        0.191       70.575       30.796        0.190      335.925        6.883      864.858
10/30/2013  20:56:00      -88.633       74.698      -22.681       36.241       46.561       27.962     1313.412     2167.909      781.862        0.911        0.213      115.912       22.093        0.036      335.978        6.971      864.865
10/30/2013  20:57:00     -118.410       88.081      -27.765       27.125       52.437       22.866      735.763     2749.612      522.868        1.328        0.200      147.578       23.488        0.025      335.983        6.980      864.871
10/30/2013  20:58:00      -64.683       65.865       -2.114       32.191       36.086       24.420     1036.271     1302.214      596.354        0.573        0.147       92.316       18.245        0.039      335.945        6.916      864.876
10/30/2013  20:59:00      -55.023       11.990        1.279       38.240       24.341       22.539     1462.287      592.475      508.007        0.287        0.128       56.315       13.992        0.062      335.981        6.977      864.885
10/30/2013  21:00:00      -36.153       -8.389       -0.077       20.824       22.589       13.968      433.620      510.265      195.098        0.126        0.057       37.114        9.480        0.065      335.908        6.854      864.897
10/30/2013  21:01:00      -18.613      -12.613       -1.500       26.296       13.695       11.481      691.473      187.550      131.805        0.076        0.051       22.484        8.832        0.154      335.960        6.943      864.914
10/30/2013  21:02:00      -39.421       13.726      -10.615       33.705       32.169       20.111     1136.053     1034.842      404.466        0.221        0.129       41.742       19.049        0.208      335.952        6.928      864.940
10/30/2013  21:03:00      -24.244      -32.811        4.053       31.584       28.998       19.821      997.556      840.886      392.864        0.196        0.112       40.797       18.199        0.199      335.972        6.961      864.955
10/30/2013  21:04:00      -24.389       13.647        1.795       28.566       40.990       21.463      816.005     1680.160      460.650        0.187        0.148       27.948       23.754        0.722      335.863        6.781      864.959
10/30/2013  21:05:00      -35.474        6.396       -8.541       27.402       26.907       23.915      750.897      723.969      571.909        0.171        0.102       36.046       22.219        0.380      335.885        6.817      864.972
10/30/2013  21:06:00      -24.919       17.698       -2.539       25.736       17.469       18.828      662.333      305.154      354.489        0.113        0.066       30.564       14.568        0.227      335.914        6.865      864.987
10/30/2013  21:07:00      -54.603      -22.936       -5.527       19.042       16.364       10.504      362.616      267.783      110.340        0.214        0.037       59.225        8.424        0.020      335.906        6.850      864.996
10/30/2013  21:08:00      -80.104      -30.652       -9.544       25.176       16.148       11.078      633.832      260.765      122.716        0.423        0.051       85.769        9.919        0.013      335.830        6.726      865.012
10/30/2013  21:09:00      -61.131      -23.084      -14.907       20.019       17.440       11.322      400.747      304.162      128.193        0.266        0.042       65.344        6.986        0.011      335.791        6.660      865.034
10/30/2013  21:10:00      -56.094       42.348       -7.535       21.278       39.261       16.852      452.750     1541.440      283.987        0.364        0.114       70.285       14.912        0.045      335.803        6.681      865.043
10/30/2013  21:11:00      -54.855       -4.996       -3.179       25.387       21.342       12.109      644.516      455.474      146.630        0.215        0.062       55.082       10.715        0.038      335.825        6.719      865.039
10/30/2013  21:12:00      -38.798        1.777       -5.878       20.698       18.775       10.541      428.421      352.505      111.121        0.122        0.045       38.839       11.980        0.095      335.833        6.731      865.034
10/30/2013  21:13:00      -53.344       20.749       -8.745       10.824       19.941        9.697      117.168      397.647       94.037        0.198        0.030       57.238        6.589        0.013      335.857        6.769      865.043
10/30/2013  21:14:00      -70.867      -13.003       -5.894       25.225       12.705        9.153      636.287      161.416       83.778        0.305        0.044       72.050        4.996        0.005      335.790        6.659      865.060
10/30/2013  21:15:00      -72.358      -20.508       -7.067       16.000       13.022       12.298      256.013      169.584      151.237        0.314        0.029       75.209        8.646        0.013      335.739        6.574      865.088
10/30/2013  21:16:00      -44.462      -28.125       -9.562       44.154       11.291       12.535     1949.570      127.491      157.127        0.255        0.112       52.611       18.137        0.119      335.732        6.562      865.114
10/30/2013  21:17:00      -32.952      -20.111        0.703       24.193       12.590       16.563      585.291      158.508      274.347        0.125        0.051       38.605       16.295        0.178      335.695        6.502      865.129
10/30/2013  21:18:00      -31.666      -20.311       -0.349       19.280       11.722       11.216      371.718      137.411      125.803        0.103        0.032       37.620       11.210        0.089      335.671        6.461      865.148
10/30/2013  21:19:00      -54.354      -26.136       -5.765       12.181       11.370        6.737      148.369      129.274       45.388        0.200        0.016       60.312        5.573        0.009      335.576        6.303      865.158
10/30/2013  21:20:00      -14.321       -7.792        4.657       10.822       14.574        6.469      117.107      212.394       41.852        0.033        0.019       16.303        5.739        0.124      335.509        6.190      865.161
10/30/2013  21:21:00       -4.048       -6.289       -3.944       24.502       20.066       13.835      600.329      402.626      191.416        0.063        0.060        7.479       10.420        1.941      335.597        6.335      865.151
10/30/2013  21:22:00       16.979      -19.721        5.833       26.949       25.141       23.003      726.272      632.081      529.116        0.130        0.094       26.024       16.904        0.422      335.600        6.342      865.136
10/30/2013  21:23:00       43.448      -33.943       -4.839       30.959       30.044       28.621      958.489      902.646      819.178        0.287        0.134       55.135       24.479        0.197      335.636        6.402      865.121
10/30/2013  21:24:00        4.312       -1.987       32.507       18.834       37.194       21.325      354.708     1383.359      454.776        0.164        0.110        4.748       19.419       16.726      335.569        6.290      865.115
10/30/2013  21:25:00       15.783       -6.499       21.735       21.672       18.550       17.296      469.691      344.090      299.143        0.094        0.056       17.068       10.250        0.361      335.575        6.301      865.103
10/30/2013  21:26:00       39.109      -72.716       -4.323       20.079       19.903       15.528      403.151      396.126      241.108        0.394        0.052       82.566       10.546        0.016      335.749        6.591      865.097
10/30/2013  21:27:00      -21.684      -28.833       10.315       25.466       15.434       14.707      648.516      238.194      216.294        0.126        0.055       36.077       15.283        0.179      335.625        6.384      865.103
10/30/2013  21:28:00      -22.242      -23.904       -4.478       17.515       17.022       12.557      306.782      289.747      157.678        0.092        0.038       32.651        5.835        0.032      335.570        6.292      865.111
10/30/2013  21:29:00       -8.978      -22.655        4.494       14.270       12.864       10.869      203.630      165.482      118.138        0.055        0.024       24.369        8.567        0.124      335.579        6.306      865.124
10/30/2013  21:30:00      -28.197      -23.430       -1.841       17.253        9.300       13.689      297.656       86.495      187.391        0.096        0.029       36.662        9.335        0.065      335.544        6.249      865.122
10/30/2013  21:31:00      -45.160      -20.742       -9.824       11.971        7.127        7.003      143.308       50.792       49.041        0.140        0.012       49.696        5.231        0.011      335.567        6.285      865.111
10/30/2013  21:32:00      -47.659      -19.360       -5.520       15.037       10.293        6.570      226.114      105.942       43.160        0.153        0.019       51.441        4.657        0.008      335.561        6.276      865.103
10/30/2013  21:33:00      -79.613      -37.954       -4.957       17.285       18.686       11.722      298.774      349.162      137.405        0.429        0.039       88.197        5.766        0.004      335.376        5.969      865.114
10/30/2013  21:34:00      -88.934      -16.345       -3.533       28.690       27.604       16.496      823.108      761.989      272.125        0.502        0.093       90.423       14.063        0.024      335.254        5.765      865.127
10/30/2013  21:35:00     -118.296      -47.587       -5.656       43.504       35.771       21.086     1892.583     1279.537      444.603        0.995        0.181      127.509       19.922        0.024      335.120        5.544      865.134
10/30/2013  21:36:00     -101.941      -44.014       -1.843       42.238       31.605       21.909     1784.059      998.893      480.003        0.780        0.163      111.037       21.753        0.038      335.121        5.546      865.133
10/30/2013  21:37:00      -89.272      -21.366       -4.678       30.712       23.288       13.692      943.248      542.311      187.470        0.506        0.084       91.793        9.379        0.010      335.171        5.626      865.130
10/30/2013  21:38:00     -108.090      -42.912       -6.483       18.932       25.700       14.231      358.414      660.504      202.515        0.739        0.061      116.296        7.579        0.004      335.168        5.623      865.143
10/30/2013  21:39:00     -108.967      -24.968        1.865       26.183       27.048       18.670      685.556      731.608      348.566        0.713        0.088      111.791       14.841        0.018      335.161        5.611      865.162
10/30/2013  21:40:00     -114.466      -40.418       -0.877       37.161       27.383       20.632     1380.905      749.804      425.684        0.865        0.128      121.393       20.283        0.028      335.172        5.630      865.174
10/30/2013  21:41:00     -128.739      -31.048       -1.304       34.155       32.537       20.282     1166.579     1058.683      411.369        1.009        0.132      132.430       17.718        0.018      335.118        5.539      865.192
10/30/2013  21:42:00     -115.689      -44.042        0.449       47.763       35.439       23.400     2281.287     1255.892      547.555        0.970        0.204      123.789       21.385        0.030      335.071        5.464      865.207
10/30/2013  21:43:00     -146.068      -58.857        0.916       36.691       38.519       21.090     1346.246     1483.722      444.789        1.404        0.164      157.480       11.918        0.006      335.063        5.449      865.228
10/30/2013  21:44:00     -166.777      -40.637       -5.999       51.301       41.116       24.926     2631.779     1690.522      621.325        1.722        0.247      171.656       23.791        0.019      334.983        5.316      865.236
10/30/2013  21:45:00     -119.372      -35.932       -6.688       31.759       34.343       18.232     1008.613     1179.463      332.393        0.905        0.126      124.662       11.864        0.009      334.987        5.322      865.238
10/30/2013  21:46:00     -121.801      -35.706       -2.488       47.011       42.965       25.759     2210.001     1846.003      663.539        1.042        0.236      126.927       21.770        0.029      334.943        5.248      865.249
10/30/2013  21:47:00     -105.292      -49.260       -4.997       43.975       34.671       23.187     1933.810     1202.109      537.659        0.861        0.184      116.245       24.242        0.043      334.890        5.160      865.257
10/30/2013  21:48:00      -74.734      -42.262       -2.972       21.333       17.906       14.060      455.101      320.610      197.691        0.418        0.049       85.856       10.242        0.014      334.921        5.213      865.261
10/30/2013  21:49:00      -74.831      -29.473      -11.160       26.068       19.705       15.362      679.560      388.284      235.980        0.395        0.065       80.426       12.806        0.025      334.964        5.283      865.260
10/30/2013  21:50:00     -108.159       -5.120      -14.223       20.859       18.205       13.871      435.077      331.436      192.394        0.644        0.048      108.280        7.315        0.005      334.938        5.241      865.253
10/30/2013  21:51:00     -120.488      -12.366      -14.918       19.293       18.518       12.251      372.212      342.905      150.075        0.788        0.043      121.121        8.660        0.005      334.910        5.194      865.248
10/30/2013  21:52:00     -102.678       -5.199       -8.983       24.143       23.088       18.361      582.886      533.049      337.114        0.605        0.073      102.810       14.072        0.019      334.881        5.148      865.252
10/30/2013  21:53:00      -95.200      -25.355       -7.689       30.046       21.163       15.188      902.747      447.862      230.664        0.567        0.079       98.518       12.439        0.016      334.861        5.112      865.249
10/30/2013  21:54:00      -99.067       -0.857      -12.847       27.965       22.270       15.768      782.058      495.938      248.631        0.575        0.076       99.071       11.851        0.014      334.893        5.168      865.249
10/30/2013  21:55:00     -113.404        8.466      -12.439       24.937       20.183       13.329      621.853      407.364      177.649        0.715        0.060      113.720        9.881        0.008      334.966        5.288      865.251
10/30/2013  21:56:00      -86.654        5.216       -4.563       26.574       18.926       17.819      706.178      358.202      317.520        0.447        0.069       86.811       16.406        0.036      334.951        5.264      865.256
10/30/2013  21:57:00      -81.832      -25.065       -6.913       28.769       20.736       17.982      827.627      429.977      323.345        0.448        0.079       85.584       16.811        0.039      334.989        5.326      865.271
10/30/2013  21:58:00     -101.095      -21.588       -7.026       36.178       26.879       17.292     1308.876      722.473      299.027        0.653        0.117      103.375       18.367        0.032      334.921        5.213      865.299
10/30/2013  21:59:00     -101.250        1.132       -9.005       38.683       25.809       19.578     1496.364      666.123      383.290        0.644        0.127      101.256       17.460        0.030      334.814        5.034      865.317
10/30/2013  22:00:00     -105.786        0.157      -10.199       26.963       23.111       16.775      727.024      534.138      281.386        0.642        0.077      105.787       13.641        0.017      334.777        4.973      865.354
10/30/2013  22:01:00     -108.919        8.874      -11.829       28.628       16.084       13.870      819.557      258.695      192.371        0.668        0.064      109.280       14.225        0.017      334.813        5.034      865.402
10/30/2013  22:02:00     -120.266        0.840      -11.696       22.662       29.509       12.465      513.581      870.755      155.364        0.807        0.077      120.269       11.765        0.010      334.860        5.112      865.426
10/30/2013  22:03:00     -120.868      -20.211      -12.836       28.557       19.296       14.880      815.519      372.322      221.423        0.830        0.070      122.546       14.142        0.013      334.887        5.156      865.443
10/30/2013  22:04:00     -118.153      -18.101       -8.587       30.621       23.290       21.232      937.643      542.402      450.792        0.815        0.097      119.531       17.258        0.021      334.808        5.024      865.458
10/30/2013  22:05:00     -109.163      -27.070      -19.957       28.495       22.749       21.837      811.967      517.506      476.844        0.743        0.090      112.469       18.240        0.026      334.809        5.027      865.467
10/30/2013  22:06:00      -95.931      -24.229       -7.314       30.216       28.727       17.853      912.988      825.252      318.722        0.595        0.103       98.944       16.384        0.027      334.763        4.949      865.476
10/30/2013  22:07:00     -100.289       -3.547      -10.795       23.933       23.585       15.364      572.783      556.270      236.037        0.578        0.068      100.352       10.277        0.010      334.765        4.953      865.507
10/30/2013  22:08:00     -109.120       -4.263      -15.837       26.230       25.475       14.901      688.003      648.959      222.033        0.687        0.078      109.203       11.764        0.012      334.768        4.959      865.517
10/30/2013  22:09:00      -74.830       -6.434       -5.175       32.919       26.414       18.051     1083.655      697.716      325.850        0.389        0.105       75.106       13.202        0.031      334.734        4.902      865.506
10/30/2013  22:10:00      -97.048       -9.243       -3.001       25.282       22.018       18.706      639.182      484.806      349.930        0.549        0.074       97.487       16.112        0.027      334.663        4.783      865.488
10/30/2013  22:11:00     -102.743       -5.283      -16.800       24.352       20.510       14.043      593.005      420.655      197.199        0.604        0.061      102.879       13.046        0.016      334.595        4.672      865.486
10/30/2013  22:12:00     -102.633       -8.680       -5.568       26.689       27.166       22.495      712.328      738.000      506.011        0.630        0.098      102.999       16.713        0.026      334.590        4.661      865.476
10/30/2013  22:13:00      -59.123      -10.395        0.948       35.387       26.120       18.678     1252.221      682.279      348.871        0.294        0.114       60.030       21.062        0.123      334.581        4.648      865.461
10/30/2013  22:14:00      -80.842       -6.251       -2.527       46.589       21.483       17.007     2170.513      461.540      289.235        0.475        0.146       81.084       20.766        0.066      334.559        4.612      865.469
10/30/2013  22:15:00     -114.299       -4.080       -7.233       30.872       25.603       16.090      953.071      655.499      258.880        0.750        0.093      114.372       16.619        0.021      334.542        4.583      865.482
10/30/2013  22:16:00     -110.338       12.899      -10.770       32.964       24.613       21.366     1086.595      605.790      456.512        0.730        0.107      111.090       19.610        0.031      334.566        4.623      865.492
10/30/2013  22:17:00     -110.522        5.347       -5.948       39.075       25.793       17.726     1526.843      665.290      314.195        0.739        0.125      110.651       19.977        0.033      334.568        4.626      865.503
10/30/2013  22:18:00      -67.685      -11.964        1.859       34.299       25.335       18.387     1176.410      641.869      338.084        0.344        0.108       68.735       18.096        0.069      334.579        4.643      865.504
10/30/2013  22:19:00      -31.298      -16.715       -0.951       21.757       17.725       11.805      473.362      314.178      139.349        0.109        0.046       35.482        9.666        0.074      334.661        4.780      865.498
10/30/2013  22:20:00      -63.280      -27.926      -10.849       13.479       13.663        9.027      181.696      186.670       81.491        0.268        0.022       69.168        6.238        0.008      334.839        5.076      865.494
10/30/2013  22:21:00      -24.931      -19.719       -7.832       21.561        9.323        8.232      464.855       86.925       67.765        0.085        0.031       31.786        7.690        0.059      334.859        5.112      865.493
10/30/2013  22:22:00       -1.577      -27.327       -9.443        8.720       10.814       10.243       76.037      116.950      104.923        0.057        0.015       27.372        6.158        0.051      334.911        5.195      865.498
10/30/2013  22:23:00      -11.116      -28.913        8.156       16.421       15.037       13.941      269.662      226.109      194.352        0.086        0.035       30.976       10.897        0.124      334.998        5.342      865.512
10/30/2013  22:24:00      -38.195      -32.121        7.148       17.542       13.168       16.243      307.720      173.409      263.827        0.164        0.037       49.906       13.204        0.070      334.866        5.120      865.521
10/30/2013  22:25:00      -42.829      -13.125       -2.273       14.586       11.421        8.470      212.764      130.437       71.739        0.121        0.021       44.795        8.068        0.032      334.824        5.050      865.524
10/30/2013  22:26:00      -61.208        5.433       -5.863       12.182       10.774        6.992      148.413      116.075       48.882        0.206        0.016       61.449        2.968        0.002      334.753        4.934      865.533
10/30/2013  22:27:00      -89.211        6.932       -6.433       14.263       13.198        7.871      203.422      174.193       61.956        0.424        0.022       89.480        4.578        0.003      334.713        4.867      865.555
10/30/2013  22:28:00     -102.509        1.110       -7.694       24.879       13.246       10.946      618.954      175.447      119.815        0.574        0.046      102.515       12.944        0.016      334.688        4.825      865.572
10/30/2013  22:29:00      -66.584      -12.949       -3.873       26.334       15.220       12.326      693.461      231.639      151.919        0.285        0.054       67.832       14.527        0.046      334.609        4.694      865.588
10/30/2013  22:30:00      -36.411      -19.805       -2.591       15.177       15.123       10.185      230.341      228.697      103.738        0.114        0.028       41.449        8.660        0.044      334.565        4.622      865.620
10/30/2013  22:31:00       -3.295       -1.256        6.110        8.951        8.377        6.280       80.114       70.176       39.436        0.012        0.009        3.526        5.881        2.781      334.556        4.607      865.654
10/30/2013  22:32:00       -8.753        1.413        0.669        8.391        4.487        6.079       70.411       20.138       36.950        0.010        0.006        8.867        2.905        0.107      334.575        4.638      865.661
10/30/2013  22:33:00      -25.768      -11.158       -1.353       11.743       10.628        6.490      137.901      112.947       42.118        0.054        0.015       28.080        4.640        0.027      334.656        4.772      865.666
10/30/2013  22:34:00      -55.861      -26.306       -2.372       32.674       11.421       11.564     1067.562      130.430      133.721        0.257        0.067       61.745        4.407        0.005      334.610        4.697      865.672
10/30/2013  22:35:00     -105.041      -40.353       -6.379       24.539       12.955       12.985      602.150      167.834      168.603        0.682        0.047      112.526        8.858        0.006      334.454        4.440      865.677
10/30/2013  22:36:00      -84.629      -42.847        1.546       54.410       35.643       27.550     2960.421     1270.403      759.003        0.699        0.249       94.857       28.370        0.089      334.423        4.386      865.673
10/30/2013  22:37:00     -108.478      -92.832       -0.348       48.687       56.787       28.009     2370.413     3224.767      784.483        1.338        0.319      142.777       23.859        0.028      334.474        4.470      865.679
10/30/2013  22:38:00     -144.742     -118.099       -0.521       45.981       51.609       33.225     2114.296     2663.458     1103.880        2.039        0.294      186.809       33.926        0.033      334.404        4.352      865.694
10/30/2013  22:39:00     -129.424      -91.918       -2.944       42.914       41.946       25.834     1841.611     1759.445      667.399        1.474        0.213      158.744       25.845        0.027      334.459        4.445      865.704
10/30/2013  22:40:00      -96.419      -70.333       -5.496       41.011       27.277       20.080     1681.879      744.016      403.214        0.855        0.141      119.346       19.279        0.026      334.492        4.500      865.723
10/30/2013  22:41:00      -65.911      -18.737       -2.601       25.512       22.774       16.148      650.845      518.668      260.755        0.307        0.072       68.523       15.597        0.052      334.404        4.355      865.744
10/30/2013  22:42:00      -88.833      -20.761        3.859       35.037       31.800       21.829     1227.603     1011.216      476.488        0.553        0.136       91.227       20.725        0.052      334.322        4.219      865.751
10/30/2013  22:43:00      -88.662      -45.188       -0.809       21.290       35.713       20.160      453.243     1275.404      406.438        0.602        0.107       99.513        9.892        0.010      334.395        4.339      865.736
10/30/2013  22:44:00     -109.794      -33.616      -10.891       25.720       35.870       20.487      661.502     1286.663      419.711        0.784        0.118      114.825       13.242        0.013      334.419        4.380      865.714
10/30/2013  22:45:00     -119.265      -46.560       -0.511       26.430       28.082       15.524      698.535      788.605      241.007        0.906        0.086      128.031        9.794        0.006      334.393        4.337      865.706
10/30/2013  22:46:00      -37.935      -43.898       17.460       54.269       34.279       22.431     2945.165     1175.057      503.135        0.415        0.231       58.018       26.420        0.207      334.430        4.397      865.703
10/30/2013  22:47:00      -84.687      -80.781        7.164       51.432       33.844       30.799     2645.289     1145.419      948.580        0.924        0.237      117.036       27.350        0.055      334.449        4.431      865.705
10/30/2013  22:48:00     -116.373      -76.289       -5.331       44.918       34.784       26.817     2017.653     1209.943      719.154        1.167        0.197      139.149       12.123        0.008      334.446        4.424      865.714
10/30/2013  22:49:00      -87.576      -59.442        6.762       40.348       38.444       24.269     1627.960     1477.959      589.005        0.747        0.185      105.844       22.565        0.045      334.505        4.522      865.730
10/30/2013  22:50:00      -83.115      -45.907        6.593       26.624       25.337       15.047      708.828      641.966      226.418        0.532        0.079       94.951        5.331        0.003      334.463        4.452      865.747
10/30/2013  22:51:00      -80.779      -37.606       -4.949       32.661       19.606       13.927     1066.759      384.386      193.959        0.480        0.082       89.103       11.029        0.015      334.475        4.471      865.770
10/30/2013  22:52:00      -76.105      -36.595        3.430       28.413       26.852       15.273      807.296      721.015      233.275        0.445        0.088       84.446        7.284        0.007      334.452        4.436      865.788
10/30/2013  22:53:00     -122.519      -51.327       -0.965       23.951       21.114       16.668      573.645      445.805      277.832        0.947        0.065      132.836       14.492        0.012      334.408        4.362      865.804
10/30/2013  22:54:00      -88.301      -21.596       -2.361       36.512       26.451       20.946     1333.123      699.650      438.749        0.537        0.124       90.903       16.540        0.033      334.376        4.309      865.801
10/30/2013  22:55:00     -121.307      -27.358       -8.163       23.504       24.972       17.649      552.420      623.594      311.470        0.851        0.074      124.354       12.485        0.010      334.396        4.341      865.806
10/30/2013  22:56:00     -107.902      -20.637      -11.849       23.759       21.697       15.191      564.512      470.775      230.770        0.674        0.063      109.858       11.776        0.011      334.356        4.275      865.809
10/30/2013  22:57:00     -103.388      -23.551       -4.449       36.570       23.204       16.241     1337.345      538.447      263.775        0.670        0.107      106.036       17.108        0.026      334.310        4.199      865.797
10/30/2013  22:58:00     -112.089      -53.714       -3.097       20.899       20.562       14.614      436.767      422.813      213.566        0.827        0.054      124.295       11.522        0.009      334.301        4.185      865.783
10/30/2013  22:59:00     -121.685      -50.940       -4.786       21.113       32.604       17.890      445.779     1063.027      320.055        0.963        0.091      131.917       13.872        0.011      334.350        4.265      865.787
10/30/2013  23:00:00      -97.423      -40.259       -1.486       33.724       27.675       20.778     1137.307      765.929      431.731        0.672        0.117      105.414       20.533        0.038      334.248        4.097      865.779
10/30/2013  23:01:00      -80.251      -24.746       -1.562       27.153       25.465       16.781      737.284      648.471      281.593        0.436        0.083       83.980       15.231        0.033      334.252        4.103      865.789
10/30/2013  23:02:00     -125.855      -12.753      -14.004       32.309       21.664       21.523     1043.841      469.333      463.243        0.909        0.099      126.500       19.826        0.025      334.197        4.010      865.813
10/30/2013  23:03:00     -103.645       -2.101        0.629       42.030       23.490       21.634     1766.547      551.778      468.034        0.677        0.139      103.666       24.565        0.056      334.168        3.963      865.820
10/30/2013  23:04:00     -115.947       -6.280       -9.853       29.498       22.831       17.700      870.129      521.266      313.308        0.764        0.085      116.117       13.832        0.014      334.109        3.863      865.811
10/30/2013  23:05:00     -120.849      -30.221      -16.863       16.542       16.143       12.199      273.626      260.611      148.804        0.824        0.034      124.571        6.581        0.003      334.141        3.917      865.796
10/30/2013  23:06:00     -119.052       -7.158       -7.905       30.486       23.561       19.090      929.410      555.133      364.426        0.807        0.092      119.267       16.594        0.019      334.144        3.922      865.785
10/30/2013  23:07:00     -117.354      -16.799      -10.141       38.766       35.260       24.525     1502.773     1243.255      601.476        0.875        0.167      118.550       23.078        0.038      334.061        3.785      865.769
10/30/2013  23:08:00     -116.882      -20.597       -7.160       44.203       40.454       25.588     1953.898     1636.560      654.738        0.919        0.212      118.683       19.550        0.027      334.063        3.788      865.756
10/30/2013  23:09:00     -111.289       -4.937        5.152       63.696       38.199       31.310     4057.128     1459.148      980.346        0.947        0.325      111.399       33.967        0.093      333.946        3.593      865.757
10/30/2013  23:10:00      -57.812       -5.287        3.216       59.791       28.380       28.943     3574.955      805.397      837.669        0.430        0.261       58.053       29.119        0.252      333.913        3.540      865.765
10/30/2013  23:11:00      -89.207      -47.842        0.412       44.292       40.632       24.021     1961.796     1650.950      577.020        0.722        0.209      101.226       17.784        0.031      333.916        3.545      865.770
10/30/2013  23:12:00      -52.481       -4.758        4.128       46.788       35.676       27.264     2189.085     1272.764      743.340        0.350        0.210       52.697       22.349        0.180      333.937        3.580      865.777
10/30/2013  23:13:00      -67.389       -8.960       -9.408       37.606       35.579       19.473     1414.248     1265.860      379.183        0.388        0.153       67.982       13.489        0.039      333.962        3.622      865.782
10/30/2013  23:14:00      -79.952       -6.008       -5.362       47.326       30.278       27.400     2239.748      916.768      750.743        0.518        0.195       80.177       29.529        0.136      333.984        3.659      865.789
10/30/2013  23:15:00      -85.552      -25.368       -4.994       30.466       35.194       18.712      928.152     1238.623      350.156        0.525        0.126       89.233        6.763        0.006      334.038        3.748      865.796
10/30/2013  23:16:00      -52.278      -11.123      -10.023       26.707       33.736       14.919      713.264     1138.085      222.579        0.252        0.104       53.448        9.784        0.034      334.034        3.741      865.801
10/30/2013  23:17:00      -72.144      -24.447      -10.012       36.360       28.885       14.009     1322.060      834.318      196.242        0.413        0.118       76.174        6.331        0.007      334.019        3.716      865.814
10/30/2013  23:18:00      -84.939      -14.720       -7.585       28.297       24.309       15.676      800.727      590.915      245.744        0.456        0.082       86.205       12.633        0.021      333.931        3.570      865.817
10/30/2013  23:19:00      -79.845      -51.347        1.513       50.709       30.926       27.207     2571.354      956.420      740.200        0.664        0.213       94.930       29.697        0.098      333.960        3.619      865.807
10/30/2013  23:20:00      -74.337      -33.774        1.033       41.081       33.380       20.826     1687.689     1114.229      433.742        0.495        0.162       81.650       23.457        0.083      333.926        3.562      865.795
10/30/2013  23:21:00     -120.186       -2.377      -11.979       35.853       23.905       18.856     1285.422      571.464      355.557        0.840        0.111      120.210       16.996        0.020      333.830        3.401      865.794
10/30/2013  23:22:00     -103.455      -14.849       -9.930       23.736       32.500       19.285      563.380     1056.224      371.901        0.651        0.100      104.516       12.852        0.015      333.804        3.360      865.795
10/30/2013  23:23:00     -115.700       -3.385      -13.783       27.312       29.199       20.499      745.952      852.576      420.225        0.780        0.101      115.750       15.988        0.019      333.823        3.391      865.819
10/30/2013  23:24:00     -101.901      -25.775       -8.815       25.142       26.558       18.558      632.117      705.310      344.395        0.640        0.084      105.110       16.249        0.024      333.864        3.459      865.835
10/30/2013  23:25:00      -78.866      -19.028       -5.267       26.643       24.357       17.484      709.852      593.261      305.682        0.411        0.080       81.129       16.768        0.043      333.892        3.504      865.830
10/30/2013  23:26:00      -99.595      -18.679        0.725       31.097       23.194       15.638      967.012      537.940      244.558        0.601        0.087      101.331       14.203        0.020      333.866        3.463      865.814
10/30/2013  23:27:00      -71.877      -21.435        7.819       44.320       20.597       19.764     1964.249      424.216      390.631        0.423        0.139       75.005       25.833        0.119      333.949        3.600      865.800
10/30/2013  23:28:00      -74.149      -10.988        0.604       42.219       22.106       16.371     1782.408      488.656      267.997        0.408        0.127       74.959       17.100        0.052      333.866        3.463      865.777
10/30/2013  23:29:00      -73.349      -27.241        5.285       26.956       22.571       15.101      726.623      509.445      228.053        0.381        0.073       78.244       11.841        0.023      333.866        3.461      865.746
10/30/2013  23:30:00      -75.038      -16.937       -4.206       26.155       21.861       14.731      684.103      477.893      217.008        0.366        0.069       76.926       14.288        0.034      333.902        3.521      865.719
10/30/2013  23:31:00      -37.613      -28.041       -0.540       26.073       17.721       13.024      679.816      314.046      169.621        0.168        0.058       46.915        9.662        0.042      334.017        3.712      865.704
10/30/2013  23:32:00      -52.115      -27.391       -3.364       21.160       14.513        9.229      447.748      210.615       85.177        0.211        0.037       58.875        2.963        0.003      334.036        3.745      865.709
10/30/2013  23:33:00      -74.386      -42.272       -0.788       39.732       21.290       16.744     1578.638      453.267      280.353        0.482        0.116       85.559       19.238        0.051      334.009        3.700      865.708
10/30/2013  23:34:00     -103.580      -60.909       -5.923       21.962       36.087       16.031      482.343     1302.263      257.001        0.826        0.102      120.162        9.627        0.006      334.021        3.720      865.723
10/30/2013  23:35:00      -81.303      -39.183        3.889       44.567       24.081       16.417     1986.188      579.901      269.504        0.550        0.142       90.252       17.697        0.038      334.000        3.684      865.739
10/30/2013  23:36:00      -48.579      -30.837        5.858       44.122       19.327       19.947     1946.773      373.545      397.867        0.303        0.136       57.540       24.968        0.188      333.996        3.678      865.749
10/30/2013  23:37:00      -73.960      -28.885       -4.680       35.215       20.570       18.515     1240.076      423.127      342.810        0.417        0.100       79.400       17.449        0.048      333.925        3.560      865.752
10/30/2013  23:38:00     -114.164      -38.131       -6.014       23.599       25.329       15.828      556.912      641.555      250.528        0.799        0.072      120.363        8.966        0.006      333.943        3.589      865.740
10/30/2013  23:39:00     -143.533      -53.492       -3.035       26.479       16.081       16.570      701.136      258.604      274.550        1.235        0.062      153.177       15.597        0.010      333.849        3.434      865.723
10/30/2013  23:40:00     -123.251      -70.686        1.198       50.479       27.973       24.318     2548.155      782.483      591.350        1.205        0.196      142.082       26.602        0.035      333.871        3.470      865.706
10/30/2013  23:41:00     -148.114      -60.437      -11.216       23.193       24.620       14.043      537.920      606.162      197.200        1.353        0.067      159.970       11.600        0.005      333.825        3.393      865.679
10/30/2013  23:42:00     -125.971      -46.126       -7.986       33.071       36.284       17.281     1093.713     1316.510      298.642        1.038        0.135      134.150       10.257        0.006      333.827        3.396      865.655
10/30/2013  23:43:00     -116.979      -43.401       -8.871       34.559       30.074       16.487     1194.312      904.433      271.805        0.901        0.119      124.770       12.704        0.010      333.811        3.369      865.654
10/30/2013  23:44:00      -85.121      -42.584        4.467       41.900       35.654       21.429     1755.628     1271.190      459.218        0.628        0.174       95.178       22.409        0.055      333.803        3.357      865.667
10/30/2013  23:45:00      -81.627       -1.208       -3.855       40.109       21.749       15.595     1608.764      473.024      243.197        0.450        0.116       81.636       15.015        0.034      333.835        3.411      865.694
10/30/2013  23:46:00      -99.690      -48.433       -8.238       29.009       20.478       11.910      841.528      419.340      141.850        0.688        0.070      110.832       12.498        0.013      333.815        3.377      865.705
10/30/2013  23:47:00     -101.420      -59.053       -5.554       22.415       19.159       13.134      502.450      367.061      172.504        0.742        0.052      117.359        9.447        0.006      333.802        3.355      865.704
10/30/2013  23:48:00      -66.290      -36.945        4.052       42.020       21.845       15.408     1765.651      477.226      237.395        0.413        0.124       75.890       15.323        0.041      333.874        3.477      865.703
10/30/2013  23:49:00      -40.569      -26.062       -0.033       27.663       13.341       14.595      765.255      177.979      213.016        0.174        0.058       48.219       13.105        0.074      333.766        3.298      865.715
10/30/2013  23:50:00      -54.236      -20.842       -7.382       13.710       21.399        8.553      187.958      457.914       73.148        0.207        0.036       58.103        6.573        0.013      333.771        3.304      865.730
10/30/2013  23:51:00      -42.859       -9.462       -2.392       11.727       17.744        9.471      137.530      314.851       89.698        0.124        0.027       43.891        6.609        0.023      333.763        3.291      865.732
10/30/2013  23:52:00      -44.066      -11.954        6.683       25.352       15.076       15.461      642.712      227.291      239.039        0.162        0.055       45.659       15.946        0.122      333.744        3.261      865.724
10/30/2013  23:53:00      -57.108        7.440       -7.050       12.759       11.056       12.598      162.794      122.243      158.710        0.191        0.022       57.591        6.767        0.014      333.753        3.275      865.719
10/30/2013  23:54:00      -72.316      -15.199      -11.722       11.348       13.434        9.765      128.778      180.476       95.351        0.300        0.020       73.896        4.821        0.004      333.762        3.290      865.711
10/30/2013  23:55:00      -72.062      -23.285       -6.278       17.412       16.685       11.654      303.187      278.394      135.809        0.325        0.036       75.731        8.316        0.012      333.814        3.376      865.698
10/30/2013  23:56:00      -91.095      -11.869      -12.209       24.843       14.006       13.076      617.164      196.174      170.977        0.479        0.049       91.865       11.034        0.014      333.743        3.257      865.676
10/30/2013  23:57:00     -102.094      -18.253      -15.445       18.012       17.109       15.222      324.432      292.724      231.724        0.592        0.042      103.713       10.196        0.010      333.683        3.157      865.659
10/30/2013  23:58:00     -114.515      -21.233      -16.915       14.918       11.913       12.436      222.540      141.930      154.645        0.718        0.026      116.467        7.102        0.004      333.583        2.992      865.645
10/30/2013  23:59:00     -112.442      -52.245      -16.637       14.578       17.540       16.748      212.518      307.653      280.484        0.822        0.040      123.987       10.585        0.007      333.554        2.944      865.615
